GFSGBSN_925_spd_000.txt.gz
Wind_Speed
18 15 15 14 16 14 14 14 12 13 13 12 12 10 8 7 7 6 5 5 6 7 8 10 9 9 11 6 10 7 2 8 4 13 20 16 16 18 20 21 17 20 15 14 13 11 11
18 17 17 13 15 14 14 16 14 14 14 13 14 12 9 7 9 8 7 8 9 9 9 10 10 12 8 14 9 12 17 13 4 9 17 21 12 20 15 21 24 14 18 15 13 13 10
19 17 18 17 12 13 12 13 15 15 15 14 15 15 11 9 9 11 8 9 10 11 10 10 9 12 10 14 6 4 5 10 12 9 18 24 28 14 16 19 19 19 14 15 16 14 13
18 19 18 17 14 13 13 13 16 16 15 15 16 16 13 12 11 10 9 10 13 13 9 7 8 9 7 7 19 15 8 5 9 16 14 20 22 15 15 14 17 21 16 17 18 14 13
20 20 18 18 15 14 14 14 14 16 17 15 17 17 16 13 12 12 11 10 14 14 11 8 6 6 6 4 17 18 21 12 4 12 16 10 15 8 14 16 11 17 16 22 17 13 12
19 19 19 19 17 15 14 14 15 14 16 16 16 17 16 16 14 14 12 10 11 8 9 8 3 4 7 8 9 15 13 19 7 11 9 12 9 12 12 12 20 13 19 11 17 11 11
21 18 19 19 16 16 15 13 14 14 16 17 16 17 16 16 16 16 11 5 5 4 11 9 9 5 2 15 6 10 10 16 8 10 12 18 13 22 32 18 17 18 19 15 13 6 5
22 20 16 20 16 14 14 13 12 13 15 16 16 17 15 16 17 14 13 5 5 4 4 14 5 19 3 8 6 11 13 15 12 16 16 15 23 24 14 20 17 19 16 16 12 6 6
23 23 18 19 19 18 14 13 12 12 14 14 14 15 13 13 12 14 18 11 11 12 2 7 17 14 8 14 6 12 17 20 13 16 17 22 17 20 18 21 23 17 17 15 9 5 7
23 23 20 19 20 18 16 14 13 12 12 12 13 12 11 9 8 12 8 18 21 16 2 6 9 10 14 7 9 18 23 17 9 20 17 19 22 22 15 20 22 18 11 9 8 1 5
24 22 22 20 19 18 17 15 14 13 10 10 11 12 11 14 2 2 10 20 20 6 4 10 9 7 10 16 5 17 23 17 14 11 6 14 13 18 22 24 26 11 12 9 3 5 6
25 24 23 21 19 18 17 15 15 13 12 10 10 11 9 9 9 7 18 20 8 2 7 8 7 12 15 18 10 10 10 12 5 9 16 13 5 19 14 24 19 16 14 9 4 2 7
29 24 24 23 20 18 16 15 14 14 12 11 10 11 13 10 4 19 30 8 3 5 3 6 5 8 16 12 18 10 17 21 7 7 7 9 15 3 15 16 3 16 15 3 6 5 6
26 28 25 24 20 18 17 15 14 14 12 9 10 10 13 18 13 20 15 3 7 4 6 4 7 15 10 15 13 12 15 18 18 13 11 7 5 12 12 20 9 16 15 4 5 6 5
36 26 23 24 21 18 15 15 13 13 11 8 7 6 7 16 17 29 5 4 4 4 8 7 14 10 9 17 8 14 16 19 13 18 4 9 3 10 13 5 11 4 6 1 3 2 3
36 26 25 22 21 17 14 14 14 13 8 7 6 4 7 14 25 15 2 4 4 6 6 18 8 11 12 18 7 15 16 16 11 17 8 11 3 8 9 8 4 10 11 5 2 5 5
30 34 22 23 20 17 13 13 12 11 7 8 5 2 5 18 24 4 3 5 5 11 14 16 8 10 11 16 7 17 16 8 20 15 14 5 6 3 13 7 13 12 7 5 3 3 3
23 27 24 20 20 16 12 12 11 10 8 10 5 3 15 30 5 3 4 5 4 7 21 14 10 7 13 15 9 8 16 7 22 11 9 8 3 7 4 3 8 11 11 12 7 5 2
21 27 31 18 19 15 12 12 11 12 13 9 3 2 18 18 4 8 5 7 7 13 19 14 10 8 6 13 8 16 13 16 19 15 10 11 7 8 5 1 3 6 10 16 9 1 10
19 24 30 18 18 16 13 12 12 13 14 9 3 3 3 4 3 3 8 7 7 17 17 11 8 9 15 11 12 15 14 8 17 22 20 2 5 12 12 9 12 14 18 17 17 10 8
23 20 29 26 17 17 14 13 13 14 15 11 3 5 4 6 9 14 6 7 12 10 8 2 6 11 14 9 10 9 13 6 16 19 18 5 4 9 2 4 16 18 19 19 20 19 12
30 22 25 27 18 19 16 14 14 15 17 5 3 3 3 3 8 13 13 12 15 3 8 4 3 14 16 11 13 14 13 11 10 16 20 11 3 3 3 4 10 13 19 22 23 20 22
31 26 25 26 25 21 17 15 16 17 21 4 5 2 2 3 4 6 5 10 17 16 6 5 12 13 17 11 14 15 15 12 9 16 21 12 5 4 3 4 5 8 17 19 18 20 21
31 27 24 26 30 21 17 17 16 19 23 8 3 1 3 5 6 4 4 6 8 18 4 4 10 16 6 11 13 12 8 4 13 8 16 13 5 1 3 2 5 1 4 14 21 16 19
31 28 28 25 26 23 18 17 16 19 21 17 5 2 2 4 4 3 5 4 4 5 3 3 1 2 12 5 9 9 4 3 4 6 6 11 3 3 4 7 5 4 5 7 11 12 14
30 30 28 29 29 18 18 16 16 18 18 22 12 11 2 3 2 1 4 7 3 3 3 3 3 2 2 1 4 4 5 6 5 2 4 5 7 4 1 4 4 3 3 5 5 6 10
32 32 29 27 32 17 19 15 16 18 18 20 6 16 3 3 1 3 3 6 3 2 4 4 2 2 1 2 2 3 3 3 10 12 8 4 5 11 9 2 7 2 6 4 5 1 9
31 32 29 26 30 23 20 15 16 18 18 20 4 15 5 2 1 2 1 3 3 2 4 6 5 1 2 1 2 2 2 4 4 8 12 12 9 5 4 3 8 6 5 6 4 9 12
32 32 31 28 26 25 22 16 17 18 18 20 4 11 15 3 2 1 0 1 2 1 4 2 2 4 4 2 1 4 3 2 4 5 1 6 3 5 7 4 2 1 2 1 8 14 9

GFSGBSN_925_spd_003.txt.gz
Wind_Speed
20 21 19 19 18 16 17 16 16 14 14 13 13 13 11 9 10 11 8 5 4 5 4 5 7 8 9 9 16 7 3 6 2 12 20 16 18 16 21 22 22 24 24 20 20 15 13
20 22 20 19 19 17 16 16 17 17 15 14 14 14 12 10 11 13 11 9 7 5 5 6 8 10 11 15 14 18 13 12 8 6 14 18 13 17 15 21 22 13 25 23 17 20 18
23 21 21 21 20 19 18 16 15 17 17 15 15 14 14 12 12 13 13 11 10 6 5 5 6 10 14 14 7 11 14 17 16 15 11 17 20 15 12 18 21 23 17 21 23 18 19
24 23 22 21 21 19 18 18 17 17 18 16 15 15 15 14 13 14 12 11 10 8 6 5 6 10 9 12 22 13 7 5 9 16 18 16 18 19 19 12 11 23 19 16 20 23 20
24 25 25 23 20 18 19 19 19 18 18 18 16 15 14 14 13 15 12 11 10 10 7 6 6 10 8 6 17 23 22 16 8 9 17 16 15 17 14 11 8 15 17 25 20 22 19
24 25 25 23 21 20 19 18 18 19 19 19 18 16 15 15 13 13 11 8 8 6 7 5 5 5 11 9 11 17 19 19 18 12 12 16 9 13 15 15 15 19 24 19 24 19 15
24 26 25 24 23 20 18 17 18 18 19 17 18 16 14 14 13 15 10 4 1 2 10 10 9 11 3 15 6 8 15 15 16 16 18 20 12 19 27 22 22 21 20 24 17 21 19
25 27 27 25 24 21 18 16 15 17 17 17 18 16 15 12 13 15 11 5 6 1 4 19 15 16 8 6 6 12 17 13 17 21 19 18 19 27 29 22 26 19 20 26 11 16 10
28 26 27 26 24 24 22 19 15 15 17 15 15 14 13 11 10 15 16 14 9 6 4 6 19 19 17 7 11 13 17 20 19 22 22 24 23 26 25 23 24 28 23 21 14 13 11
29 29 28 27 25 24 23 21 18 15 15 14 14 13 11 9 5 15 15 16 17 11 3 6 8 7 13 7 9 26 25 17 12 21 23 20 21 22 29 22 22 26 20 16 12 12 9
27 24 30 26 25 24 21 22 19 16 14 13 13 13 13 17 4 3 6 13 19 5 6 11 9 10 11 13 6 19 25 20 20 18 7 13 12 20 24 25 18 17 27 17 15 9 3
26 29 26 28 25 24 22 21 19 16 14 15 13 13 13 11 11 4 13 22 7 2 7 8 6 12 12 18 17 6 22 17 14 13 18 21 7 20 18 20 18 3 12 10 11 6 7
31 35 35 22 27 25 23 20 19 16 15 14 17 15 17 12 8 19 27 6 3 6 3 5 4 9 18 16 21 13 16 19 11 6 9 12 21 11 9 12 20 18 16 6 6 7 7
26 33 32 31 25 28 23 21 19 16 15 15 15 17 17 16 11 23 14 2 8 3 6 4 4 6 9 12 21 16 9 14 23 10 8 10 8 13 10 14 9 19 20 8 9 10 12
30 28 35 34 32 26 23 22 19 16 15 17 13 18 9 21 17 27 3 5 5 3 5 6 8 5 5 14 10 17 14 13 20 18 3 7 8 4 15 13 13 10 21 2 6 7 9
25 19 27 30 33 23 24 21 19 17 15 19 13 8 9 16 25 20 3 9 6 5 6 9 8 11 11 18 13 15 12 14 19 16 16 5 5 6 10 13 3 7 10 5 2 7 6
23 25 23 28 35 19 21 21 18 17 15 21 8 3 6 19 23 4 6 7 6 8 11 14 13 12 13 17 16 18 9 6 20 15 17 8 4 5 4 7 11 3 7 5 4 2 3
28 28 22 25 31 31 21 20 18 16 19 25 5 3 18 28 6 3 7 5 4 8 16 15 7 11 11 17 16 16 15 10 18 12 8 9 5 2 4 3 20 14 10 14 6 5 4
32 31 22 24 33 34 20 20 18 20 28 11 3 3 19 18 4 7 8 6 7 6 13 12 11 10 11 14 12 12 11 15 12 19 9 13 5 4 4 9 4 6 10 15 12 3 11
31 31 23 23 28 29 15 20 19 22 25 13 2 4 3 5 5 4 8 5 6 13 16 15 9 10 10 14 15 15 9 11 10 19 17 3 8 3 5 7 11 12 15 14 13 9 9
32 30 31 23 26 28 15 19 19 22 23 14 3 5 5 5 8 14 6 4 8 6 16 18 7 16 16 13 17 5 15 11 12 13 11 3 5 7 2 3 13 11 16 16 17 16 10
34 31 29 27 27 27 25 19 20 21 22 8 3 4 4 3 9 15 16 10 13 11 11 9 11 18 17 11 14 11 16 12 9 14 14 9 4 3 3 2 7 12 16 19 21 20 18
34 32 31 27 28 28 32 22 21 22 23 3 4 2 3 5 9 9 7 12 15 18 8 12 12 6 15 15 10 6 14 13 5 12 14 7 5 3 3 6 5 9 17 18 18 20 19
33 32 29 29 29 30 32 24 22 23 27 5 4 2 4 9 11 11 6 10 15 15 11 9 7 3 8 4 2 2 9 11 5 9 16 14 10 4 3 6 6 2 4 14 19 18 19
34 33 30 28 30 28 29 14 23 24 23 18 6 3 3 7 10 10 6 7 1 8 20 3 5 4 8 9 9 6 2 3 3 6 14 11 7 3 3 4 8 6 2 4 13 15 17
33 33 30 28 30 26 26 31 24 22 22 23 15 11 3 4 2 1 3 4 3 2 3 2 4 5 4 4 4 5 4 4 4 2 7 8 9 5 1 3 5 4 2 1 4 8 1
33 33 31 27 28 29 27 32 24 22 21 21 8 19 5 4 6 3 4 3 2 2 4 5 7 5 2 2 7 6 4 10 7 9 5 4 3 4 3 3 6 4 6 4 5 3 4
32 32 32 29 28 26 26 28 26 22 22 23 6 16 8 4 4 2 2 2 1 2 5 5 6 2 3 5 3 2 3 7 6 14 9 7 7 4 4 5 8 9 5 4 3 5 7
31 31 31 29 27 25 26 28 25 23 23 21 4 12 12 4 3 2 4 2 4 2 1 6 2 7 3 1 2 2 2 3 6 7 6 9 8 8 9 5 5 5 3 2 5 9 9

GFSGBSN_925_spd_006.txt.gz
Wind_Speed
23 22 21 22 21 18 16 15 15 16 15 13 12 11 10 9 10 9 8 7 6 7 7 6 5 6 7 8 12 3 5 5 1 9 17 14 14 12 16 10 16 23 18 21 18 17 18
23 24 22 21 24 21 18 16 14 14 17 15 13 13 12 11 10 9 9 7 7 8 8 7 7 7 7 14 12 16 8 7 5 5 15 17 13 13 16 17 18 10 20 20 19 18 14
24 23 24 22 23 23 21 18 16 14 13 16 14 13 14 13 11 10 8 8 8 9 9 7 7 8 11 14 6 10 14 16 12 12 10 12 18 13 7 15 13 18 16 16 22 20 16
24 24 24 24 24 24 23 19 17 16 15 14 15 14 14 15 13 12 10 7 8 8 10 8 6 10 7 13 24 11 7 9 12 14 16 17 16 9 16 7 10 7 11 14 19 16 19
25 23 24 25 25 25 22 20 18 17 16 16 15 15 13 15 14 12 10 7 7 8 10 7 5 9 7 6 18 19 18 14 11 10 8 15 14 10 9 11 7 10 13 22 15 18 16
26 24 24 25 26 24 22 21 19 17 16 16 15 16 15 13 14 12 8 6 5 6 7 6 10 3 8 10 10 16 20 22 14 12 9 8 6 10 11 12 17 12 12 13 18 17 18
34 28 26 26 27 25 22 22 20 18 17 16 15 13 14 13 13 12 7 1 1 1 8 10 8 10 2 11 2 10 15 15 14 12 14 12 8 18 21 21 18 18 19 16 16 16 18
32 34 28 28 28 26 24 22 19 17 17 15 14 12 13 12 12 12 10 3 3 3 6 16 17 19 23 7 8 12 14 12 15 16 15 14 19 25 17 18 18 20 20 19 16 17 21
33 32 23 26 28 27 26 23 22 19 17 15 13 13 12 11 10 10 13 10 5 2 5 6 18 17 15 11 13 12 16 16 14 18 19 19 23 16 19 18 20 21 23 19 17 18 8
34 33 26 26 19 27 27 25 24 21 18 16 13 13 11 11 5 12 14 15 12 3 4 5 6 6 14 6 7 18 15 15 12 20 17 15 20 20 19 22 20 21 23 20 18 20 7
34 33 33 29 27 21 29 27 24 22 19 16 15 16 15 19 6 7 5 9 7 4 5 8 6 5 6 10 4 10 29 16 18 17 11 10 14 20 23 23 20 22 13 17 22 11 4
35 33 31 27 27 27 26 27 24 21 20 17 17 17 17 13 9 7 11 14 7 2 8 5 6 8 8 10 7 8 18 16 13 17 17 15 12 15 15 20 20 21 13 14 17 8 7
37 35 31 28 25 26 33 25 25 21 21 19 21 20 24 15 8 18 17 5 2 6 2 5 4 7 13 11 11 8 18 20 9 7 10 6 19 10 3 5 20 20 11 9 7 7 4
37 39 30 26 24 28 32 22 24 22 21 20 23 24 23 16 15 26 15 2 6 6 6 3 4 8 8 7 7 15 9 16 18 12 2 10 9 17 12 8 11 21 16 3 4 3 5
38 36 31 25 21 24 33 18 21 22 22 21 22 27 13 19 25 29 5 5 5 4 4 5 5 6 5 5 6 14 14 7 11 18 8 5 8 10 12 14 10 5 11 19 6 8 4
38 37 33 25 20 25 30 21 20 22 23 22 15 14 8 22 33 20 4 11 6 6 7 5 9 11 8 11 8 12 12 7 16 17 12 2 5 6 8 10 16 9 11 12 7 6 6
37 37 34 39 20 19 28 31 17 27 25 27 12 3 11 28 27 5 7 7 7 12 7 8 11 10 11 9 14 12 9 12 13 15 14 6 6 3 2 10 16 7 6 9 3 2 6
38 39 34 38 19 21 23 29 28 19 24 29 6 3 19 34 6 3 7 5 3 9 15 10 13 19 12 12 15 10 13 7 14 14 10 11 4 3 8 3 12 5 10 17 2 2 2
38 39 37 34 27 20 24 25 26 25 32 14 6 3 19 18 5 6 6 6 6 3 8 8 8 11 7 7 7 14 14 11 13 11 16 11 5 1 5 8 4 6 5 3 5 3 3
36 38 39 36 33 29 29 34 10 32 36 19 4 5 3 4 3 6 10 7 6 13 18 15 14 16 7 8 11 1 10 6 9 15 12 3 4 7 4 6 10 5 4 5 5 1 2
35 37 40 38 34 30 33 33 21 30 37 14 3 4 5 5 8 10 5 4 7 5 13 14 8 11 9 7 7 11 12 6 6 10 11 5 5 9 6 18 15 12 11 8 5 4 2
35 35 37 36 32 32 30 33 41 31 38 6 4 3 4 2 10 16 15 7 9 6 4 6 12 9 17 10 8 11 10 7 6 6 8 6 5 10 8 6 10 9 12 12 9 5 6
33 33 35 37 33 29 30 33 38 27 27 3 4 2 2 3 7 7 6 9 10 12 9 17 12 14 11 13 6 10 10 11 7 6 8 5 3 6 4 3 6 3 8 11 8 8 7
31 31 34 34 33 30 32 28 32 22 28 6 3 3 2 3 6 8 12 14 17 14 16 7 15 14 3 8 6 8 10 9 5 2 7 7 2 2 2 2 1 2 2 3 11 7 9
30 29 33 34 35 26 30 29 29 26 28 12 7 4 2 2 5 10 13 2 1 3 11 13 4 1 4 6 2 5 2 4 4 5 6 8 3 1 2 3 5 4 2 1 5 6 6
29 28 31 34 35 31 31 28 31 28 23 17 10 10 2 1 2 4 5 3 5 3 3 7 0 4 4 2 2 4 3 3 3 2 5 3 6 3 4 1 2 2 1 5 4 2 6
27 27 28 31 31 29 28 27 28 28 24 19 6 17 3 2 4 4 2 2 3 1 1 4 4 2 4 3 4 3 4 7 6 6 5 4 3 4 2 2 5 3 4 2 4 3 5
27 27 29 31 30 29 27 25 27 26 21 21 5 17 7 2 3 1 1 3 2 2 2 4 4 3 2 4 2 2 3 6 5 7 7 5 7 4 3 2 6 6 4 3 3 2 2
25 26 28 30 29 27 25 24 23 23 16 22 3 16 20 1 2 2 4 5 6 1 1 3 3 9 4 3 2 2 2 3 4 4 7 6 5 5 7 5 1 3 3 2 4 4 5

GFSGBSN_925_spd_009.txt.gz
Wind_Speed
22 22 22 21 21 20 21 17 15 13 13 13 10 9 9 8 7 6 6 5 4 3 3 4 3 3 4 5 6 2 8 8 6 9 13 9 5 3 5 4 5 12 14 15 17 18 19
23 23 23 22 23 20 22 21 17 14 13 13 12 11 10 9 8 7 6 6 5 5 4 4 3 2 2 11 9 15 9 5 4 8 13 12 6 7 7 6 11 8 10 17 20 16 14
30 24 23 23 23 23 22 22 19 17 15 12 14 12 11 11 9 8 6 6 6 6 5 5 3 4 5 12 8 6 23 15 10 6 2 11 19 8 4 4 4 8 13 15 18 19 14
32 31 27 22 23 24 23 23 21 18 17 15 13 14 13 11 12 9 8 7 5 6 6 5 3 4 6 6 19 23 6 7 8 10 12 16 10 4 3 4 6 4 6 13 9 9 8
33 34 34 28 24 23 24 23 21 19 18 16 14 14 14 10 11 9 7 7 6 6 6 5 4 4 7 4 15 20 18 7 7 10 13 14 8 5 4 4 4 3 10 7 7 7 6
32 33 34 32 25 25 23 23 21 19 18 17 17 15 14 12 10 9 7 6 4 3 5 6 6 2 6 4 7 18 14 16 7 3 3 4 4 5 3 4 13 11 6 13 9 5 11
33 33 33 35 31 28 25 25 23 20 20 19 18 16 15 14 11 10 9 3 2 1 6 8 8 4 2 7 4 10 16 10 7 3 5 6 7 12 12 12 10 9 15 14 12 10 12
33 33 33 34 34 33 26 27 25 22 20 18 17 16 15 15 12 12 11 4 2 4 4 14 16 14 18 2 4 6 11 9 10 14 5 6 18 11 11 13 12 15 15 21 15 16 9
36 34 33 35 34 33 32 25 25 24 22 18 17 17 17 14 13 13 16 8 5 3 3 6 12 10 13 12 12 8 11 9 8 10 11 16 3 14 13 14 14 17 18 18 16 14 14
37 36 35 34 32 33 27 18 21 25 24 20 17 17 18 16 9 12 8 17 8 2 3 4 3 4 6 6 5 19 23 11 7 16 13 13 14 16 11 18 14 18 15 14 17 11 11
36 37 36 36 33 31 29 28 16 21 26 21 19 20 22 23 8 11 8 15 14 4 4 6 5 2 1 7 7 8 22 14 17 11 10 8 7 14 18 23 13 16 11 13 13 15 15
36 39 37 35 35 30 26 24 18 19 24 24 23 23 23 21 4 12 18 20 8 3 7 6 5 5 3 7 4 2 4 12 3 13 13 15 3 3 13 12 15 3 5 11 9 9 13
37 40 37 36 36 33 21 22 22 20 24 27 26 27 29 20 9 23 26 7 3 4 1 5 4 6 9 8 8 7 4 13 5 6 6 5 12 3 2 3 5 4 4 4 7 6 11
38 38 38 36 39 28 20 19 23 20 24 28 32 31 29 18 21 28 14 3 6 4 5 3 3 6 6 6 8 10 2 8 15 5 2 6 5 13 9 13 7 10 14 6 7 7 6
36 38 38 38 37 42 28 25 25 21 21 28 32 31 24 19 33 32 4 3 6 5 3 5 3 4 4 6 7 7 10 6 8 15 7 5 8 2 12 12 14 7 12 21 5 5 3
36 38 39 37 39 43 12 19 22 29 15 28 22 20 20 28 38 19 2 5 5 2 6 4 8 9 7 6 8 8 9 9 8 16 15 3 6 5 13 12 13 11 11 11 5 5 7
35 38 39 39 43 33 17 16 20 18 21 32 17 6 22 35 23 5 3 7 5 6 8 6 6 4 7 6 8 6 7 6 15 12 19 7 6 4 3 12 16 11 8 7 4 9 2
35 36 38 38 41 35 25 21 24 30 21 28 4 5 30 39 6 3 4 5 3 4 5 13 8 9 7 10 7 5 12 6 8 7 14 10 3 6 16 10 16 16 14 11 8 8 9
35 35 37 38 39 39 31 25 33 39 19 14 6 3 25 26 6 4 4 7 7 7 8 6 8 12 9 9 4 10 8 10 14 8 10 8 4 4 5 6 5 20 14 9 8 5 13
34 34 36 38 38 41 34 32 32 37 29 13 3 4 4 4 0 9 8 8 7 7 14 10 4 7 10 9 11 5 12 5 17 17 18 11 5 7 3 3 7 9 18 16 12 7 3
32 33 34 35 37 38 31 35 29 26 21 10 2 2 5 6 7 5 11 4 7 5 10 6 6 15 7 5 5 6 5 3 11 20 9 6 6 5 16 16 11 12 15 16 19 18 7
31 32 34 33 35 37 30 33 34 32 13 4 4 3 3 5 10 14 8 7 8 6 6 3 7 8 10 6 6 5 7 4 5 10 8 8 5 10 2 11 13 14 21 17 7 1 7
29 30 32 32 35 36 32 30 30 33 7 2 3 2 3 6 8 8 8 13 13 10 8 12 11 5 11 10 9 4 5 5 6 8 8 6 3 5 4 8 10 0 9 5 3 1 4
28 29 30 29 32 34 35 33 28 30 34 7 6 4 3 3 4 8 5 13 15 15 11 6 9 11 6 5 3 4 5 4 3 5 4 5 1 3 3 5 1 3 0 5 7 4 4
27 28 30 29 31 33 32 31 28 27 31 3 5 3 3 2 7 7 8 5 1 2 8 11 10 5 4 3 2 2 1 4 4 3 3 3 3 1 1 2 4 3 3 3 5 4 2
27 26 28 28 30 33 32 29 31 27 28 5 12 9 3 3 5 5 1 1 2 1 3 4 2 3 1 2 3 5 3 2 3 4 1 4 2 2 3 1 1 3 3 3 1 1 2
26 26 26 27 28 31 31 27 27 25 26 11 7 8 4 2 3 4 3 3 2 3 3 2 4 2 1 3 0 3 4 7 6 5 4 4 2 5 2 2 6 4 2 3 3 4 3
26 24 25 26 27 30 30 28 25 22 23 16 5 14 5 2 2 3 5 3 2 3 3 1 3 1 2 4 4 2 3 5 4 4 5 5 4 3 2 1 6 4 2 4 4 0 5
25 24 24 25 26 28 28 27 24 21 21 19 4 14 15 1 1 1 4 6 5 6 1 3 3 5 4 3 3 3 2 3 5 4 3 4 6 6 7 5 1 2 2 2 4 5 4

GFSGBSN_925_spd_012.txt.gz
Wind_Speed
29 30 27 21 21 20 21 19 19 18 17 16 14 13 12 11 9 7 5 4 2 1 2 1 2 2 5 3 6 0 5 5 7 17 17 6 5 4 5 4 4 6 5 9 10 11 14
30 31 32 29 24 23 20 20 21 20 18 17 16 14 13 12 11 9 6 4 4 3 2 1 1 4 2 5 7 14 7 3 5 8 10 11 6 7 4 6 6 5 7 8 9 14 10
28 30 29 32 31 25 23 22 21 21 20 19 17 15 16 13 13 11 8 5 5 5 4 2 2 4 2 11 6 5 5 16 11 8 3 16 17 2 1 4 4 5 9 9 8 5 6
28 29 30 30 33 33 26 24 25 23 22 20 19 17 17 15 13 13 9 7 5 7 6 5 3 4 6 6 10 19 11 6 13 11 10 9 8 4 3 4 6 3 3 4 4 8 5
31 31 30 31 31 31 31 24 26 26 24 23 20 19 17 15 14 14 11 8 6 5 6 6 5 3 7 4 6 18 13 6 4 5 12 11 3 4 1 3 4 4 6 6 5 6 4
32 32 33 32 31 32 34 33 24 28 26 23 22 21 19 16 14 13 11 8 5 3 6 7 2 1 5 4 6 4 13 11 4 2 3 1 2 2 3 5 15 12 7 6 6 4 8
32 33 34 33 34 32 33 33 30 28 27 24 23 21 21 19 17 14 14 6 2 1 6 7 7 3 2 4 5 4 13 6 2 2 5 2 4 13 11 14 8 6 8 11 4 6 11
33 33 31 34 34 33 33 33 33 33 29 26 23 22 22 20 19 17 16 4 4 3 3 12 11 11 11 6 1 3 12 6 8 12 4 4 12 11 8 10 10 14 16 14 9 10 12
33 33 33 35 34 34 33 32 31 34 26 26 25 23 24 20 19 18 19 9 8 2 1 4 5 5 7 12 7 7 12 6 6 16 16 17 7 17 13 13 11 16 16 10 12 12 18
35 34 33 36 36 34 33 30 30 27 24 25 26 23 23 22 14 15 9 14 9 2 2 4 3 2 4 6 5 18 20 8 5 15 13 14 16 14 11 15 12 17 7 13 13 8 8
36 37 34 36 36 33 31 32 30 25 25 18 25 26 29 30 12 12 9 20 13 2 2 4 4 0 3 7 4 3 15 13 13 9 7 8 7 16 20 17 13 8 8 10 10 9 7
35 35 34 35 38 34 32 29 28 21 27 17 21 30 32 23 12 13 17 23 9 4 6 6 4 6 5 5 3 3 3 10 2 15 16 10 2 5 7 11 17 2 6 5 5 4 10
37 36 34 38 39 37 35 38 42 22 20 23 21 36 38 27 11 25 31 9 3 4 2 6 4 5 5 7 6 8 8 7 6 6 8 4 16 5 2 3 5 11 6 3 4 6 9
35 35 35 37 36 41 38 47 28 15 18 18 26 39 36 23 29 36 18 3 3 5 5 3 4 7 7 7 7 8 4 8 14 6 2 7 4 15 10 17 6 14 15 4 6 3 6
34 36 35 35 37 39 43 34 20 16 19 15 31 37 27 23 38 34 8 3 7 5 6 9 6 6 6 8 4 3 9 8 10 15 8 6 5 2 4 6 15 5 11 19 6 6 4
34 33 34 35 36 37 39 35 22 16 20 14 23 22 21 33 43 17 6 5 5 2 6 4 8 8 7 7 8 7 7 7 6 18 12 5 3 7 5 6 11 10 7 6 7 5 6
33 33 34 34 35 39 39 36 27 15 20 19 19 7 21 37 28 7 5 5 3 4 6 7 7 6 7 6 7 6 6 5 13 11 19 5 3 2 2 7 12 11 13 6 8 7 3
32 33 32 33 35 37 35 27 32 19 22 23 4 3 34 38 6 4 4 5 6 5 6 4 4 8 8 9 7 6 9 7 12 8 10 11 5 7 16 5 13 17 18 17 8 8 9
30 32 31 33 34 37 38 33 31 30 34 11 7 3 29 27 5 8 4 7 4 6 9 6 9 10 12 6 3 9 7 9 7 7 8 9 5 4 4 6 11 13 20 17 11 3 10
29 29 30 32 33 35 38 39 34 29 28 9 3 4 4 6 1 7 12 7 6 5 11 7 5 13 6 7 8 4 7 7 16 11 14 12 5 7 9 1 3 10 24 20 20 11 8
28 27 28 30 30 31 36 39 36 35 32 8 3 2 5 7 7 10 11 5 12 8 7 10 4 12 7 4 6 9 13 2 7 15 12 8 6 10 20 24 15 13 21 23 16 8 13
28 26 26 29 30 29 33 36 33 31 31 4 4 3 2 7 11 8 13 10 11 8 6 5 8 10 15 12 5 3 5 5 5 11 11 5 4 5 6 18 16 16 21 18 14 8 6
29 26 27 28 29 29 32 33 28 30 28 4 2 2 4 10 10 8 5 9 11 8 10 11 11 10 5 14 11 7 8 5 9 11 11 6 3 3 4 9 9 8 20 17 6 10 14
30 25 25 25 27 28 31 33 28 28 24 15 10 2 3 6 9 10 9 12 15 15 12 7 12 8 3 5 4 3 1 4 3 8 9 5 4 2 2 1 2 2 20 23 22 18 21
28 26 26 25 26 26 30 32 28 27 28 27 6 2 2 3 5 8 7 2 5 9 14 12 9 6 2 3 3 2 4 3 3 3 5 5 2 3 3 2 4 2 6 9 13 9 5
28 26 25 25 26 24 28 31 29 28 29 25 7 1 3 4 6 4 5 4 2 2 0 3 2 1 5 4 3 5 3 4 2 1 3 2 2 0 3 2 2 3 1 1 0 3 4
27 26 22 25 25 24 25 28 28 28 28 25 4 7 4 2 2 4 3 4 5 2 2 2 2 4 4 5 5 2 4 2 4 4 3 3 2 3 2 2 7 5 1 1 3 5 1
26 25 23 23 24 25 26 29 27 27 26 21 9 8 3 2 1 4 4 4 2 2 2 2 2 2 3 4 3 3 4 6 3 3 4 5 4 3 3 2 5 1 1 2 3 2 2
25 24 23 22 24 25 26 28 28 28 25 22 2 9 7 2 1 2 4 5 5 5 3 4 2 3 4 3 3 2 1 2 4 3 1 4 5 4 7 5 1 3 1 2 1 3 3

GFSGBSN_925_spd_015.txt.gz
Wind_Speed
25 27 28 28 28 31 30 21 23 21 19 18 19 18 15 15 14 13 11 10 7 4 3 3 4 4 5 2 7 0 2 2 9 21 12 5 3 2 3 3 3 5 3 5 7 8 8
26 27 29 29 29 29 30 29 23 24 22 20 20 19 17 16 15 14 12 10 8 6 4 3 3 4 2 3 6 13 3 3 7 14 9 9 4 5 4 4 3 3 4 6 5 8 7
27 27 27 29 30 30 30 31 32 22 24 21 21 20 19 18 15 15 13 10 8 7 5 4 3 3 1 11 4 5 6 9 2 6 4 12 11 1 1 3 3 4 6 6 6 4 6
28 29 29 30 29 30 30 30 32 30 22 25 23 23 21 19 17 15 14 11 8 8 6 5 2 4 6 5 6 17 9 5 10 8 5 2 10 4 4 6 3 3 2 2 3 10 7
29 30 31 30 31 30 31 30 33 31 29 25 26 25 23 22 17 15 15 12 7 5 5 6 3 1 7 4 4 12 12 5 7 9 7 4 4 3 2 3 6 5 7 4 5 6 5
29 32 33 31 31 31 31 32 31 30 30 28 27 26 26 23 18 16 14 11 7 3 6 6 1 2 5 3 4 3 11 11 2 4 2 4 4 4 3 6 9 4 4 3 5 4 3
31 33 32 31 31 34 33 32 33 32 29 30 24 27 27 25 21 18 16 10 3 2 6 7 6 3 2 2 4 3 7 10 4 4 5 1 5 9 12 10 7 5 5 5 4 7 6
30 31 32 34 33 35 34 32 30 32 28 31 27 27 28 25 23 22 24 5 4 3 3 14 7 12 7 4 0 3 13 6 5 6 5 1 11 7 5 6 9 11 13 16 7 9 9
30 31 33 31 32 35 34 33 30 31 29 29 28 27 28 28 26 25 24 14 6 2 1 5 6 7 5 6 6 5 10 5 5 8 7 12 4 9 10 10 10 10 12 10 13 9 13
30 32 33 34 33 34 35 38 29 28 28 27 27 27 28 30 24 22 12 17 7 2 3 5 5 4 5 5 5 17 17 5 5 11 11 12 15 15 10 13 10 19 9 13 12 5 6
31 33 34 34 33 35 34 36 28 32 33 30 31 27 24 40 23 12 13 22 12 4 2 3 3 1 4 8 3 0 14 8 12 9 6 6 5 13 19 15 12 10 7 10 10 7 7
31 33 33 33 33 34 32 36 37 45 29 26 22 22 21 27 22 19 27 28 9 5 6 6 4 6 5 4 1 3 4 6 2 8 14 10 4 6 7 11 16 1 9 7 7 8 14
31 32 33 34 34 33 34 37 43 39 29 16 15 23 20 34 11 35 38 13 4 4 1 6 6 6 5 6 5 6 5 10 5 6 8 4 15 3 3 5 9 12 5 3 4 7 8
31 32 30 33 33 33 35 38 44 37 22 10 16 15 20 28 29 43 27 4 4 4 5 2 5 5 5 8 5 9 6 10 13 6 2 8 6 14 8 8 6 16 15 5 6 4 4
31 31 30 31 32 33 36 39 44 37 16 10 8 5 18 22 41 37 12 3 8 6 6 10 7 5 7 7 4 7 11 11 8 16 9 3 5 3 7 15 6 5 11 19 8 8 4
31 30 30 30 31 31 33 36 40 32 19 13 2 2 11 40 46 25 7 5 4 3 6 6 7 9 7 8 9 8 6 4 7 11 10 5 4 6 8 5 10 17 7 4 6 5 7
31 30 29 31 30 31 33 35 38 33 26 15 6 1 11 38 31 9 5 5 4 4 6 6 6 7 7 5 8 7 5 5 9 9 16 6 5 2 3 11 14 7 13 7 4 5 4
30 29 28 29 30 30 30 33 37 33 28 4 4 2 27 40 7 4 5 6 5 5 3 2 2 8 8 8 7 6 9 7 10 10 11 11 4 6 14 3 14 13 14 17 4 5 7
30 29 27 27 29 30 29 32 36 36 26 13 4 3 26 24 5 6 5 3 4 4 6 5 7 9 10 8 4 8 5 7 12 13 12 9 4 5 3 6 12 8 11 17 16 3 9
29 28 25 25 28 29 30 32 35 34 26 19 3 2 4 6 1 11 7 6 6 4 5 9 4 9 7 7 7 3 5 4 12 11 13 11 5 8 9 3 3 7 16 21 19 10 14
29 28 25 24 25 27 28 32 36 31 31 4 2 4 4 7 4 12 8 7 10 6 7 8 5 9 6 6 6 9 8 10 3 9 9 8 7 10 17 18 14 6 15 22 24 24 15
29 28 26 22 23 25 27 29 32 32 33 2 3 3 3 8 8 12 13 8 12 11 7 6 9 7 14 8 7 4 4 4 4 5 9 4 4 3 15 23 26 15 17 19 23 20 22
28 27 27 23 22 25 26 31 34 30 25 4 7 4 2 12 13 9 8 8 13 7 9 10 10 11 10 13 17 19 8 9 6 9 10 5 3 3 5 3 7 6 21 23 22 18 17
28 26 25 22 22 23 23 26 29 26 22 15 4 3 2 6 11 14 9 10 6 8 7 5 9 8 2 4 4 5 7 9 7 10 10 7 4 4 3 3 1 5 5 15 18 13 11
28 27 25 22 22 23 25 26 29 28 27 24 9 4 1 4 9 10 11 5 8 12 15 13 7 4 4 3 2 4 1 3 6 7 13 8 3 4 3 3 3 6 8 9 9 10 14
28 26 23 22 22 22 23 25 28 28 29 29 14 3 3 4 7 6 11 5 3 3 1 5 2 3 3 2 3 4 4 3 4 4 5 4 5 2 3 3 4 2 7 11 10 4 20
28 25 23 23 21 22 24 25 27 27 29 27 10 11 3 3 1 5 3 5 4 2 1 1 1 2 7 6 4 3 3 0 3 3 2 2 2 2 2 2 6 3 2 8 6 5 4
27 25 21 21 20 22 23 24 25 25 28 26 17 8 3 1 2 3 3 4 3 3 3 3 1 4 3 5 4 3 4 5 2 2 4 5 4 3 2 1 3 2 1 4 2 2 2
25 24 21 21 21 21 22 23 24 24 26 27 5 8 2 2 1 1 4 4 6 5 4 3 2 2 3 2 2 2 3 2 3 2 1 3 4 3 6 5 3 3 2 2 1 3 2

GFSGBSN_925_spd_018.txt.gz
Wind_Speed
26 26 27 28 29 29 30 29 29 33 27 23 22 20 21 18 14 12 13 10 8 5 5 5 5 3 4 4 7 2 1 1 10 22 13 7 3 4 4 3 0 4 3 4 5 7 6
27 28 28 28 29 29 29 30 29 30 31 26 24 23 22 20 15 14 14 11 9 7 6 4 4 4 1 3 5 11 3 4 8 17 12 8 5 4 2 3 3 2 2 5 6 5 5
27 29 30 30 30 29 30 30 30 30 30 30 23 25 23 22 17 15 14 12 10 8 7 4 3 3 2 10 1 3 6 3 6 10 4 7 7 3 2 3 2 3 4 6 6 6 7
28 30 32 31 32 30 29 31 31 30 30 27 29 20 24 24 20 16 14 13 10 7 8 6 4 4 6 4 5 11 3 2 5 5 3 5 8 4 2 3 3 3 2 3 5 4 6
27 30 31 32 33 32 31 32 32 31 30 28 29 26 23 23 24 18 15 13 10 6 7 7 4 3 7 3 4 8 9 3 4 6 2 3 6 3 3 2 3 5 5 5 6 2 4
28 30 31 33 34 33 34 33 32 31 30 29 30 26 21 23 25 20 17 13 8 7 5 5 1 2 4 2 3 4 10 10 3 5 3 3 3 3 3 4 6 4 4 4 5 3 5
27 29 30 33 33 35 32 33 31 34 30 27 28 27 24 21 24 24 20 12 4 0 6 6 5 2 1 1 3 3 6 9 4 4 5 2 4 8 10 8 6 2 3 7 4 8 9
27 29 31 31 30 35 34 33 34 34 29 26 26 28 27 22 22 29 31 8 6 5 3 13 6 7 3 4 2 2 12 5 4 5 4 1 10 7 3 5 7 8 10 13 9 10 11
29 31 32 33 33 35 34 33 34 31 29 26 29 26 24 20 21 34 29 17 16 6 1 4 8 7 3 5 3 5 8 4 4 6 7 11 3 7 9 5 5 6 10 7 11 7 12
31 33 32 32 33 36 33 33 31 33 30 36 35 25 21 20 17 32 17 17 15 8 4 4 5 5 5 4 5 10 16 6 3 10 11 9 11 9 5 5 8 14 7 12 11 5 6
30 32 32 31 33 35 34 33 32 34 37 46 29 23 19 19 7 20 23 27 14 6 2 3 4 1 7 11 4 2 10 4 8 8 6 5 5 6 15 18 7 6 6 9 10 7 8
30 32 32 31 33 34 35 32 34 37 45 34 27 19 15 18 21 29 37 32 15 5 6 6 3 5 8 6 2 3 7 3 2 9 12 12 4 4 5 6 12 1 6 6 5 8 10
32 32 32 30 32 33 33 33 34 39 39 29 15 10 11 18 6 40 46 13 5 4 1 6 5 6 6 6 5 5 5 10 6 4 5 2 12 3 2 4 6 10 3 3 5 6 8
33 32 32 30 30 32 32 32 33 36 39 30 11 9 12 19 31 50 30 5 4 6 5 5 6 8 6 8 4 7 4 8 10 4 1 4 5 12 12 13 7 12 11 5 5 4 4
33 34 32 31 30 31 32 32 34 40 33 30 14 4 8 7 34 41 13 3 7 6 6 10 12 6 6 5 4 7 9 8 8 14 7 5 6 1 8 5 7 5 11 14 7 7 4
33 33 32 31 28 29 31 31 33 36 33 26 13 3 6 9 31 21 7 7 4 3 6 6 5 5 6 8 8 8 6 4 7 11 6 2 5 4 3 4 11 9 3 3 5 4 5
34 34 31 30 27 28 30 29 33 35 32 29 4 2 2 14 27 6 5 4 4 4 5 4 4 4 3 5 7 6 4 4 7 5 15 4 4 2 4 8 9 6 8 7 1 4 4
34 32 30 30 26 27 29 29 31 35 30 19 2 1 2 39 6 4 4 5 4 5 2 2 3 2 7 8 7 4 7 6 7 8 10 10 3 6 12 4 13 13 11 19 8 6 5
33 32 30 30 26 26 27 28 32 34 26 13 2 1 8 30 4 4 4 4 3 4 4 3 3 4 4 6 4 8 5 6 9 11 11 10 5 4 5 2 8 9 16 19 19 1 13
33 32 29 29 25 25 26 28 31 35 29 20 2 3 2 6 1 7 9 5 3 2 4 1 2 4 4 7 6 2 4 4 13 11 12 13 4 9 11 11 3 6 12 13 14 10 18
30 32 30 29 24 25 26 28 33 36 34 7 1 2 2 4 2 9 8 7 6 4 3 5 4 7 5 5 5 7 8 9 5 11 9 7 8 11 21 23 16 13 14 18 21 20 11
30 31 29 27 24 25 26 27 33 36 31 6 0 2 2 5 7 10 7 6 13 6 7 4 8 6 9 5 7 4 5 6 4 3 8 5 8 6 18 19 20 19 17 18 22 23 26
29 29 29 25 24 24 25 26 29 31 24 4 5 8 2 10 8 9 8 4 7 7 5 5 11 11 9 11 15 15 8 8 6 4 9 4 3 3 10 6 7 5 20 19 19 20 17
30 28 27 24 24 24 24 23 26 28 22 12 8 6 1 4 9 11 8 11 6 10 6 2 9 4 3 3 3 4 7 12 11 13 14 6 3 3 6 5 3 5 6 18 17 12 19
29 28 26 24 24 23 25 25 26 29 26 24 15 4 1 3 8 11 8 8 6 3 4 9 8 5 3 2 3 3 3 3 7 11 12 14 4 4 3 6 5 4 3 3 9 11 14
28 27 26 22 22 21 23 24 25 28 27 29 19 6 3 2 7 8 9 5 3 3 1 4 2 2 4 2 2 3 3 2 3 4 2 4 4 4 3 4 4 3 2 5 4 4 13
28 26 25 21 21 21 21 22 23 25 25 27 10 10 3 1 1 6 6 7 5 3 2 1 2 2 4 3 2 3 3 2 3 2 3 3 3 6 3 3 6 3 3 6 3 4 8
27 24 24 21 22 22 21 22 24 25 24 26 15 10 3 2 1 2 4 5 3 3 3 2 2 2 2 4 4 3 2 4 2 3 4 5 4 3 1 2 3 2 3 2 3 5 3
25 23 23 21 20 22 21 22 22 24 23 22 8 19 11 1 2 1 1 1 4 5 4 4 1 2 2 3 4 2 3 2 3 3 2 3 5 3 6 5 3 3 4 4 3 2 2

GFSGBSN_925_spd_021.txt.gz
Wind_Speed
24 25 26 26 26 27 27 28 28 28 27 28 28 24 21 21 21 17 11 10 7 8 5 4 2 1 3 3 6 3 1 2 9 20 11 6 3 4 3 2 2 3 2 3 3 5 5
25 25 27 27 28 27 26 28 28 30 29 27 28 27 21 20 20 19 14 10 9 9 6 5 3 4 4 5 6 8 8 2 6 18 11 7 4 3 3 2 3 2 2 5 6 8 6
26 27 28 29 29 29 29 28 29 30 29 28 27 27 27 19 18 22 16 12 11 11 9 6 4 5 2 10 3 1 6 4 7 11 6 9 6 4 5 1 3 3 5 7 7 7 8
27 27 29 29 30 29 30 32 30 30 28 28 27 26 26 20 16 21 18 15 13 12 11 8 5 5 5 2 9 12 4 5 7 9 8 8 9 3 2 1 2 2 3 3 3 0 6
25 26 28 29 30 30 31 33 30 30 29 29 27 25 25 25 17 18 21 17 14 10 11 10 5 4 6 1 3 7 9 6 8 7 7 10 7 3 2 2 2 3 4 5 5 4 3
24 25 29 28 29 32 32 32 33 31 31 29 27 23 25 24 20 16 25 19 12 9 7 7 3 1 4 2 4 6 10 9 4 6 4 3 3 4 4 5 5 4 4 4 5 1 4
26 29 30 28 28 29 30 33 32 30 30 29 27 22 23 23 25 11 29 17 6 2 4 6 4 2 1 4 7 3 9 7 3 4 5 2 5 9 12 8 7 1 3 6 3 6 10
28 29 29 30 29 31 32 34 31 31 29 28 25 25 28 26 24 23 37 7 11 11 4 12 2 4 2 1 4 2 12 5 4 4 5 3 9 11 1 8 9 12 13 15 10 5 7
28 29 31 32 31 32 32 33 31 31 29 30 27 31 31 29 22 21 28 17 27 17 5 2 7 6 3 3 1 6 8 4 4 6 6 5 2 4 10 6 9 10 11 12 16 7 12
29 31 31 31 31 32 32 33 32 31 31 31 37 39 29 21 13 12 21 25 23 14 4 4 4 5 8 4 4 8 14 5 2 10 7 10 12 3 4 6 8 15 8 13 13 7 7
30 30 31 31 31 31 31 32 34 33 32 35 43 34 19 16 6 6 14 28 27 5 2 3 5 3 5 7 6 1 7 2 7 6 5 4 5 5 12 11 9 7 5 7 8 9 12
30 32 32 32 31 31 30 31 34 34 35 41 34 19 15 10 12 18 38 30 15 5 6 6 5 7 8 7 4 3 5 1 2 4 7 7 4 5 8 7 14 4 3 8 4 7 9
32 32 32 31 31 31 29 31 33 34 35 33 35 14 9 14 7 21 42 9 4 4 2 7 6 7 8 7 6 5 7 9 5 4 6 4 15 7 4 4 2 11 3 3 4 6 7
33 33 32 32 30 29 28 31 33 33 37 32 46 24 11 13 15 31 29 4 4 5 4 6 6 9 5 7 5 7 7 6 11 3 1 4 5 11 10 15 6 16 10 5 5 5 4
33 32 33 32 31 28 28 30 32 35 38 32 32 5 6 9 17 23 9 3 6 5 7 10 11 5 4 4 3 6 7 4 8 12 6 3 4 2 4 4 8 5 10 9 7 11 8
31 33 33 32 31 28 28 32 29 35 38 29 18 1 4 5 11 22 3 5 2 3 13 9 5 4 9 10 6 8 7 4 6 9 7 3 4 4 0 4 8 6 3 4 5 4 8
32 32 32 31 31 27 28 30 30 35 40 23 5 1 1 7 17 4 1 3 5 4 8 4 4 5 5 6 8 7 4 4 4 4 10 5 5 2 5 11 12 7 6 6 2 5 4
32 31 32 30 29 28 28 30 29 35 40 15 4 2 3 24 3 0 2 6 4 4 3 3 3 5 5 6 5 5 6 5 6 7 9 9 4 5 11 9 16 18 16 19 9 12 5
31 30 31 30 28 26 27 29 30 35 34 18 5 2 7 14 4 2 2 4 4 3 2 2 3 3 4 5 4 6 4 4 9 9 10 9 4 4 6 1 7 10 17 22 12 8 11
30 30 30 29 27 25 28 29 29 35 38 20 2 1 4 2 1 5 5 3 4 3 3 3 3 4 3 3 4 3 4 3 10 8 10 12 5 7 10 14 5 8 15 17 18 8 15
30 30 29 29 26 26 27 28 30 34 44 9 2 2 2 2 1 4 4 4 5 3 2 2 2 2 4 4 5 5 6 2 4 10 7 8 6 10 19 24 23 23 24 17 21 24 12
30 30 28 28 25 26 27 28 28 33 35 8 4 2 1 3 5 6 5 4 6 3 4 2 3 6 5 4 6 4 4 5 6 4 7 4 5 5 23 21 19 21 22 21 21 21 22
29 28 28 27 25 25 25 27 28 29 31 4 5 4 3 9 5 6 5 6 8 5 5 1 7 4 7 9 8 11 8 4 3 4 10 5 2 3 17 12 17 8 7 11 14 19 15
29 28 27 27 24 23 23 25 26 26 27 15 7 5 3 3 6 7 9 4 5 8 2 1 4 5 1 3 3 6 7 11 11 12 11 7 3 3 9 9 4 3 7 8 15 13 17
27 27 26 25 23 24 24 25 26 26 27 22 16 3 2 2 4 9 7 7 3 1 4 4 2 3 4 3 3 3 3 2 7 9 12 14 7 4 4 6 7 3 8 2 4 6 18
26 25 24 24 21 23 24 23 25 27 29 30 21 3 3 1 7 5 5 6 4 5 2 3 1 1 2 2 2 2 3 4 3 1 6 5 9 2 3 4 4 4 4 2 4 3 7
25 24 22 22 20 20 22 21 23 25 27 28 12 11 5 2 1 5 8 5 4 4 2 2 1 2 3 3 2 3 4 2 3 1 3 4 3 6 6 3 7 4 6 3 4 5 5
23 23 22 21 21 21 20 21 22 23 25 25 18 9 9 3 2 2 4 4 3 3 3 2 2 1 2 2 2 3 4 4 1 4 4 6 4 3 3 2 6 2 1 1 3 4 2
22 22 21 21 20 20 19 20 21 21 22 23 8 23 23 4 2 2 2 1 3 6 4 3 2 3 3 3 3 2 3 2 3 3 1 3 5 3 7 5 4 3 5 3 2 4 2

GFSGBSN_925_spd_024.txt.gz
Wind_Speed
21 23 23 24 24 25 25 25 26 26 28 27 26 25 25 24 21 18 21 16 13 11 8 6 4 3 4 7 7 4 2 2 7 19 16 10 9 7 8 5 6 12 9 7 8 8 10
22 23 23 24 25 25 25 26 26 27 27 26 24 24 24 25 24 17 21 19 15 12 9 6 4 5 6 11 2 5 8 3 5 19 16 13 7 4 3 4 9 2 6 9 8 12 11
22 22 23 25 26 26 26 26 27 27 26 26 25 25 24 23 24 17 18 21 18 15 11 9 6 6 6 7 2 1 5 3 3 17 15 10 11 5 6 5 3 5 10 11 14 13 14
21 21 23 25 26 26 26 27 28 28 28 25 27 24 22 22 23 20 15 24 20 17 13 11 8 5 5 3 6 7 4 8 6 6 9 12 11 5 2 2 3 4 5 5 4 3 5
23 23 25 25 26 25 26 27 28 29 28 26 26 24 22 19 22 22 13 26 21 17 15 13 7 5 3 2 4 7 10 12 11 10 11 12 10 4 5 5 5 8 8 9 10 8 7
25 28 25 26 27 26 27 26 26 28 28 26 26 24 19 18 20 22 17 22 21 15 14 11 5 3 4 3 5 8 8 15 7 12 9 5 4 6 7 8 8 6 10 10 11 2 8
27 28 27 28 29 29 31 28 28 26 27 25 24 22 21 21 22 22 21 9 8 5 8 4 7 2 4 6 7 6 11 11 9 10 8 4 5 11 15 14 13 5 8 11 10 9 17
27 29 30 31 29 30 30 28 28 28 26 27 25 26 24 26 28 25 22 5 16 11 8 10 8 4 1 4 4 8 12 9 12 13 9 5 12 13 8 12 13 13 15 17 16 14 13
29 30 31 31 30 30 29 28 27 29 29 28 27 26 31 32 31 22 19 15 22 20 5 6 12 5 5 5 4 13 13 7 12 12 16 9 2 5 13 14 13 16 17 15 17 17 19
30 31 31 31 33 31 30 29 27 28 30 28 27 34 43 32 21 19 12 20 21 9 3 9 11 10 8 6 4 11 18 7 5 12 11 9 12 6 9 12 13 15 12 14 13 11 6
31 31 32 33 32 31 30 28 27 28 30 28 29 29 37 12 4 7 8 22 18 6 7 12 8 7 10 11 10 6 14 4 9 9 7 5 7 12 15 12 12 7 5 7 9 12 13
31 32 31 32 32 30 29 27 27 29 30 30 33 32 31 8 13 6 11 26 12 5 6 7 7 12 14 13 6 6 8 2 2 7 9 10 2 5 8 10 13 3 6 10 10 8 9
31 30 30 32 31 29 29 27 28 31 29 38 39 37 20 10 7 14 15 11 5 4 7 8 9 11 15 10 9 10 12 10 7 5 8 7 16 7 6 6 6 12 4 3 4 6 8
30 31 32 32 29 29 28 27 30 29 32 36 36 32 11 12 11 13 10 3 4 7 7 6 12 17 8 18 8 9 12 10 12 4 2 5 4 13 11 14 4 15 13 6 6 6 7
32 32 31 30 29 29 27 27 30 29 35 46 32 13 2 7 10 11 8 3 1 6 12 13 12 8 5 11 5 8 10 6 9 12 6 5 4 3 10 8 12 6 10 14 15 22 14
31 31 30 30 29 28 27 28 30 29 35 41 24 4 1 8 15 12 4 4 0 5 18 16 6 7 8 13 8 10 12 7 9 14 12 2 4 5 4 7 12 13 1 5 6 6 12
30 30 30 29 29 28 28 29 31 30 36 36 6 3 2 10 12 4 3 2 5 12 10 3 6 9 8 12 9 11 8 2 10 10 17 7 4 3 3 13 13 9 7 7 8 10 8
29 30 30 29 29 28 27 30 31 32 37 26 4 2 5 22 5 2 3 2 6 8 4 3 6 9 13 13 11 9 9 5 8 11 10 13 4 9 15 10 12 17 13 20 9 11 8
30 30 30 29 28 27 27 30 31 32 37 21 2 2 5 2 3 3 2 3 5 4 2 2 4 3 4 8 6 7 5 2 11 12 11 12 6 4 4 3 7 9 16 23 19 12 19
30 28 28 29 26 27 28 30 30 33 39 10 1 2 3 2 2 9 11 6 5 3 4 6 6 6 6 5 2 6 6 3 10 11 6 13 5 7 9 13 4 9 17 17 18 11 21
28 28 27 28 26 27 26 30 30 33 39 11 2 3 1 2 5 8 6 3 9 4 3 3 3 3 4 4 5 4 7 3 4 9 8 9 5 11 20 23 22 23 28 25 19 25 15
26 26 25 26 24 25 27 28 29 33 34 7 4 4 5 2 7 9 4 5 5 4 3 3 2 6 5 3 4 5 4 6 6 10 11 7 5 5 16 21 20 22 21 20 19 18 23
26 26 25 25 24 24 25 26 28 30 27 5 4 3 3 4 4 7 5 6 7 4 1 3 2 3 5 5 6 7 7 8 3 5 11 5 3 3 7 12 24 8 5 9 9 7 11
25 25 24 22 22 22 24 24 26 26 26 13 6 3 3 3 5 7 7 6 7 7 3 3 3 2 3 2 2 6 11 12 13 15 12 6 4 3 8 14 4 4 9 9 10 14 11
23 24 23 21 21 19 22 22 23 23 22 19 12 2 2 1 7 8 5 8 7 5 2 2 2 2 1 1 2 3 3 3 8 14 16 16 11 3 4 4 11 5 8 4 3 6 10
21 22 22 21 21 20 20 20 21 22 23 23 8 11 3 3 6 4 8 10 7 6 4 3 1 2 3 2 1 2 2 1 1 3 3 7 10 4 2 4 4 3 5 4 2 6 15
20 20 20 20 20 20 20 20 21 21 22 21 4 14 4 3 2 9 10 9 4 5 2 1 1 2 3 3 3 3 3 1 2 3 4 3 3 8 5 4 8 5 6 3 4 7 13
18 19 19 20 20 19 19 19 20 20 21 21 10 11 6 3 4 2 3 3 3 4 4 3 1 3 3 3 2 2 2 2 3 2 4 7 6 4 4 4 5 0 4 3 3 6 5
16 17 18 19 20 19 19 20 19 18 19 18 7 19 17 4 3 3 3 2 3 3 4 3 1 2 2 2 3 2 3 2 2 3 3 4 4 1 5 4 2 2 7 5 4 6 3

GFSGBSN_925_spd_027.txt.gz
Wind_Speed
20 20 20 22 23 23 23 24 23 24 26 26 25 24 24 24 22 23 21 15 19 15 13 10 8 6 6 8 11 6 4 5 10 18 18 14 15 14 12 10 9 13 17 13 13 14 13
20 20 21 22 25 24 24 24 24 25 25 26 26 25 25 24 23 22 21 16 20 17 14 11 7 6 9 14 3 3 4 4 10 20 18 13 7 9 7 8 10 1 12 13 13 15 15
20 21 22 24 25 25 25 24 25 26 26 26 27 25 26 25 22 21 21 17 17 19 16 12 9 8 10 12 1 3 8 8 7 17 14 16 5 5 5 7 8 8 14 14 17 18 15
23 23 26 24 25 26 24 25 26 25 27 27 26 25 26 25 22 19 20 18 14 21 18 14 11 8 6 3 8 4 6 8 4 12 15 11 6 2 4 3 5 6 11 11 3 9 12
26 24 26 27 27 30 28 28 27 24 26 27 26 25 25 23 18 19 20 24 20 24 20 16 9 9 5 4 8 13 9 12 9 9 11 12 7 3 1 6 7 11 10 14 10 10 8
25 26 27 29 30 30 29 29 27 26 26 23 25 25 22 20 19 18 23 25 21 21 19 14 3 5 8 7 8 9 12 12 10 14 11 8 4 3 8 9 8 9 15 12 12 4 7
25 29 30 31 31 32 31 29 28 26 26 24 25 23 23 21 20 19 23 12 5 6 11 6 13 1 8 8 11 12 16 14 13 13 7 8 7 11 16 16 15 9 8 11 10 9 16
29 30 31 31 33 33 30 28 27 26 26 25 25 23 20 25 25 22 19 3 13 6 6 11 12 8 7 12 7 13 18 10 10 13 10 5 12 15 10 11 12 13 14 15 14 14 13
30 30 31 32 33 31 30 28 28 26 24 25 26 24 24 30 26 32 23 19 27 8 4 13 14 13 8 9 8 17 17 12 13 15 15 9 3 8 14 12 12 13 13 12 14 17 18
29 30 31 31 30 31 29 28 28 25 26 26 25 26 27 30 19 12 20 17 23 5 4 11 10 7 8 7 5 17 19 9 7 14 12 10 7 5 10 13 12 13 10 13 14 9 6
29 29 30 31 31 31 29 28 26 26 28 25 23 28 32 23 14 9 2 19 15 3 6 17 12 10 15 10 15 11 18 5 10 10 7 4 7 12 11 12 9 7 2 6 8 10 13
30 31 32 31 31 30 28 28 26 27 27 26 30 35 30 20 10 8 9 25 2 4 4 7 7 14 16 13 8 11 14 4 3 7 11 10 3 5 8 9 12 3 5 7 9 6 8
31 30 31 30 30 29 28 27 28 27 26 28 34 38 28 14 5 13 26 13 4 5 11 9 9 14 17 13 11 13 14 11 8 5 8 10 15 7 9 8 6 9 2 2 3 5 7
30 30 29 29 29 28 28 27 29 29 27 31 38 30 9 11 8 20 7 3 9 7 7 8 14 17 10 17 10 14 14 12 15 11 2 8 6 17 12 13 6 14 10 5 5 7 10
29 30 29 29 28 28 28 28 30 29 29 35 34 18 3 7 13 17 4 3 1 13 10 12 17 11 5 17 6 11 13 11 13 14 7 6 4 3 10 8 12 6 9 11 13 18 11
28 30 29 28 28 27 28 29 30 30 32 36 26 5 3 10 15 9 2 2 1 9 15 18 6 6 8 17 10 13 12 13 10 17 12 0 3 5 7 4 10 10 4 1 4 5 10
28 30 29 28 28 27 29 30 30 31 33 33 3 1 6 12 14 1 1 4 10 18 7 2 10 9 9 15 10 15 16 5 17 14 15 7 4 6 3 11 13 10 6 6 6 5 6
28 29 27 27 27 28 29 31 31 34 37 16 2 2 1 9 3 2 2 2 12 7 3 4 8 6 16 17 11 12 9 2 8 9 11 10 3 6 11 8 7 12 13 17 7 9 7
27 28 28 26 26 27 29 32 32 35 35 10 2 2 3 3 2 1 3 3 5 3 3 3 5 3 6 13 6 6 8 4 9 12 10 11 5 3 2 0 11 10 15 18 18 16 20
25 24 25 25 25 26 28 30 33 38 32 4 1 2 2 2 2 11 6 4 5 5 9 9 9 10 9 13 3 8 6 4 8 10 8 8 5 7 6 8 5 6 14 16 14 9 18
23 25 24 24 24 25 26 29 31 35 26 6 4 3 2 2 2 7 6 4 2 3 3 3 4 3 3 4 4 4 5 7 6 7 6 5 3 7 16 22 20 19 22 23 20 21 16
23 24 24 23 23 23 25 26 29 32 24 6 3 3 5 2 7 8 5 7 7 4 1 3 5 5 3 4 2 5 6 6 5 9 10 4 3 4 15 20 17 15 21 19 18 20 18
21 22 23 22 22 21 23 24 27 27 22 6 5 3 2 1 7 5 4 6 5 5 4 7 5 4 3 4 3 1 2 5 4 7 11 4 2 2 6 10 19 9 3 8 11 14 9
21 20 21 21 21 21 22 22 23 23 23 9 3 2 3 3 5 5 4 3 8 2 5 4 3 1 6 6 1 3 6 8 9 11 9 5 6 3 6 11 3 3 6 8 10 15 15
19 19 19 19 19 21 21 21 21 21 23 17 7 3 2 3 5 6 4 4 5 4 2 2 4 4 1 2 2 3 3 3 9 16 14 11 7 3 3 7 16 7 7 3 2 6 15
17 18 18 19 19 20 20 19 22 21 21 17 7 9 3 3 2 3 7 5 4 4 4 3 3 2 1 2 2 2 2 2 4 6 1 6 9 4 3 4 4 5 5 2 3 3 12
16 16 18 19 18 19 19 20 20 20 19 16 2 12 3 2 3 4 6 5 4 5 1 2 1 1 1 2 3 3 3 2 3 3 5 4 2 6 7 4 9 7 7 1 3 6 10
15 14 15 17 17 18 20 20 19 18 19 18 8 8 5 2 6 5 3 3 4 5 3 4 2 1 1 3 3 2 2 2 3 3 3 6 6 4 4 5 5 5 7 5 5 8 6
16 15 15 16 16 17 19 20 19 17 17 16 6 13 11 3 4 6 7 5 4 6 3 4 2 0 2 0 2 2 2 3 4 2 2 4 6 2 5 3 9 7 8 7 4 8 8

GFSGBSN_925_spd_030.txt.gz
Wind_Speed
20 21 21 23 23 25 23 23 24 25 26 26 26 25 25 24 24 23 21 21 20 16 20 15 11 9 4 7 7 3 6 14 14 17 17 12 13 9 12 9 12 11 16 12 9 10 7
21 23 24 24 25 26 25 25 24 25 27 27 27 27 26 23 24 24 21 20 21 17 20 15 12 9 5 13 8 7 7 7 10 18 19 16 8 10 11 13 8 5 8 10 14 6 7
22 26 26 27 28 28 26 28 26 26 26 27 27 28 25 25 24 24 20 18 20 17 17 18 14 12 10 13 4 4 7 7 6 17 14 18 1 4 2 3 9 5 7 10 12 9 9
22 26 27 28 29 31 31 30 28 26 25 24 26 27 26 25 23 21 17 18 22 22 16 17 14 12 7 8 16 5 7 11 6 8 21 13 5 2 3 3 0 4 9 10 10 19 13
25 26 28 30 31 32 32 32 29 26 25 26 23 24 24 24 21 18 18 19 20 24 14 18 10 15 6 9 9 13 9 14 5 8 9 9 6 3 2 3 3 8 7 11 10 5 4
26 29 31 31 31 32 33 31 29 27 26 26 23 22 24 21 20 19 19 22 23 18 10 18 11 8 8 9 10 17 12 9 9 10 7 3 2 4 3 5 6 7 11 9 9 5 4
27 28 29 31 31 31 32 31 30 28 26 25 22 22 23 19 19 21 20 10 1 5 8 5 9 2 16 15 14 13 15 12 9 8 5 8 4 8 12 11 10 12 10 8 10 9 9
27 28 29 30 31 31 32 31 29 28 26 23 22 24 21 20 20 22 12 5 6 5 6 11 13 5 15 18 11 13 17 8 6 9 6 3 6 8 12 12 8 6 7 10 9 8 7
29 30 30 31 32 32 31 30 28 27 25 23 25 23 20 24 26 23 19 21 6 7 6 12 15 11 14 8 9 16 15 8 9 8 8 7 2 8 10 5 6 7 7 7 9 11 11
28 30 32 31 30 31 30 29 28 25 25 25 23 22 25 25 21 14 9 16 19 8 3 13 13 8 10 6 7 17 16 7 5 11 10 5 6 3 5 9 7 5 3 6 8 7 3
30 30 31 30 30 30 29 29 27 27 27 25 24 26 29 27 19 7 7 13 14 3 4 14 7 19 11 7 14 12 17 4 8 10 6 3 4 6 4 5 5 3 7 4 5 6 8
30 29 30 30 29 29 29 29 28 28 27 25 26 31 35 24 10 9 14 21 16 4 1 5 7 11 13 14 5 12 8 3 3 3 7 5 4 1 5 4 4 5 1 2 4 2 5
29 29 30 29 29 29 28 29 28 30 27 26 29 34 31 15 3 15 27 4 5 6 5 7 10 13 15 13 10 15 10 6 5 5 3 3 6 4 3 5 5 7 2 2 2 2 6
28 29 31 28 28 29 29 30 31 30 29 32 33 28 14 3 7 28 8 2 2 5 2 6 15 14 10 14 9 12 12 8 10 7 5 5 4 15 8 7 4 8 4 3 5 3 3
28 30 30 28 28 29 30 31 33 30 34 34 29 16 9 8 19 21 0 3 2 8 9 11 19 13 6 11 7 10 10 7 10 10 4 5 3 5 11 5 6 4 5 1 5 5 2
28 29 30 28 28 28 30 31 34 34 37 36 7 7 4 9 17 10 2 1 3 7 14 17 5 6 7 14 8 8 12 11 10 13 8 4 3 3 6 5 7 8 1 2 0 3 6
28 28 29 28 28 28 30 32 34 36 42 14 5 1 5 7 7 1 1 3 5 13 12 1 10 7 9 16 6 9 11 4 14 14 12 4 1 4 5 8 9 7 4 4 3 3 4
27 28 27 28 28 29 30 32 34 38 37 10 3 3 2 2 3 2 3 4 9 8 3 6 6 7 9 15 7 9 9 4 13 8 10 4 2 3 9 8 12 12 7 10 3 5 5
27 27 27 28 27 29 30 33 34 37 31 9 2 1 1 3 2 1 5 6 4 3 4 3 4 5 14 11 6 6 9 5 0 6 10 8 3 2 1 4 8 5 7 11 13 9 17
25 26 26 26 27 27 30 32 37 37 30 5 1 2 2 2 2 4 4 5 3 8 11 7 8 7 13 7 3 7 7 2 3 2 7 10 4 4 3 2 4 4 4 9 7 7 13
24 25 26 25 25 25 28 30 36 38 29 6 4 3 2 1 1 5 3 2 2 4 4 3 2 6 9 5 6 6 10 7 5 4 3 1 3 3 7 13 10 12 16 17 17 19 14
22 23 23 24 24 25 26 28 31 36 22 6 1 1 3 3 2 7 6 4 3 6 7 5 9 6 3 6 6 7 7 8 5 7 6 3 2 2 6 14 14 16 16 16 16 18 17
20 20 22 22 22 23 24 26 28 30 30 5 6 4 2 3 4 2 2 3 4 3 6 7 5 6 9 8 5 5 5 4 3 5 7 5 3 1 4 7 9 6 6 6 7 11 9
18 19 19 20 22 22 22 23 26 25 27 12 4 3 2 1 3 3 4 2 5 6 7 4 5 4 2 5 1 1 2 3 4 5 2 5 5 2 4 7 2 4 6 8 8 11 11
18 18 18 19 20 20 20 21 23 25 24 21 9 4 2 3 2 2 2 4 7 3 6 7 5 4 1 1 1 3 3 3 7 6 9 7 4 2 2 2 8 4 2 2 3 5 5
17 16 17 17 17 19 18 19 19 20 20 20 6 13 3 3 2 10 2 1 2 3 3 4 5 5 2 1 1 1 1 3 4 3 3 7 11 2 2 3 3 2 2 3 7 3 4
18 17 16 16 15 17 18 18 18 17 19 19 4 13 3 2 3 6 2 2 3 1 3 4 2 1 3 1 1 2 1 2 2 4 5 3 3 7 7 3 6 6 3 4 1 4 5
18 17 17 16 15 15 15 16 17 15 16 16 12 7 7 3 6 4 6 4 2 2 1 3 3 1 1 1 2 0 1 3 2 1 5 6 6 4 3 4 5 1 4 1 3 3 5
17 17 19 17 16 15 14 14 14 15 12 13 5 13 13 4 4 8 17 12 3 1 2 2 2 2 3 3 1 2 2 3 4 2 3 2 4 4 7 5 5 2 4 3 4 3 5

GFSGBSN_925_spd_033.txt.gz
Wind_Speed
21 23 24 25 26 26 26 27 26 27 25 24 25 25 23 24 24 22 24 23 20 18 17 16 15 12 7 5 7 4 1 22 20 16 15 9 6 5 6 6 6 6 6 10 9 9 5
27 22 25 26 28 29 30 31 31 29 26 24 23 24 23 23 22 24 23 24 20 19 19 16 18 15 5 8 12 6 10 18 18 20 14 10 6 7 3 6 6 4 4 2 5 7 4
25 26 25 28 29 31 30 31 30 30 27 24 24 23 24 22 20 22 22 21 16 18 20 17 23 19 7 12 6 14 12 13 13 18 7 20 8 5 3 4 2 4 3 6 5 6 5
24 25 29 29 29 30 31 31 31 30 27 25 25 22 22 22 22 20 19 17 17 18 23 16 20 16 5 18 12 6 12 11 6 7 21 14 5 3 2 3 2 3 3 1 7 9 8
26 27 28 28 29 29 30 30 31 29 28 26 24 22 19 20 22 18 17 17 21 21 19 23 19 9 5 10 15 17 14 10 11 8 10 9 3 2 2 5 2 2 3 5 6 8 7
28 28 29 29 30 32 31 31 30 29 27 25 23 21 20 22 17 19 18 21 25 21 10 18 8 3 5 8 10 20 14 11 5 13 7 4 3 3 1 3 6 6 5 4 6 5 2
25 28 30 31 30 30 30 30 29 28 26 24 21 21 22 21 17 19 17 10 4 3 3 4 13 5 7 13 18 17 17 9 7 5 5 4 3 7 10 7 3 4 4 4 4 5 2
26 29 30 31 29 29 29 29 28 27 25 23 23 22 21 17 21 20 24 3 4 5 5 18 21 4 17 18 8 11 15 6 6 4 7 4 1 3 6 9 9 4 5 5 6 5 5
27 29 30 30 29 29 29 29 28 27 26 25 24 21 21 22 26 19 9 14 6 4 3 6 11 8 8 6 6 13 11 6 6 5 5 6 4 13 8 1 6 1 3 4 5 6 5
26 29 29 30 29 29 29 28 28 27 27 26 23 21 22 26 15 11 14 7 12 3 2 9 6 8 6 7 5 9 11 6 4 8 5 2 3 4 2 2 2 0 4 4 4 5 4
27 27 29 31 29 28 29 30 30 28 29 26 24 24 26 24 20 5 2 20 18 4 3 12 9 13 5 1 15 10 4 2 7 9 6 4 4 5 3 2 3 3 6 4 3 3 5
26 28 31 31 28 29 29 31 30 31 28 28 28 29 29 21 7 5 25 22 11 3 2 4 8 11 7 15 3 7 3 2 3 5 4 4 4 4 5 2 4 4 3 3 3 2 3
26 27 31 30 29 30 31 32 32 33 30 33 33 32 21 10 3 15 26 5 6 0 6 5 10 13 14 6 6 10 6 4 5 5 2 3 3 3 4 4 3 4 5 3 3 1 6
25 28 30 31 29 30 31 32 34 34 36 43 29 15 9 1 9 28 8 1 4 6 3 11 15 15 7 9 8 7 7 4 2 3 4 4 3 8 4 5 6 5 6 4 5 3 4
25 28 28 30 30 30 32 33 35 38 43 27 12 11 10 4 20 11 1 3 2 3 1 9 13 7 4 4 7 5 4 5 5 3 5 4 2 4 5 3 6 4 3 2 1 2 3
24 27 29 29 30 30 31 33 36 40 42 21 10 8 11 8 9 2 2 2 3 3 12 10 5 3 5 6 6 5 8 6 4 8 2 1 4 3 3 3 2 4 4 3 2 3 5
24 26 28 28 29 29 31 33 35 37 36 13 6 3 10 4 3 2 2 4 2 15 10 1 5 6 9 6 6 6 10 7 8 9 5 2 3 2 1 5 7 3 4 4 2 4 3
22 25 27 27 28 28 31 33 35 35 32 11 3 3 1 10 2 1 1 2 0 5 8 2 5 8 8 6 5 3 8 2 8 12 6 3 4 3 9 6 8 5 5 5 4 5 4
22 24 26 27 27 28 31 33 35 35 26 8 2 1 4 2 3 4 5 8 5 7 5 2 4 3 13 5 5 4 4 5 7 9 11 5 2 1 1 3 2 5 7 6 3 2 10
20 22 25 26 27 28 30 32 34 36 18 4 1 3 3 1 2 2 5 5 5 8 6 5 9 14 7 3 3 8 3 3 3 4 8 5 4 5 5 2 3 1 3 7 9 4 8
18 20 23 24 24 26 28 30 34 38 16 2 3 1 1 2 2 2 1 5 5 4 6 5 6 8 6 4 8 5 6 3 5 2 4 3 3 1 5 7 5 6 10 11 12 16 10
17 19 20 23 24 25 26 28 32 35 15 8 2 3 4 3 1 4 2 3 5 5 6 6 6 10 10 5 1 8 7 4 4 2 3 2 1 1 5 10 10 9 13 13 16 18 19
16 17 18 20 22 22 24 26 28 29 24 7 5 4 2 5 3 1 2 2 4 2 7 6 3 5 9 4 3 3 5 4 7 7 6 5 4 2 5 4 5 3 6 6 5 6 9
15 16 17 18 19 20 21 23 23 24 23 8 4 2 2 3 1 2 1 4 5 4 4 4 8 3 2 2 2 5 5 4 6 5 6 6 5 2 3 4 1 2 6 7 10 7 8
15 14 15 16 16 18 19 20 21 19 19 14 7 3 2 3 4 4 3 5 3 5 5 4 4 1 3 2 2 3 1 2 4 5 6 4 3 1 1 2 5 3 3 2 5 5 7
14 15 15 16 16 15 16 17 18 18 18 15 5 10 2 3 3 4 4 4 3 3 3 2 2 3 4 1 1 3 3 3 3 3 3 4 4 1 0 1 3 1 0 2 4 4 5
14 15 14 15 16 16 14 14 16 17 17 16 1 10 2 2 3 4 1 2 3 3 3 2 1 2 2 1 1 1 2 3 4 6 4 4 2 6 6 4 6 7 4 5 2 3 3
13 15 14 15 16 16 15 13 14 14 14 14 9 8 3 2 6 4 4 3 4 3 2 3 2 1 1 1 1 2 1 2 1 4 5 5 6 3 3 4 6 5 4 3 3 3 3
13 16 12 14 16 16 15 14 13 14 13 10 6 9 7 2 4 9 21 19 7 2 4 2 2 1 2 1 2 1 1 3 2 2 2 3 6 4 7 6 5 1 4 1 2 2 3

GFSGBSN_925_spd_036.txt.gz
Wind_Speed
21 23 23 24 26 27 26 28 28 27 28 28 25 23 21 23 22 20 19 20 20 19 19 19 17 14 10 4 8 4 5 24 23 22 17 7 6 5 6 7 3 3 3 5 6 8 4
21 22 24 26 26 26 26 27 27 28 28 27 25 24 20 23 21 19 20 19 19 18 16 16 16 15 7 7 13 9 4 28 22 20 13 10 7 7 3 4 8 3 8 5 4 4 3
21 23 25 26 26 28 28 29 28 28 27 26 25 22 20 22 20 17 20 18 17 16 15 17 17 13 9 15 7 14 14 24 25 23 6 14 13 4 5 1 6 2 5 3 5 3 3
22 23 24 26 27 29 28 28 28 27 28 26 24 22 19 18 17 19 18 16 16 17 16 19 20 12 5 17 7 12 14 13 15 16 22 17 12 3 3 1 2 5 3 2 4 3 6
23 23 25 26 28 27 27 27 28 27 27 25 23 21 20 18 18 18 15 19 19 20 19 15 12 6 3 8 15 15 12 9 10 12 14 10 6 2 2 5 3 1 2 4 7 7 6
22 24 27 26 27 27 27 27 27 27 26 24 22 21 20 20 19 15 17 19 24 17 10 5 8 4 5 6 13 17 12 12 4 10 5 4 2 3 2 4 6 6 4 3 5 3 1
22 24 25 26 28 27 27 27 27 26 26 24 24 23 21 19 15 17 18 12 4 1 6 6 3 4 8 11 17 16 14 7 6 4 5 4 4 6 12 7 4 2 2 2 4 3 5
23 25 26 27 28 27 27 27 27 26 25 25 24 22 21 19 19 21 17 2 5 2 3 9 5 17 6 12 9 12 15 6 5 4 7 4 3 7 5 1 8 2 2 5 6 2 3
24 26 25 29 28 27 27 28 29 28 26 26 22 21 21 21 25 11 2 10 8 5 2 1 10 9 8 9 5 13 12 5 6 6 4 6 4 8 9 9 7 4 4 2 4 6 1
25 26 25 29 28 26 28 29 29 27 28 25 23 23 23 23 15 8 13 5 13 1 2 4 12 6 4 8 5 4 8 4 3 7 10 5 3 10 7 3 3 4 3 4 4 4 4
24 25 26 27 28 26 28 29 31 31 29 28 27 26 26 19 12 4 6 9 13 3 5 7 7 15 3 1 16 5 3 4 6 6 5 3 6 8 6 4 4 3 5 4 2 3 4
23 26 26 27 29 28 29 30 31 32 33 36 33 28 23 9 3 5 3 14 5 4 1 3 6 10 7 7 3 6 1 3 6 7 6 3 3 3 4 4 5 7 5 6 4 3 2
22 24 26 27 28 28 31 31 33 35 38 33 22 12 9 3 2 7 17 2 4 1 2 4 10 12 15 5 6 3 4 8 4 5 3 1 2 2 5 7 4 6 6 3 4 1 6
22 25 26 27 28 29 31 32 33 36 39 23 17 18 17 11 10 19 2 1 5 3 3 3 12 14 7 8 6 9 5 4 3 4 4 4 2 5 2 4 5 3 5 4 4 3 4
21 24 25 26 27 29 31 32 33 35 35 16 19 21 18 11 14 4 2 3 1 3 3 9 16 10 6 4 6 4 1 4 2 2 5 4 0 1 4 4 6 3 2 3 2 1 3
21 23 25 26 27 28 31 32 33 35 29 12 6 4 10 7 1 7 2 3 3 4 14 6 5 2 4 4 6 3 5 2 3 5 2 5 4 3 2 3 3 5 5 3 3 1 4
20 22 24 25 27 29 31 32 33 34 29 12 4 3 4 5 3 2 2 3 3 6 3 5 3 5 6 5 7 3 8 2 6 4 2 2 4 3 3 3 6 3 3 2 3 4 3
18 21 23 24 26 28 30 32 34 33 28 9 2 3 1 10 2 1 2 2 1 6 6 2 5 7 4 4 4 3 8 4 7 5 5 1 4 3 6 2 4 4 5 5 4 3 2
16 19 21 23 26 27 29 31 33 33 24 9 1 2 3 2 3 4 3 2 6 3 3 2 3 3 5 5 5 3 4 3 9 7 7 3 2 2 2 4 3 3 5 4 3 2 6
17 16 19 21 24 26 28 31 33 32 20 5 2 3 4 2 0 3 5 5 5 6 7 5 4 9 4 3 2 4 2 5 3 4 9 6 3 5 5 4 3 2 4 8 8 3 3
16 15 17 19 22 25 27 29 32 33 17 3 3 2 2 3 4 3 3 4 5 7 6 5 4 5 4 3 5 4 3 3 6 4 3 4 3 2 4 6 3 5 6 8 12 17 6
12 15 15 17 19 22 25 28 28 33 16 8 2 2 3 3 3 2 4 5 6 5 6 4 4 1 2 4 2 5 6 3 3 1 3 2 1 3 4 4 8 6 11 13 14 13 17
9 14 14 15 16 19 22 24 25 27 20 7 5 3 2 5 4 2 2 1 2 2 5 5 3 3 9 3 4 3 3 6 7 7 3 5 4 2 4 3 4 5 9 11 6 6 7
8 13 11 13 14 16 18 20 22 21 22 6 5 3 2 3 2 2 1 2 3 2 4 4 6 4 1 1 3 5 7 7 5 3 4 5 4 3 3 3 1 4 1 4 9 7 11
7 12 10 11 12 13 15 16 18 19 17 16 6 3 2 3 3 2 3 4 4 4 3 3 3 1 1 3 3 3 2 2 2 2 4 4 3 1 2 2 5 5 4 4 4 8 7
7 9 11 11 11 11 12 13 14 16 17 16 2 8 2 3 4 3 3 3 4 2 2 3 1 1 3 2 2 3 3 3 4 3 2 3 3 3 2 2 3 5 0 2 3 4 4
8 8 12 11 11 10 10 11 12 12 13 15 3 11 3 3 3 1 3 3 1 3 3 2 2 2 2 2 2 2 3 3 5 6 4 4 3 5 5 3 6 7 3 3 1 4 2
8 9 13 11 12 11 11 10 11 10 11 12 11 4 5 3 7 4 3 2 4 1 4 4 3 1 2 2 2 2 2 2 2 4 5 6 5 3 3 4 7 4 4 3 4 3 3
9 11 13 11 12 12 12 11 12 9 9 8 3 10 8 3 5 10 20 24 11 3 3 2 3 3 2 1 1 1 1 1 1 2 2 4 5 4 7 5 4 3 4 1 0 2 3

GFSGBSN_925_spd_039.txt.gz
Wind_Speed
20 21 22 24 25 24 25 26 25 25 25 26 27 26 23 21 22 20 17 18 17 20 20 21 18 14 10 5 7 4 2 18 25 26 21 9 6 5 7 7 3 4 2 5 5 6 4
20 22 23 24 26 25 27 26 25 25 25 26 26 24 23 22 21 18 16 17 17 18 18 17 15 13 6 8 15 16 8 19 26 26 18 12 7 5 5 4 8 4 7 6 4 5 3
20 23 23 26 26 27 26 25 26 26 26 25 25 23 22 21 20 17 15 17 16 16 16 14 14 9 6 13 3 7 10 28 27 21 10 14 7 5 4 3 5 1 2 2 5 3 5
23 23 24 28 26 27 26 26 26 25 25 25 24 22 20 19 17 16 16 17 15 13 15 15 11 7 5 20 11 1 7 18 20 21 18 19 12 2 2 1 3 6 3 3 3 6 5
22 24 25 27 27 28 27 26 25 25 25 24 23 22 21 19 19 17 14 16 17 16 16 14 7 5 2 3 8 10 7 11 17 8 11 12 8 3 1 5 3 1 4 3 5 6 3
24 26 27 26 28 29 26 25 26 27 25 24 22 22 20 20 17 15 16 18 23 16 9 7 5 4 3 5 10 9 7 14 5 8 5 4 3 4 3 3 7 6 5 3 4 1 3
23 26 28 27 30 28 26 27 27 28 28 24 24 21 19 18 16 16 19 10 4 1 1 6 3 4 4 5 10 7 6 8 4 2 4 5 3 8 11 7 2 5 3 3 3 2 3
24 26 27 28 29 28 27 27 30 29 29 26 24 21 19 17 17 20 11 2 5 2 3 5 6 11 4 6 10 7 13 5 5 5 6 4 9 5 7 5 3 2 2 2 4 1 2
24 26 27 28 27 28 28 29 29 29 30 27 26 23 21 19 19 9 1 9 7 7 1 1 0 3 6 8 6 10 11 3 6 5 6 4 4 10 6 4 4 2 3 3 4 4 2
23 25 27 27 28 28 27 30 30 33 33 33 32 28 23 19 10 3 7 6 10 6 3 4 3 4 6 10 4 6 11 4 3 8 6 3 3 11 11 8 4 3 1 2 3 3 3
22 25 26 28 27 28 29 30 32 34 35 32 23 19 13 9 4 2 4 4 8 1 6 9 7 6 2 2 13 5 3 1 4 10 4 2 3 10 8 6 6 3 3 4 3 3 3
22 24 25 27 26 28 29 30 32 33 35 28 22 16 9 7 4 3 7 14 3 2 5 1 5 7 7 5 3 5 2 3 5 6 10 4 3 3 3 3 2 7 5 6 4 2 2
20 23 26 27 26 27 28 30 32 33 32 24 18 16 11 5 2 6 14 3 3 3 2 4 7 10 11 11 7 3 0 5 3 5 3 5 3 2 5 7 5 5 5 2 4 3 5
19 22 24 26 26 27 29 30 33 32 29 18 16 17 20 12 11 10 2 2 6 1 3 4 16 14 7 8 6 4 4 4 3 4 3 4 1 4 1 4 5 2 5 4 5 2 4
19 20 24 26 26 26 28 30 32 31 28 16 11 10 10 9 8 5 2 3 2 2 4 11 15 8 4 7 4 3 3 3 3 2 5 4 2 1 2 3 5 4 1 2 5 3 3
16 19 22 25 26 26 27 29 32 33 26 15 7 6 7 9 8 7 2 6 5 2 6 6 5 2 4 4 3 4 3 5 4 2 2 4 5 2 2 4 4 3 7 3 3 1 3
17 17 20 23 26 27 27 29 31 33 27 13 3 2 2 9 5 2 3 5 5 6 8 5 2 5 5 5 5 3 5 3 1 3 5 4 4 1 3 3 6 2 1 4 4 3 3
13 17 18 21 25 27 27 29 31 32 28 10 2 3 3 8 1 1 2 2 2 4 3 5 5 6 4 4 2 3 4 3 4 5 4 2 4 3 4 1 1 3 5 4 4 3 1
12 15 17 20 23 26 28 29 30 30 25 7 2 2 2 2 3 3 2 2 2 2 3 3 3 1 2 4 4 3 3 1 6 5 6 4 1 3 2 4 3 2 4 4 4 3 5
11 13 16 18 21 24 27 29 30 29 18 4 2 3 4 3 0 2 4 4 3 4 4 4 4 4 4 3 4 4 2 4 5 5 6 6 3 4 5 3 3 2 4 6 6 3 3
10 12 14 16 19 23 25 27 29 30 13 3 3 2 1 4 4 4 3 2 4 6 4 5 4 5 6 3 2 3 2 2 4 5 3 4 2 2 4 5 3 4 4 7 7 8 6
10 11 12 14 17 20 23 25 28 30 11 6 2 1 2 3 4 5 4 5 4 5 5 5 5 5 3 3 2 6 5 2 2 2 3 3 2 2 4 4 5 5 8 9 9 9 11
10 10 10 12 14 16 19 21 24 27 20 7 5 3 1 4 4 2 2 1 1 2 3 4 1 4 6 4 2 1 2 5 5 6 3 4 5 2 4 4 5 5 8 10 5 6 10
10 9 10 10 13 14 16 17 19 21 21 5 5 3 2 3 2 2 5 2 1 0 4 2 3 3 2 1 2 4 8 7 6 3 4 5 4 2 2 4 2 6 1 6 9 7 14
9 10 11 9 11 13 14 15 15 16 17 13 7 3 2 3 2 4 5 3 1 3 2 3 2 2 1 3 3 3 2 2 2 3 3 3 3 2 0 2 6 2 3 5 6 7 7
9 10 9 8 10 11 12 13 13 13 14 14 6 7 2 3 4 3 2 1 1 0 3 2 2 1 4 2 2 3 3 3 3 1 3 4 4 2 2 2 3 3 2 3 4 4 2
10 11 9 10 9 11 11 11 13 12 11 13 2 9 2 2 3 2 4 3 1 1 2 1 3 2 3 2 2 2 3 2 5 5 5 3 2 6 6 3 5 9 4 3 1 3 2
10 11 11 9 9 10 11 12 11 12 9 10 8 2 4 2 7 4 3 3 3 2 3 2 3 2 2 2 3 3 2 3 2 3 5 8 6 3 4 4 6 4 3 3 3 3 3
10 11 11 9 12 10 11 13 12 12 9 7 4 6 6 4 5 8 20 28 17 7 1 1 2 3 4 3 1 2 2 0 3 2 1 3 6 4 7 5 3 4 4 2 3 3 4

GFSGBSN_925_spd_042.txt.gz
Wind_Speed
21 21 24 25 26 27 27 26 25 25 25 25 24 24 24 22 22 22 19 18 17 16 16 19 17 17 8 3 7 2 3 10 30 25 21 7 11 6 7 6 4 4 2 5 5 4 2
21 24 24 25 28 26 27 27 26 25 25 24 24 23 22 20 20 19 17 16 15 15 15 15 15 14 7 8 9 14 13 9 27 27 20 10 7 5 5 6 5 6 6 4 4 4 3
24 23 25 27 28 27 29 26 26 24 24 25 23 22 21 20 20 17 16 16 16 14 13 13 11 9 6 8 3 6 9 17 28 25 12 17 10 4 5 4 5 5 3 2 5 4 4
23 25 26 28 27 28 28 27 25 25 26 26 24 21 21 20 18 18 17 17 14 14 10 9 8 3 5 8 11 14 14 14 25 20 18 18 8 4 2 3 4 6 2 1 3 7 5
23 24 27 28 28 29 29 27 26 26 28 27 24 20 20 19 18 16 15 16 17 16 11 7 4 4 3 2 5 22 12 17 19 14 19 20 7 3 2 5 4 2 4 4 5 7 3
22 24 27 27 29 29 28 27 27 29 27 27 23 21 17 17 15 14 13 16 18 10 5 3 2 0 4 3 4 5 4 22 6 10 8 9 4 4 3 4 6 6 2 2 4 1 2
22 24 26 27 27 28 28 28 31 28 29 29 26 22 18 16 13 13 19 6 4 3 1 5 7 4 5 4 7 5 6 9 5 5 9 13 5 14 13 5 3 6 4 3 3 1 2
23 24 25 27 28 28 28 30 30 32 32 31 30 28 22 16 13 13 8 2 5 2 2 3 7 8 12 3 5 1 5 4 4 4 5 7 8 8 11 8 6 5 5 2 3 1 2
21 23 26 28 28 27 29 30 31 34 35 36 30 26 20 16 10 10 4 5 3 8 0 2 4 1 8 7 5 5 4 4 3 3 4 7 4 9 12 8 7 3 3 2 3 3 1
20 22 25 28 27 28 29 31 31 34 36 34 28 26 18 5 3 3 4 5 7 5 3 2 2 4 4 9 4 2 7 3 2 4 4 4 3 8 10 2 2 5 1 3 3 2 3
20 22 23 26 26 28 29 31 32 33 36 31 27 25 16 3 6 2 2 7 10 1 6 3 1 3 3 2 12 2 4 2 5 7 3 2 5 12 11 6 3 3 3 5 3 3 3
20 23 26 27 27 27 29 30 31 32 33 29 24 20 8 9 7 4 11 12 4 3 5 2 3 1 5 3 3 4 2 2 4 6 9 3 3 2 3 5 2 7 5 5 4 2 2
19 20 22 25 27 27 28 29 31 31 29 25 21 19 12 6 3 9 9 2 3 5 2 4 3 7 8 9 5 4 1 4 4 4 3 4 4 3 5 7 4 3 5 2 4 3 4
18 21 21 24 25 26 28 29 30 29 27 23 12 15 15 11 8 4 7 3 8 2 1 2 7 11 6 5 6 3 2 4 5 4 3 4 2 3 1 3 6 2 4 4 4 1 3
17 19 21 24 25 26 27 29 30 29 29 19 11 5 3 2 3 11 0 5 2 2 1 5 10 6 5 6 5 3 3 2 2 2 4 4 2 3 2 2 3 4 2 2 6 2 3
16 18 20 22 25 26 27 29 30 30 29 17 8 4 4 5 10 3 1 6 3 3 6 5 5 1 3 3 3 3 1 1 4 2 2 4 5 2 2 4 6 3 6 3 3 1 2
15 17 19 21 24 26 28 29 30 32 30 12 3 3 4 14 6 3 3 3 3 3 2 4 3 4 4 4 3 3 4 1 1 2 4 3 3 1 3 1 5 2 2 5 4 2 3
14 16 19 20 22 25 27 30 32 32 28 11 3 3 9 11 4 1 3 3 3 4 3 4 4 4 4 4 3 3 5 2 4 5 3 1 4 3 2 0 1 2 4 4 4 3 2
13 15 17 19 21 24 26 29 31 32 26 6 2 2 5 5 3 4 5 2 1 5 4 2 2 2 2 3 4 2 3 2 6 3 5 4 2 3 3 4 3 2 3 4 4 3 5
12 13 15 18 20 22 25 27 30 30 20 6 2 3 4 4 2 2 4 4 4 5 3 3 3 4 4 4 5 4 2 4 5 2 8 6 3 4 5 3 3 2 4 5 6 3 3
12 12 14 16 19 20 23 26 29 31 15 3 3 2 0 3 3 4 2 0 3 4 4 5 4 2 4 3 2 2 3 2 5 8 4 3 3 2 3 3 3 4 4 8 7 6 6
11 12 13 13 17 18 21 24 27 30 12 5 2 2 1 3 3 4 3 4 3 1 1 2 5 3 5 3 4 6 5 2 3 3 3 2 3 2 3 2 4 5 8 8 10 6 9
11 11 12 13 14 17 18 21 23 27 17 6 5 3 1 3 4 2 3 3 4 3 3 4 4 4 5 1 3 2 1 4 6 7 3 4 5 2 3 4 5 5 8 12 6 5 10
10 12 11 12 12 14 16 17 19 20 21 5 6 3 2 3 2 1 3 3 4 3 1 3 4 3 3 2 3 6 7 7 7 4 4 5 5 2 2 4 1 5 3 9 11 5 13
10 11 11 12 10 12 13 15 15 15 17 11 8 4 2 3 3 5 4 3 1 4 2 2 4 1 1 3 3 3 2 2 2 2 3 3 3 2 1 2 6 4 5 6 5 5 8
9 11 11 11 12 10 11 12 12 12 12 15 5 9 2 2 3 2 4 4 2 1 2 1 2 2 4 2 2 4 4 5 4 3 3 4 5 4 3 2 4 2 3 2 3 2 2
10 11 11 11 13 10 9 11 11 11 10 12 4 6 3 2 2 1 4 3 2 1 2 1 2 2 2 2 1 2 3 4 6 7 5 4 2 4 6 3 6 5 4 2 1 3 2
10 11 11 11 12 12 10 9 10 10 10 8 7 2 2 3 5 3 3 3 3 1 2 3 3 2 2 2 3 3 3 4 3 4 6 6 7 4 5 3 6 5 4 3 3 3 3
11 12 12 11 12 13 14 9 10 9 9 7 5 5 5 3 5 10 18 22 16 10 3 3 3 3 4 3 1 2 2 1 3 3 0 4 6 5 7 5 3 3 2 5 4 4 3

GFSGBSN_925_spd_045.txt.gz
Wind_Speed
20 22 22 23 25 27 27 28 26 25 24 24 24 23 20 19 19 19 18 16 15 13 13 13 14 11 9 7 8 4 8 6 33 28 22 13 12 9 12 6 5 3 3 4 2 4 3
20 22 23 25 25 27 28 27 26 25 25 25 27 23 21 20 18 17 16 16 14 13 13 12 12 10 7 10 7 18 11 3 33 28 23 12 11 5 8 6 5 7 5 3 2 2 1
20 22 24 25 26 27 29 27 26 27 26 29 26 25 20 19 18 16 15 14 15 13 11 12 10 7 6 9 3 14 3 1 30 27 15 11 21 7 6 5 4 6 4 3 6 3 3
21 22 23 25 27 27 27 27 27 27 30 27 26 23 20 19 16 14 14 11 12 12 10 7 6 5 5 5 11 9 4 2 25 24 21 18 17 5 3 4 4 5 3 4 2 7 6
21 22 25 26 28 27 28 28 28 29 29 29 28 25 20 16 14 12 12 12 14 15 8 3 1 4 4 1 10 10 6 3 22 19 19 19 9 3 3 6 4 2 3 5 3 7 3
22 24 25 27 29 31 27 27 29 30 31 31 30 27 21 16 13 11 11 16 14 5 4 4 1 2 3 4 6 5 5 10 9 13 11 8 3 3 3 4 8 9 4 3 6 2 2
22 22 24 26 27 28 28 28 29 30 32 33 32 28 24 18 11 9 12 3 3 2 3 3 4 3 5 5 7 2 2 9 13 13 7 10 4 14 11 5 4 7 5 4 3 1 1
20 22 24 26 27 27 27 28 30 32 32 34 32 28 25 18 8 5 7 3 3 1 3 1 3 7 9 9 4 0 4 6 9 13 6 6 11 8 10 7 6 6 5 4 1 3 1
19 21 24 26 27 28 28 28 30 31 31 34 33 29 22 10 6 2 2 2 2 6 4 4 3 3 5 5 4 4 7 6 7 10 8 3 7 16 12 6 8 3 5 3 2 1 2
19 20 23 25 27 28 28 28 30 30 30 31 31 26 20 10 6 3 2 4 6 3 4 5 2 1 2 7 1 3 2 5 3 17 15 3 3 13 13 12 6 4 3 5 4 3 1
18 20 22 24 26 28 28 28 29 30 29 27 28 23 16 18 4 4 4 7 7 3 5 2 2 4 4 2 6 4 6 5 4 7 4 3 9 8 12 6 4 2 3 5 3 4 1
17 20 22 24 26 28 29 29 30 29 27 23 21 25 10 10 13 7 6 4 2 5 6 2 2 1 4 4 3 4 5 4 4 9 14 4 3 4 3 8 6 5 4 6 4 2 0
17 19 21 23 26 28 29 29 30 29 27 22 13 14 12 8 2 5 5 4 4 6 2 3 3 3 6 4 6 4 1 3 4 4 3 5 5 2 4 8 7 2 3 2 2 2 3
16 19 21 23 25 28 29 29 29 29 28 24 11 6 7 7 6 5 5 3 10 3 3 2 2 9 5 4 6 4 2 3 5 5 3 3 4 2 1 3 6 2 1 3 3 3 1
15 17 20 22 25 28 29 29 30 30 30 23 8 3 4 2 6 7 1 6 1 3 2 5 7 6 4 6 5 1 2 1 2 1 4 4 3 2 5 2 2 4 1 2 6 2 1
14 16 19 22 24 27 30 30 30 32 32 18 6 2 3 7 9 2 1 6 2 3 1 4 4 0 3 2 4 1 2 2 3 1 2 2 6 3 2 2 7 2 5 3 2 3 3
13 15 17 20 23 26 28 31 31 32 33 13 4 3 2 13 1 4 3 4 3 3 2 2 4 4 4 5 4 2 1 1 1 2 4 3 4 1 3 0 5 2 1 4 3 1 3
12 14 17 19 22 25 28 30 32 32 31 11 3 3 10 11 4 2 2 4 3 3 2 2 4 4 4 4 3 2 3 3 3 4 4 1 4 3 1 1 1 2 4 4 3 4 1
11 13 16 18 21 23 27 29 31 31 27 9 2 2 5 6 3 3 4 2 2 6 4 3 2 1 1 4 4 3 2 3 3 3 6 5 2 3 1 1 2 3 4 3 4 3 5
10 12 14 16 20 22 24 28 30 30 23 6 2 2 4 4 1 2 3 4 3 3 2 3 2 3 3 3 5 3 2 3 2 2 6 6 3 4 5 3 3 3 4 5 5 3 3
10 12 12 15 17 21 22 25 29 30 18 5 3 2 1 2 3 4 1 1 2 4 4 4 3 2 3 3 2 3 2 3 4 6 3 3 3 2 2 1 3 3 5 9 7 4 6
9 11 12 14 15 18 19 22 26 29 16 6 2 2 2 1 2 2 3 2 1 0 1 2 5 1 3 4 5 7 6 3 4 1 3 2 3 2 2 1 5 4 7 9 11 5 9
9 10 12 13 13 15 18 19 21 25 16 7 6 3 1 2 3 1 2 3 2 2 1 3 3 4 4 2 2 1 1 3 6 7 3 4 5 3 3 2 3 6 9 13 6 5 9
8 9 11 10 12 13 16 15 17 18 21 6 5 4 2 2 2 0 3 2 2 3 0 2 2 3 3 4 4 5 7 7 6 3 3 5 5 2 3 1 1 4 3 6 13 4 12
7 8 10 11 11 11 13 14 13 13 15 9 8 4 2 3 3 4 4 4 4 3 2 1 2 1 2 3 3 4 1 2 3 3 2 2 4 2 2 2 6 1 2 6 6 4 10
7 8 9 12 10 12 10 13 11 11 11 13 6 8 2 3 2 3 3 3 2 1 2 1 2 1 4 2 2 3 4 4 3 2 4 4 4 3 2 3 4 4 2 4 2 1 0
8 8 10 11 11 11 12 10 10 9 9 7 3 7 1 2 2 2 3 3 2 1 2 1 3 1 3 2 2 3 3 3 5 7 4 3 1 5 4 3 6 6 4 1 2 2 3
10 9 11 12 12 11 12 13 8 9 7 6 4 1 1 2 5 2 3 3 3 1 2 1 3 0 2 3 3 3 3 5 3 4 6 7 7 4 3 3 7 5 3 5 2 2 3
12 13 12 11 11 12 11 13 10 9 8 7 4 4 5 3 5 10 22 24 15 13 4 2 2 3 4 3 1 2 2 1 3 3 2 4 6 5 7 5 4 5 4 4 3 4 3

GFSGBSN_925_spd_048.txt.gz
Wind_Speed
20 21 22 23 24 25 25 26 24 24 25 24 25 25 20 20 17 16 17 16 14 12 10 10 10 8 5 8 13 4 11 6 27 25 26 19 21 15 18 15 13 14 6 8 5 6 5
20 21 23 23 24 25 24 25 26 24 25 26 25 23 20 18 17 15 14 14 12 11 10 10 9 7 8 13 11 11 8 5 25 31 28 23 19 14 14 11 13 12 6 11 10 6 4
19 21 21 23 24 26 27 24 26 27 27 27 27 24 21 17 16 14 12 14 12 8 7 8 8 6 10 13 2 6 14 5 23 31 22 22 17 14 9 7 8 5 14 11 8 9 10
19 21 22 24 26 26 26 26 26 28 30 29 27 27 24 15 12 11 11 13 10 8 6 6 5 6 5 9 13 3 7 7 21 25 21 15 19 11 6 5 10 13 6 9 10 15 5
20 21 23 24 26 27 26 27 28 29 30 30 31 27 23 16 11 9 9 11 13 13 7 2 3 5 4 6 8 9 12 8 23 23 18 13 22 12 6 13 9 14 10 18 5 9 12
19 22 23 24 26 27 26 27 28 29 30 30 30 26 23 17 10 7 8 12 3 5 7 6 1 3 6 7 9 11 10 5 20 19 10 12 9 12 13 14 14 18 15 12 13 6 9
20 20 23 25 26 28 27 27 28 29 29 30 30 28 26 14 4 4 5 1 2 3 2 1 2 9 5 7 13 7 7 7 13 14 12 17 6 17 21 17 2 10 15 9 7 4 5
20 21 24 25 27 27 27 27 28 28 29 28 29 27 25 11 13 3 3 2 2 3 3 2 4 5 3 5 5 6 5 8 15 19 14 8 13 15 14 13 8 13 13 10 5 3 4
18 20 23 25 26 27 27 27 28 28 28 26 26 23 21 13 9 7 6 4 2 1 1 5 4 3 3 5 9 9 1 12 17 16 16 11 12 14 16 14 12 9 11 9 3 5 1
18 19 22 23 25 27 27 27 28 28 27 25 23 18 19 2 7 3 5 5 3 1 2 5 7 3 2 2 5 7 1 3 4 9 6 4 2 19 18 16 13 10 3 7 6 4 3
16 18 21 22 24 26 27 26 27 27 26 24 20 18 14 12 3 3 3 4 1 1 3 2 3 6 4 4 9 3 2 4 10 11 3 3 3 17 19 19 13 5 7 7 4 2 3
15 17 20 22 24 26 27 28 27 28 26 23 19 14 4 8 8 4 3 5 3 3 9 4 5 0 5 1 3 5 3 7 12 15 13 4 4 4 2 7 4 13 10 8 4 1 3
15 16 19 22 24 26 27 28 28 29 28 26 18 6 5 5 3 4 5 3 1 7 1 5 3 4 6 5 6 5 4 6 3 6 3 3 4 2 7 9 4 6 8 3 3 4 3
14 16 20 23 24 26 27 29 30 30 30 30 15 2 1 2 3 3 2 2 10 4 4 4 3 12 5 3 6 5 2 4 5 8 5 2 4 2 0 2 5 4 3 2 4 4 3
13 15 19 21 24 26 28 29 31 31 33 28 10 1 2 4 4 2 1 7 2 1 2 5 6 6 4 6 5 3 4 2 3 4 4 4 3 0 2 4 5 6 4 1 4 2 2
12 14 17 19 23 26 28 30 31 33 35 21 5 1 1 3 5 3 2 5 2 3 2 2 2 1 4 3 3 3 1 2 3 3 2 4 5 2 4 3 8 2 8 3 0 4 4
11 13 16 19 21 25 28 31 32 33 35 14 2 1 1 6 3 2 4 3 2 1 2 2 3 3 5 4 2 2 2 2 2 5 3 5 3 2 2 4 7 4 3 2 2 1 2
9 12 15 18 22 24 27 30 32 33 33 12 3 0 2 5 2 2 2 1 2 2 1 2 3 5 7 3 3 2 3 1 3 4 5 2 4 5 1 1 3 1 2 4 3 4 1
9 11 13 17 20 23 26 29 32 32 26 9 4 2 3 1 2 2 1 1 2 3 3 2 2 1 2 4 3 3 2 1 3 2 5 6 3 5 4 4 1 4 5 3 4 2 5
8 11 12 14 18 22 24 27 30 32 25 6 3 1 3 3 2 2 1 1 2 1 1 1 3 2 3 2 2 4 4 2 1 1 6 2 3 2 2 3 4 4 9 10 4 3 4
7 10 13 14 17 19 23 25 29 31 19 3 4 2 1 2 3 2 1 0 1 1 1 1 2 3 3 3 2 3 3 4 2 4 2 1 3 1 2 3 2 2 6 12 9 9 6
6 9 12 12 14 17 20 22 26 31 16 5 3 3 3 2 3 3 1 2 1 1 2 1 3 4 3 3 2 6 6 4 3 3 2 1 3 1 1 1 5 5 10 11 16 17 16
5 7 10 12 13 14 18 20 21 25 18 6 5 2 1 3 3 3 2 2 2 2 1 1 4 4 3 2 0 1 3 3 3 7 4 3 5 2 1 1 3 8 16 18 11 10 15
4 6 9 11 12 12 16 18 16 18 21 6 5 3 2 2 3 1 2 2 2 1 1 1 1 3 3 8 9 8 8 7 5 4 3 6 5 1 0 2 4 3 2 4 19 9 16
4 5 7 10 12 11 12 15 14 13 15 10 7 3 2 3 4 4 4 4 5 2 3 2 1 2 7 2 3 4 3 3 3 3 2 2 4 2 2 3 8 3 4 6 8 7 16
6 6 8 10 11 12 12 11 12 11 10 11 7 7 2 3 0 3 4 4 2 2 2 1 2 2 2 1 2 4 4 4 4 4 4 3 2 3 2 3 4 3 3 6 5 4 5
8 7 8 9 11 11 11 12 12 9 9 7 4 7 2 3 3 3 3 3 2 2 2 1 3 3 1 2 3 3 3 2 6 7 5 4 4 9 7 5 6 7 3 5 4 4 1
10 10 10 11 12 12 12 11 11 11 7 8 6 5 2 2 7 4 2 4 4 3 3 2 4 2 2 6 3 3 4 5 4 5 6 9 7 4 5 5 8 5 5 4 4 2 2
12 11 10 10 11 12 12 14 13 13 8 8 4 5 6 4 5 8 17 18 16 16 4 3 4 2 5 4 3 3 3 4 5 4 4 6 6 4 8 4 1 3 3 4 3 3 2

GFSGBSN_925_spd_051.txt.gz
Wind_Speed
19 22 22 24 25 25 26 28 24 25 25 26 24 25 24 22 20 18 15 14 14 15 13 10 9 8 6 13 14 6 9 21 27 26 26 18 21 19 17 19 15 17 11 13 5 6 8
19 21 22 23 25 26 26 26 27 25 27 28 28 26 22 21 18 16 16 12 11 13 12 10 9 8 9 13 15 18 7 10 23 28 28 24 19 19 12 8 18 11 14 12 11 9 7
19 21 22 23 25 27 26 25 27 28 29 30 29 29 26 20 15 11 12 9 10 10 7 7 7 8 13 14 7 9 13 5 23 29 23 25 21 16 7 8 9 6 17 8 15 13 7
19 21 22 24 26 27 26 27 28 29 30 30 30 28 24 18 13 9 9 8 7 6 7 7 4 8 7 13 20 8 11 11 13 29 24 21 20 16 7 3 9 8 12 14 14 12 7
19 20 21 23 25 27 27 26 27 29 29 31 30 29 26 19 10 9 6 6 10 10 6 4 5 7 6 6 12 16 9 6 17 27 20 15 15 13 8 12 10 13 12 18 12 16 11
18 20 21 23 25 26 27 26 27 28 30 30 30 30 27 15 6 7 3 4 4 4 7 4 3 5 8 8 12 9 9 3 13 22 10 8 9 12 12 13 15 19 20 18 18 10 15
17 19 20 22 24 26 27 27 27 28 30 29 29 27 24 11 10 4 2 2 4 3 5 2 1 3 4 10 7 4 8 4 18 19 11 10 7 16 24 21 10 11 18 13 11 7 9
16 18 20 22 23 26 28 27 26 27 28 28 27 22 15 12 8 6 4 3 5 4 2 1 3 7 4 4 5 10 16 9 22 21 13 6 8 20 18 18 11 9 14 12 4 9 7
15 17 20 23 24 26 27 28 27 26 27 27 25 21 13 4 6 7 8 5 3 3 2 6 5 5 3 6 6 4 2 2 22 20 17 12 5 14 15 17 13 11 12 13 6 9 8
14 17 20 22 24 25 28 27 27 25 26 25 24 21 15 3 5 5 6 6 3 6 1 5 4 3 4 7 5 7 4 1 4 19 16 7 4 13 18 17 15 12 6 5 7 10 7
14 16 20 22 24 25 27 29 28 27 26 25 23 19 10 5 2 3 3 5 5 4 3 9 4 2 8 2 12 5 2 1 5 8 3 1 10 16 16 17 16 6 10 7 4 5 3
14 16 18 22 24 25 27 29 30 28 27 26 23 15 9 4 3 6 1 8 5 3 7 3 3 2 5 4 4 5 2 6 10 9 10 5 4 0 1 9 4 13 13 7 3 1 4
13 15 17 21 23 25 27 29 30 29 28 29 24 11 5 3 2 4 3 3 2 6 2 7 4 8 4 5 6 4 4 6 4 5 3 3 4 3 2 10 4 7 13 5 4 4 3
11 14 16 20 22 24 27 30 32 32 31 33 19 7 7 6 2 2 4 3 9 5 4 4 2 10 6 4 8 7 5 12 11 7 5 2 3 2 1 3 6 8 10 4 6 6 6
10 12 15 18 22 24 27 30 33 36 38 34 9 2 5 4 5 3 3 5 3 1 2 1 3 5 4 7 5 4 4 4 3 2 3 4 3 5 3 3 5 3 4 5 2 3 2
9 11 14 18 21 25 27 30 34 36 41 28 6 3 3 2 3 6 2 4 2 2 3 3 2 3 4 6 4 4 2 3 4 2 4 4 6 5 8 8 4 6 9 2 2 4 5
8 11 13 18 21 25 28 30 33 37 42 19 4 3 3 2 4 2 4 3 3 2 4 3 2 3 5 6 2 3 2 3 0 4 3 5 3 5 3 6 7 4 4 3 3 2 3
8 10 13 16 20 24 27 30 33 35 40 14 5 2 1 4 1 1 3 5 3 1 1 1 1 3 5 6 4 2 5 3 3 4 5 3 4 4 2 3 5 6 6 9 3 4 1
7 9 12 13 17 22 26 29 31 32 31 13 7 3 1 2 0 2 3 4 1 1 2 2 1 2 0 4 2 4 4 1 3 1 2 4 4 5 3 4 3 5 8 6 1 3 4
5 7 11 12 16 19 25 27 30 31 26 8 4 3 2 1 2 1 5 4 4 1 0 1 2 2 4 3 2 4 4 3 2 3 4 1 2 2 1 3 2 4 10 11 7 3 5
5 7 9 11 14 17 22 27 29 33 19 6 3 3 2 3 3 4 3 1 3 3 2 3 3 4 4 3 4 3 3 5 3 4 2 1 2 2 2 3 2 3 6 12 11 11 6
5 7 9 11 13 16 20 25 26 31 16 5 4 4 5 6 5 5 2 2 2 2 2 4 4 5 5 2 2 4 7 6 5 6 4 2 3 2 2 3 5 7 11 11 16 15 16
3 6 8 11 12 14 16 21 23 25 19 7 8 3 3 5 3 4 2 1 1 1 1 2 4 5 5 3 2 3 2 2 1 5 8 4 4 2 1 1 5 10 17 18 13 10 15
4 5 7 9 12 10 13 15 18 18 19 7 6 4 3 4 5 4 7 7 5 3 3 2 2 4 3 5 6 5 4 3 5 4 5 6 6 2 1 3 5 2 3 2 18 11 15
5 2 5 7 10 12 12 13 13 15 15 9 8 5 3 5 6 8 6 6 10 6 3 2 2 3 8 3 3 5 4 4 5 4 8 7 6 3 3 6 10 9 5 5 8 6 18
6 4 3 7 10 12 13 12 12 11 12 8 5 6 2 4 3 5 6 5 4 5 3 2 2 3 1 3 2 3 5 5 5 6 4 6 6 4 1 3 4 5 5 3 4 2 7
7 6 5 8 10 12 12 11 11 10 10 8 4 6 4 3 3 5 3 4 4 5 4 1 4 5 1 3 3 3 3 1 4 6 6 8 7 9 6 4 6 2 4 4 3 4 7
9 7 6 7 11 11 10 11 12 11 9 5 6 5 4 3 10 9 8 8 6 3 3 5 3 3 4 6 4 4 5 6 4 5 6 9 6 5 7 5 7 5 8 3 6 6 6
8 7 7 8 9 10 10 13 12 12 10 3 5 3 4 6 6 15 20 20 19 13 4 4 5 6 4 5 6 4 5 4 8 4 9 5 6 3 7 4 3 4 2 7 5 5 4

GFSGBSN_925_spd_054.txt.gz
Wind_Speed
18 20 21 23 23 25 25 25 23 24 27 27 29 31 29 27 25 19 17 12 12 11 12 11 10 8 5 8 15 18 4 30 30 25 23 14 19 14 14 16 11 17 12 18 4 6 3
18 20 21 22 24 25 26 26 25 27 27 29 30 31 30 27 21 16 9 9 8 9 11 7 8 5 7 11 13 19 9 16 28 30 25 18 16 15 8 11 12 10 15 7 8 6 1
18 20 21 23 25 26 26 25 25 26 28 29 31 31 31 27 20 11 6 5 7 8 6 5 3 6 9 14 7 5 11 7 26 30 18 23 21 14 5 7 11 5 6 8 5 8 3
17 19 20 22 24 26 27 27 26 27 27 30 31 32 33 28 15 6 4 5 6 7 5 5 4 7 5 10 18 8 5 13 10 28 23 25 18 3 2 2 5 7 3 9 6 9 6
17 19 20 22 24 25 27 27 27 27 27 29 30 32 33 20 9 2 2 5 8 10 7 3 3 6 4 5 14 18 13 12 10 28 25 17 7 3 6 6 5 7 7 13 9 9 6
16 18 20 22 23 25 27 27 26 26 26 27 28 28 27 22 11 5 2 4 2 4 4 5 5 4 5 4 9 10 15 12 11 18 9 8 4 5 9 9 11 15 10 17 13 13 14
15 17 19 22 23 26 27 26 26 26 25 27 26 26 20 17 13 8 8 4 2 2 3 1 4 6 4 12 2 3 12 6 17 14 9 10 5 15 17 16 10 10 13 13 14 8 9
15 17 19 21 23 24 26 27 27 27 25 25 24 23 21 12 11 11 8 3 3 2 3 2 5 2 4 3 3 7 10 7 10 18 16 8 9 11 12 14 13 2 6 17 4 9 6
14 16 18 21 23 24 25 26 26 27 26 25 23 23 21 13 7 7 8 6 5 6 4 5 6 4 4 7 6 2 3 6 10 14 12 8 8 12 12 12 13 5 7 8 6 6 2
13 15 16 20 22 24 25 26 26 28 26 25 23 22 17 12 7 2 2 5 5 7 1 7 4 3 4 6 6 3 6 3 3 15 10 5 5 10 11 17 14 8 6 5 11 6 3
12 14 16 19 21 24 26 27 26 27 28 26 25 20 13 8 14 3 0 5 6 2 2 8 5 5 2 8 12 5 9 2 7 8 4 2 6 11 9 14 10 3 8 5 4 5 4
11 14 16 19 21 24 27 28 28 28 29 27 25 17 8 8 6 0 2 6 7 1 5 3 2 3 2 8 6 2 5 4 7 9 12 5 3 1 1 2 6 8 11 8 4 1 2
10 13 15 18 22 25 27 29 29 28 30 31 25 10 3 4 4 2 6 2 0 5 1 7 4 4 4 7 6 5 3 5 4 5 3 3 3 4 2 9 4 8 7 2 1 1 3
10 12 15 18 20 23 27 30 31 31 32 36 17 3 1 3 4 3 5 2 6 2 3 4 1 9 5 3 4 6 4 4 1 7 4 3 1 3 5 1 5 2 4 3 4 4 4
9 12 14 17 21 23 26 30 32 35 38 29 7 3 2 1 4 5 3 3 2 2 4 3 4 3 3 6 4 2 6 4 2 5 3 4 3 1 2 3 4 3 2 3 3 2 3
8 10 13 16 20 24 26 29 33 34 39 20 6 2 3 2 5 1 1 3 3 3 4 5 1 2 4 4 3 2 2 1 6 5 7 4 5 3 0 2 5 2 2 1 1 2 3
7 10 12 14 19 23 26 29 32 35 39 16 6 2 4 3 6 2 2 2 3 2 3 4 6 2 5 4 2 3 4 2 2 3 4 6 3 3 6 5 6 1 1 3 2 1 2
7 9 12 14 18 22 25 28 31 34 38 15 5 2 5 8 1 1 2 3 1 2 3 1 2 5 3 4 3 3 6 6 4 4 4 3 4 3 2 3 2 5 5 5 2 3 1
6 8 12 14 17 21 26 29 31 32 29 11 5 2 3 4 2 1 1 2 3 2 1 1 2 4 3 1 2 4 6 1 2 4 2 4 3 4 2 1 1 3 4 2 5 3 4
5 7 10 13 16 19 24 29 32 33 21 9 3 3 4 3 2 5 1 4 2 1 1 2 3 2 3 2 2 4 4 2 2 4 4 4 2 2 3 2 3 3 6 6 5 3 3
4 5 8 12 14 18 21 26 31 32 15 7 3 3 2 3 3 7 4 5 4 2 2 2 3 5 4 3 4 4 6 4 4 4 1 3 3 2 3 5 4 3 5 7 6 5 4
3 4 6 10 14 16 18 22 28 32 17 7 4 3 4 4 7 5 2 2 5 2 2 3 3 2 2 2 2 4 5 5 4 5 4 2 3 2 2 6 4 3 7 7 8 10 10
2 3 6 10 13 13 16 17 22 26 19 8 8 8 3 6 4 4 4 8 7 4 3 4 6 2 4 7 7 6 5 5 3 6 5 5 4 2 1 3 4 6 14 15 10 9 12
3 2 4 6 10 13 14 16 16 21 18 11 8 4 3 4 5 4 8 8 9 10 6 3 5 5 1 3 2 0 3 2 1 1 3 5 4 2 2 1 2 5 3 1 17 10 9
5 2 1 5 9 12 13 14 15 14 16 10 9 5 3 4 8 5 9 7 9 9 6 4 6 5 2 2 1 3 1 2 4 3 4 5 4 2 2 4 7 5 4 3 5 9 14
4 2 2 5 9 12 13 13 13 12 14 8 5 7 2 3 3 9 6 4 4 6 3 4 2 5 5 2 2 3 3 5 4 5 4 3 4 3 2 3 3 3 4 1 3 2 0
5 4 4 4 7 10 10 10 12 12 11 6 2 7 4 2 1 6 3 3 2 4 4 4 1 2 2 1 2 2 3 1 4 5 5 3 3 4 6 3 6 1 6 4 3 2 6
5 6 6 6 6 8 11 10 12 12 12 6 5 4 5 3 7 7 7 6 5 1 2 6 3 2 2 2 2 3 2 5 2 4 6 7 5 3 4 3 7 5 4 2 5 6 6
6 7 6 9 7 7 10 10 12 11 9 6 5 5 4 5 5 17 18 19 15 8 2 1 4 5 3 3 3 2 3 1 3 3 6 4 6 4 6 4 3 4 1 5 7 6 4

GFSGBSN_925_spd_057.txt.gz
Wind_Speed
16 18 19 21 23 24 24 24 24 24 24 24 27 28 29 29 26 21 15 6 6 6 5 7 7 7 3 4 10 12 14 20 29 28 27 14 13 8 8 6 11 9 8 10 11 8 11
16 18 20 21 23 24 24 25 25 25 26 25 28 30 31 31 25 15 5 4 4 4 5 5 3 4 4 9 8 15 16 7 26 29 26 18 11 9 5 11 8 9 12 4 6 6 3
16 17 19 21 22 23 25 26 25 25 24 25 26 29 31 29 18 7 4 4 4 4 3 3 1 4 4 12 5 5 2 8 27 35 16 18 14 11 6 5 8 4 10 3 6 5 2
15 17 18 21 22 23 23 25 26 24 24 24 25 27 28 26 14 7 4 5 6 5 4 5 3 4 5 13 11 11 2 3 6 15 19 20 17 7 4 3 5 5 7 5 8 7 3
14 16 17 20 22 23 24 25 25 25 24 24 24 24 22 23 17 9 7 6 6 8 5 2 2 4 5 10 3 9 11 3 5 12 27 17 7 3 3 5 4 4 5 8 6 9 7
14 15 17 19 21 22 23 24 25 24 24 23 23 21 20 16 14 11 11 7 4 5 5 1 6 2 4 6 10 8 8 9 10 13 13 9 4 4 4 5 13 13 9 14 9 6 7
13 15 16 19 21 22 23 24 25 24 23 23 21 21 18 16 14 13 16 7 4 2 0 5 6 4 7 12 1 3 2 8 8 14 8 10 6 16 15 4 4 8 4 11 8 6 7
12 14 15 18 20 21 23 24 25 25 24 22 21 20 17 13 11 10 7 3 4 2 5 1 6 2 3 4 2 5 6 4 7 13 12 6 7 5 11 10 6 6 9 7 1 9 10
11 13 15 17 19 22 23 25 25 26 24 23 21 20 17 12 9 6 9 5 5 6 3 2 1 3 3 4 2 3 7 0 16 8 11 9 8 9 11 11 11 5 7 5 5 3 4
10 13 14 16 19 21 23 24 25 26 25 24 22 19 14 12 2 4 2 2 4 6 1 4 3 3 1 3 6 3 3 2 3 16 11 6 3 10 5 8 5 5 4 2 15 6 4
10 12 13 16 18 22 24 25 25 26 26 26 24 19 8 4 4 2 1 4 9 3 4 10 4 3 4 3 3 3 3 3 8 6 4 2 4 6 4 4 2 5 7 6 4 5 4
8 11 12 16 18 21 24 26 27 28 29 28 28 17 3 3 2 1 4 7 2 3 4 4 3 2 3 4 1 4 5 5 4 10 11 5 3 3 2 4 3 1 8 8 5 3 1
8 10 12 15 18 21 25 27 28 29 30 31 24 9 3 3 1 2 4 2 4 5 3 5 3 5 8 4 3 1 4 4 4 5 4 3 4 4 4 2 4 3 6 2 3 1 5
7 10 12 14 18 21 24 28 31 32 35 34 10 1 3 4 3 2 2 2 9 3 3 4 2 6 3 5 4 3 4 4 2 5 3 3 2 2 3 3 5 4 5 5 6 4 4
7 9 12 15 18 22 25 29 32 34 38 25 3 5 3 2 5 2 1 6 5 4 3 4 3 1 2 4 7 2 2 3 3 3 5 5 2 1 3 2 3 4 2 4 3 2 3
6 8 11 14 18 22 26 28 31 35 40 18 6 3 4 4 6 2 3 4 3 4 3 3 2 1 2 3 3 5 4 6 4 4 5 5 5 1 2 1 1 2 0 3 2 2 4
5 7 10 14 17 21 25 29 32 34 37 17 2 2 5 4 3 2 3 3 3 5 2 2 4 4 2 2 4 2 3 3 4 6 4 7 4 3 3 4 5 3 1 1 2 4 4
4 6 10 14 16 21 24 29 32 33 34 15 5 2 9 12 1 1 3 4 4 3 3 3 2 4 2 2 5 4 4 2 2 4 6 2 5 3 2 6 7 1 5 4 4 3 1
4 6 9 13 15 19 22 28 31 32 26 10 3 2 4 4 2 3 2 2 0 3 1 2 1 2 2 2 3 4 4 3 6 3 5 5 2 3 3 2 4 3 5 4 2 2 3
3 5 8 12 15 18 22 27 32 33 22 7 2 3 4 2 0 1 3 4 3 2 1 2 1 3 2 2 1 3 2 1 3 2 1 2 3 4 5 3 4 5 7 6 6 3 3
2 3 7 11 15 17 21 25 31 32 19 5 4 3 3 4 3 4 2 4 1 4 2 3 2 4 5 3 3 3 2 1 1 1 2 3 4 3 2 4 3 3 5 8 8 5 5
4 2 7 10 14 15 18 22 27 31 18 9 3 3 4 3 7 5 3 4 3 3 2 2 2 6 4 3 2 4 6 5 4 3 3 1 2 2 2 5 5 3 7 8 7 6 7
4 2 5 7 10 14 17 19 22 27 19 8 7 5 1 4 5 3 3 4 6 7 1 2 2 3 4 3 2 3 4 2 7 7 4 3 5 3 3 2 3 7 13 14 6 6 11
4 3 2 5 9 12 15 16 17 20 17 8 6 3 3 3 4 5 9 6 8 7 3 5 4 2 2 4 2 4 4 4 4 4 5 5 4 2 3 2 1 6 3 7 16 7 9
6 5 3 3 8 11 13 15 15 16 15 10 11 4 2 3 3 4 11 4 7 8 3 3 2 1 4 2 2 2 2 0 3 3 1 4 4 2 3 3 6 2 3 5 7 7 12
7 7 5 3 6 10 12 11 13 13 14 8 10 11 2 0 2 4 4 4 3 4 5 2 3 4 4 2 2 3 4 5 3 3 2 2 2 3 2 1 4 3 2 3 2 4 2
8 7 7 3 2 7 11 10 12 12 12 7 2 8 2 2 3 5 2 2 3 4 4 3 5 4 3 2 1 2 3 4 4 5 4 2 1 4 4 2 6 6 3 2 3 3 2
9 8 7 3 3 6 10 9 11 12 8 8 4 1 3 1 5 3 3 2 3 1 2 5 3 1 1 1 3 3 3 4 1 4 6 6 5 3 4 3 7 4 3 4 3 1 4
11 9 8 3 1 3 6 9 10 11 10 6 2 2 2 5 6 18 25 25 18 5 1 3 4 3 4 2 1 2 2 0 4 2 2 3 6 4 7 5 5 5 2 3 4 4 3

GFSGBSN_925_spd_060.txt.gz
Wind_Speed
14 16 18 19 20 21 22 23 22 22 22 22 23 24 27 29 24 14 8 7 5 3 2 2 4 4 4 3 7 10 14 14 17 29 26 8 9 6 6 6 9 2 12 15 9 7 11
14 15 17 19 21 21 22 23 22 21 21 22 22 23 25 26 17 10 8 7 6 5 2 2 1 4 2 7 9 13 16 17 22 29 23 13 8 7 5 6 11 7 2 7 8 8 15
13 14 16 18 20 21 21 22 22 21 21 21 21 21 21 23 16 10 7 6 5 4 2 2 1 4 3 10 6 4 12 7 21 26 12 18 10 6 7 6 4 4 9 4 12 7 7
12 13 15 17 19 20 21 22 21 21 21 20 21 19 18 17 15 11 9 6 5 4 3 3 1 3 5 5 10 10 4 9 12 20 15 22 16 6 3 2 5 5 6 5 5 8 6
10 12 14 16 18 19 20 21 22 21 21 20 19 18 17 13 13 12 10 9 4 4 3 3 3 3 6 10 1 1 6 2 3 12 14 11 5 4 1 6 5 3 6 7 7 11 6
10 11 13 15 17 19 21 21 22 22 21 21 19 17 16 14 10 10 13 9 5 4 4 1 1 2 3 4 6 7 6 4 3 7 8 8 5 5 3 6 14 12 12 11 12 9 6
8 10 13 15 17 19 20 22 23 22 22 21 20 18 17 13 8 9 11 2 4 4 2 2 2 4 4 8 1 10 4 3 3 13 7 13 6 13 11 4 4 9 7 10 4 5 5
7 9 12 14 16 18 20 22 23 24 23 23 21 18 17 12 7 7 3 4 2 2 4 4 5 2 4 7 3 5 1 2 3 9 12 7 10 5 8 4 3 10 5 6 1 5 5
7 8 11 14 16 18 20 22 24 24 23 22 22 19 18 11 5 3 5 3 2 1 0 4 1 3 3 7 5 3 3 1 5 8 13 8 8 9 9 4 4 1 6 4 4 1 1
7 8 10 12 16 19 21 22 24 25 25 24 24 21 16 11 2 2 1 2 3 2 3 6 7 3 0 1 4 4 10 2 1 16 11 7 4 9 6 4 4 1 6 7 6 6 6
7 8 10 12 16 18 21 23 25 26 26 26 24 21 12 3 1 3 4 2 6 3 5 7 4 9 1 3 2 5 5 5 9 7 5 2 4 9 5 5 5 5 5 7 4 6 5
7 9 10 12 15 19 22 24 26 27 27 28 24 16 4 2 4 3 1 3 2 4 5 5 5 7 2 2 3 3 2 3 2 11 10 5 2 4 2 3 3 1 6 8 5 3 1
7 8 10 12 15 19 22 25 27 29 30 30 19 6 4 3 3 3 1 3 4 5 3 5 4 2 7 8 4 2 2 3 4 6 4 5 4 1 2 5 3 4 6 2 1 1 5
6 8 10 12 14 18 22 25 28 29 32 28 9 2 3 2 2 4 2 3 9 2 2 2 3 5 3 2 6 5 3 4 5 7 4 4 3 1 4 3 4 3 2 5 6 4 4
5 7 9 12 14 18 22 25 28 29 33 20 2 3 0 2 4 2 3 5 6 5 4 2 2 2 3 2 2 3 3 2 3 3 5 5 0 1 1 2 0 4 4 3 5 1 3
4 6 9 12 15 18 22 25 27 30 32 16 0 0 1 2 3 1 3 2 2 4 3 3 1 2 3 4 3 2 1 2 3 4 4 6 5 2 4 1 4 3 2 2 2 3 4
3 5 8 12 15 19 22 24 27 29 29 15 2 2 2 2 2 3 3 3 3 4 4 1 2 1 3 5 7 5 6 4 4 5 4 6 4 4 4 5 8 3 3 2 3 4 3
3 4 7 11 14 18 21 25 27 29 27 12 3 2 1 1 1 0 2 4 2 2 0 3 2 2 1 3 3 3 5 2 1 6 6 5 5 4 4 4 4 1 5 4 3 4 1
3 3 6 10 14 17 20 24 26 25 18 5 2 1 1 2 2 2 4 1 0 1 1 2 2 2 1 2 4 3 3 2 2 3 6 5 1 3 2 3 1 4 4 3 4 2 5
3 1 5 9 13 16 20 22 26 25 15 1 2 2 4 2 0 3 4 3 1 1 2 2 2 3 2 2 4 3 2 2 2 3 4 4 2 4 6 4 5 5 9 7 5 3 4
4 1 4 7 11 14 18 21 25 25 12 1 4 2 2 3 2 3 3 5 1 1 2 1 3 2 2 2 2 3 2 2 3 2 3 3 4 2 3 3 3 3 6 12 9 11 8
6 3 2 5 10 14 17 19 22 25 7 9 3 3 4 2 4 4 4 4 2 5 3 3 0 7 4 3 4 5 5 3 4 1 2 2 1 2 2 1 0 2 6 8 14 9 9
8 5 2 3 8 11 14 17 19 22 11 7 4 3 3 5 6 2 3 4 6 7 1 3 3 2 1 1 1 2 3 4 5 7 4 3 4 3 4 3 3 7 12 13 7 8 11
10 7 4 2 7 11 13 14 16 17 17 10 3 3 3 1 3 4 6 6 8 6 3 5 3 1 1 6 2 2 4 4 6 3 5 5 5 2 2 2 1 6 2 6 15 8 10
11 8 5 2 6 10 12 12 13 14 11 16 10 3 2 2 0 4 10 4 6 6 2 4 1 1 3 3 3 3 4 4 2 4 4 4 4 2 3 3 7 3 3 5 6 7 15
12 10 7 3 4 8 10 10 13 12 9 8 12 7 4 3 2 4 4 3 4 4 4 2 3 5 4 2 2 3 4 4 3 1 3 4 3 4 2 1 4 3 3 2 3 5 2
13 11 8 5 1 5 7 8 12 10 10 6 4 9 4 2 2 2 1 2 3 2 4 5 6 5 2 2 2 2 4 4 4 5 4 4 2 4 5 2 6 7 5 1 2 4 4
14 11 10 7 2 1 5 8 9 11 9 8 3 3 3 1 4 4 3 3 2 1 2 4 3 1 2 2 3 3 3 4 2 4 5 6 5 4 4 2 7 4 2 4 4 2 1
15 11 11 8 4 2 4 7 6 8 9 5 1 2 2 4 4 14 19 21 18 15 0 2 1 2 3 2 1 1 2 0 3 3 1 2 6 4 7 5 5 5 4 4 4 3 3

GFSGBSN_925_spd_063.txt.gz
Wind_Speed
12 12 14 15 17 18 18 20 20 20 20 20 20 19 21 21 17 11 11 9 8 5 4 2 1 3 4 1 6 6 9 6 12 14 21 12 7 6 7 6 6 5 12 13 12 9 4
11 12 13 15 17 18 18 19 19 20 20 19 20 18 18 19 14 11 10 10 10 8 4 3 2 6 3 3 6 7 11 11 10 16 21 14 9 7 6 7 7 6 5 11 12 7 6
11 12 13 15 17 18 19 19 19 20 20 20 18 16 16 14 13 11 10 8 7 6 4 3 1 4 1 8 2 8 9 13 17 26 19 20 7 8 4 5 6 3 7 9 9 9 4
11 11 12 14 16 18 19 20 20 20 20 19 18 16 15 14 11 11 10 9 8 7 6 4 2 3 4 5 8 1 7 18 9 19 19 20 12 2 2 2 4 5 4 5 7 13 5
10 10 12 13 15 17 19 20 20 20 19 20 18 17 15 13 12 10 9 9 5 6 1 1 2 3 5 9 3 4 6 7 3 15 17 18 7 4 1 8 5 2 5 5 8 13 10
10 10 11 13 15 17 19 21 21 21 20 19 18 17 14 14 12 11 12 7 2 1 3 1 3 1 4 5 5 7 7 4 4 9 10 8 5 4 2 6 17 14 9 9 9 16 12
11 9 10 12 14 16 18 20 22 21 20 20 19 18 16 14 11 10 10 2 4 3 2 1 2 2 10 9 4 5 3 4 4 2 7 11 9 14 8 3 1 6 5 10 3 8 15
10 9 10 11 14 16 18 20 21 22 22 20 19 19 17 13 8 7 3 3 3 2 1 4 4 3 1 4 2 4 4 3 3 3 5 7 11 6 7 5 4 6 6 6 2 6 11
10 9 9 10 13 16 18 20 22 23 23 21 21 18 15 12 7 1 5 6 3 0 0 4 1 2 2 5 4 2 1 6 2 6 10 6 9 8 8 4 6 2 6 5 5 4 3
8 8 9 10 12 15 18 21 23 24 24 24 23 18 12 9 2 2 3 7 1 1 3 5 5 2 1 1 4 3 1 2 2 14 14 4 7 9 8 4 5 3 3 5 6 6 4
8 7 9 10 12 15 18 21 24 25 25 24 23 18 8 3 2 2 1 6 1 3 5 7 4 5 3 1 4 2 2 5 2 8 4 1 7 9 6 5 5 2 3 5 1 3 2
7 7 8 9 12 15 18 21 23 26 26 27 23 12 2 4 4 2 2 2 3 5 3 4 3 4 3 3 4 0 3 6 3 7 11 5 3 4 2 3 4 5 6 7 5 3 2
6 7 8 9 11 15 19 21 24 26 28 29 18 5 5 3 1 2 3 2 4 6 3 1 3 2 4 3 2 1 2 4 4 5 9 6 3 2 3 5 3 3 5 2 1 1 4
6 6 7 9 12 14 18 22 25 26 29 27 9 2 3 2 1 2 1 4 8 2 3 3 3 5 3 6 3 4 2 3 2 9 5 3 7 1 4 3 4 3 4 5 6 4 3
6 6 6 9 12 16 18 21 25 27 31 23 2 2 1 2 2 1 3 4 6 5 4 4 4 2 2 2 1 2 3 1 3 1 5 5 2 2 2 2 2 3 2 3 5 3 3
7 4 4 8 12 17 19 21 24 27 30 19 0 2 3 2 1 2 3 3 1 3 2 1 0 4 4 4 3 2 1 2 2 1 1 3 6 1 2 3 1 3 2 2 3 3 4
7 3 4 7 11 16 20 22 24 27 27 12 1 2 2 2 2 3 2 4 2 4 3 1 3 1 5 7 6 5 7 3 3 3 6 4 3 2 5 6 8 3 2 3 3 4 4
7 3 3 7 11 15 19 23 24 25 24 7 2 2 4 4 2 2 1 3 3 1 2 2 2 2 2 4 2 2 5 2 4 7 6 3 4 4 3 1 4 7 5 7 4 4 1
8 4 2 6 10 14 18 22 24 27 20 6 2 1 2 1 3 3 4 3 1 2 0 2 2 2 2 2 3 2 2 2 3 5 7 6 1 3 2 2 2 5 5 3 3 3 6
9 4 0 5 9 13 18 20 24 27 16 1 2 1 3 3 1 0 3 3 3 1 1 1 2 2 1 2 4 4 2 1 2 2 4 5 3 5 7 5 4 6 12 10 6 4 6
10 6 2 4 9 13 17 20 24 27 14 3 3 1 3 1 1 2 2 2 3 1 1 2 2 3 2 1 2 3 2 2 3 2 4 4 5 3 5 2 4 5 6 14 10 15 10
12 8 4 4 8 13 16 20 23 27 13 5 2 2 2 2 2 2 2 1 3 5 3 2 1 4 2 3 4 5 5 4 4 1 3 1 2 2 2 1 1 3 6 10 19 17 12
14 10 6 5 8 11 15 18 20 23 16 6 4 3 1 3 3 2 1 3 4 6 2 5 2 2 2 1 1 4 3 3 5 7 4 3 4 3 4 4 4 6 8 12 7 7 10
16 12 8 6 7 10 13 16 17 17 19 7 4 2 3 2 2 2 3 3 3 3 4 4 3 1 1 5 3 2 5 5 6 3 4 5 4 2 2 3 2 6 3 6 12 11 10
18 14 10 7 6 8 11 14 15 13 10 15 9 2 2 1 3 4 7 4 6 5 0 3 2 2 5 3 3 4 4 3 2 4 4 4 4 2 3 3 6 4 1 3 5 6 9
19 16 12 8 6 7 9 11 12 10 9 8 14 9 4 3 2 3 3 3 2 4 5 2 5 7 2 2 3 3 3 3 2 0 4 3 4 3 2 1 4 4 1 3 3 5 3
21 17 14 10 6 7 8 7 7 10 8 6 6 13 4 2 2 2 1 2 2 3 3 3 6 6 3 1 2 2 3 3 3 4 4 3 1 4 3 2 6 7 5 4 2 5 4
21 18 17 12 8 7 6 5 5 7 8 5 4 7 3 0 4 2 2 2 4 1 2 3 4 1 1 2 2 3 3 4 1 3 5 6 5 3 4 3 7 2 1 4 5 3 3
22 20 17 12 9 6 5 4 5 5 6 6 3 5 3 1 3 11 14 12 11 5 2 3 1 3 3 2 1 2 2 0 3 3 1 3 6 4 7 5 4 4 5 4 3 3 2

GFSGBSN_925_spd_066.txt.gz
Wind_Speed
11 12 13 13 15 17 18 18 18 19 19 19 20 18 16 16 13 13 12 11 11 9 6 6 3 2 4 2 6 5 8 5 13 13 9 6 7 5 6 5 6 3 7 12 6 5 5
10 11 13 13 14 16 17 18 18 18 18 19 19 18 15 14 13 13 11 11 9 8 5 4 2 4 3 1 2 3 7 3 5 4 11 12 6 5 4 6 7 7 5 13 11 10 6
9 10 12 13 14 15 17 18 19 18 17 18 18 17 16 14 13 12 12 12 10 8 5 4 2 3 2 7 1 10 10 6 2 11 7 20 9 7 5 3 4 2 7 6 8 5 4
10 9 11 12 13 15 16 18 19 19 18 18 18 17 16 14 13 12 12 12 11 7 4 6 2 1 3 3 7 5 8 6 11 9 17 23 10 3 2 2 5 5 6 4 5 11 4
10 10 10 12 12 15 16 17 19 19 19 18 17 17 15 13 13 11 12 13 10 6 3 1 1 1 5 7 1 1 2 3 15 9 12 16 3 3 1 7 4 5 6 6 5 15 10
11 11 10 12 12 14 15 17 18 19 19 19 19 17 16 13 12 11 11 11 4 2 1 1 4 2 1 3 4 3 2 4 4 13 8 4 4 4 2 7 18 10 6 3 6 14 9
11 11 11 11 12 14 15 17 18 19 19 19 19 18 17 14 11 9 9 2 4 3 3 2 5 3 4 6 3 3 3 4 2 7 6 6 6 14 7 4 1 8 6 6 2 6 5
12 11 10 11 12 13 15 17 19 20 20 19 19 19 17 13 9 7 3 3 2 2 2 2 3 2 1 2 4 1 1 3 4 11 12 3 9 6 6 5 6 8 7 5 2 4 9
13 11 10 10 12 13 15 17 19 21 21 21 20 20 16 10 6 2 2 5 3 2 2 4 1 2 3 4 3 2 0 3 7 7 6 5 9 8 6 5 6 3 8 6 6 5 2
13 12 10 10 11 13 15 17 19 22 22 22 22 19 13 6 1 2 1 5 1 2 3 4 1 1 1 3 3 1 1 2 4 6 7 3 9 8 6 5 5 3 5 6 8 5 4
13 12 10 10 11 13 16 18 19 22 23 24 23 17 7 2 3 3 3 5 1 3 5 5 2 1 3 1 4 3 4 4 6 6 3 3 10 8 5 6 3 2 5 6 3 4 3
13 11 9 9 11 13 15 18 20 21 23 24 21 10 2 4 2 2 4 2 2 4 1 2 1 2 2 1 2 1 3 1 1 5 4 4 2 4 2 3 3 6 6 7 5 3 2
13 11 8 9 11 14 15 17 19 21 23 24 14 4 5 6 3 6 2 3 4 5 2 3 2 2 1 4 4 2 1 5 2 5 3 6 3 2 2 7 4 4 5 3 2 2 4
13 10 8 8 10 13 15 17 20 21 23 23 6 4 5 3 6 4 3 4 6 2 2 1 1 2 4 3 5 2 5 3 4 3 5 3 5 2 5 3 5 2 4 5 5 3 3
12 10 8 9 10 12 15 17 19 21 22 19 2 4 3 1 3 3 3 4 5 5 4 2 2 3 2 1 2 2 3 1 3 0 5 5 2 1 3 2 2 4 2 3 6 2 3
12 9 8 7 9 12 15 17 19 21 21 12 2 2 2 3 2 2 3 2 1 3 2 0 2 4 3 2 2 2 2 3 3 3 2 4 6 1 1 1 5 4 4 3 3 1 3
13 9 6 6 9 12 15 17 19 21 19 8 0 2 3 1 1 3 3 5 3 4 3 3 1 2 4 4 2 2 4 3 3 3 4 4 4 2 3 3 5 2 2 2 2 4 4
13 9 4 5 8 11 14 16 18 21 15 4 2 1 2 2 1 1 1 4 3 3 2 1 2 2 3 5 2 1 4 1 4 6 4 2 5 4 2 1 1 2 4 5 3 4 1
14 9 5 3 7 10 13 15 18 19 11 2 2 1 2 2 1 2 4 2 1 2 2 2 1 2 2 2 3 1 1 4 5 5 7 6 1 4 1 2 1 4 6 4 4 3 6
15 11 6 1 4 9 12 15 18 19 8 3 3 2 3 3 1 1 3 3 2 1 2 2 1 1 2 3 4 3 2 3 1 1 3 5 3 5 6 4 4 5 14 11 10 8 7
17 13 7 3 2 8 11 15 17 17 6 3 3 1 2 3 3 3 2 4 3 2 2 4 3 4 1 2 1 2 2 1 4 3 4 2 3 2 3 2 4 3 5 17 16 15 13
19 14 10 4 2 6 10 14 16 16 6 8 3 2 3 1 2 3 6 4 6 6 4 3 3 3 1 2 2 4 4 3 4 1 2 2 3 3 1 1 2 2 7 10 17 20 16
21 16 12 7 4 6 10 13 15 18 5 6 2 2 3 3 2 1 2 3 4 5 4 5 3 1 2 2 2 3 3 1 2 7 3 3 5 3 3 2 3 5 11 12 5 6 15
23 19 14 10 6 6 10 12 14 17 19 9 3 3 2 1 1 2 2 2 3 5 2 5 4 2 2 6 2 2 5 5 4 3 3 5 4 2 3 2 1 5 2 5 10 9 10
25 21 16 11 8 7 10 11 12 13 15 19 6 3 2 2 0 2 4 3 5 5 2 2 3 2 5 3 3 3 4 3 0 1 2 2 4 2 2 2 6 2 1 4 5 5 4
27 23 18 13 9 9 9 9 10 11 9 13 15 6 3 4 1 0 2 3 3 4 6 3 4 9 3 1 2 3 3 3 2 0 4 3 2 3 2 1 4 5 2 3 4 3 3
29 25 20 15 11 10 8 7 10 9 8 9 8 10 4 3 1 3 4 2 1 3 2 3 7 7 3 1 2 2 2 3 3 5 4 3 1 4 3 2 6 7 5 3 2 4 3
30 26 22 17 13 10 8 8 7 8 8 5 6 8 4 2 3 2 3 2 2 1 1 4 2 2 2 1 3 3 3 4 1 3 5 6 5 4 3 3 6 5 1 4 5 3 3
32 28 23 19 15 11 9 9 6 7 6 4 4 5 4 3 3 2 3 3 4 8 2 3 1 1 2 2 2 1 0 1 2 2 2 3 6 4 7 5 4 4 6 4 3 4 3

GFSGBSN_925_spd_069.txt.gz
Wind_Speed
12 12 11 11 12 15 15 17 18 18 17 17 17 16 15 12 12 13 12 12 12 12 10 9 6 3 3 1 4 4 8 8 13 15 17 9 10 5 11 5 6 6 9 14 11 6 5
12 12 11 11 11 14 15 16 18 17 18 16 16 17 15 13 12 12 12 12 12 10 8 8 6 2 2 2 3 3 10 4 8 11 10 6 7 4 5 6 5 9 4 11 9 10 4
13 11 11 11 10 13 15 15 17 18 18 17 17 16 16 14 15 12 12 11 12 11 7 5 4 3 1 6 3 7 6 2 7 7 3 13 6 2 6 5 3 5 10 4 8 8 4
14 12 11 11 10 12 15 15 16 18 18 18 17 15 16 14 13 12 12 11 11 9 7 3 1 2 4 4 9 5 5 4 2 12 11 11 12 1 2 2 5 5 5 8 6 13 2
15 13 11 11 11 11 13 16 16 17 18 18 17 16 15 14 12 12 12 11 9 4 2 1 2 3 5 6 3 4 2 1 1 4 11 12 6 5 3 7 4 5 6 6 7 13 7
16 14 13 11 11 11 12 15 16 17 18 19 18 16 15 14 11 10 12 9 1 2 1 1 1 1 2 3 3 2 1 5 3 9 9 6 3 3 3 6 17 10 6 5 9 12 8
16 14 14 11 12 11 12 15 16 17 18 18 18 16 15 12 10 8 10 1 4 2 1 1 5 3 5 7 1 2 3 3 4 6 5 5 2 11 7 3 5 7 7 8 4 10 8
16 14 15 11 12 12 12 15 16 17 19 19 17 16 14 9 7 5 3 4 3 2 2 1 3 4 1 3 2 1 3 2 4 7 10 5 1 6 8 2 8 8 7 4 3 12 6
17 14 15 12 13 12 12 15 17 18 19 19 18 16 12 6 3 1 2 7 3 2 1 3 3 2 2 2 2 2 2 5 4 10 7 8 2 9 5 5 9 2 7 4 6 4 2
17 14 15 13 13 12 13 15 17 18 20 20 19 16 7 3 3 4 2 6 2 1 3 1 1 3 1 3 2 3 2 3 4 9 10 3 1 8 7 5 6 4 5 6 10 5 4
18 14 14 13 13 12 13 14 17 19 20 21 20 12 3 5 6 4 3 6 1 2 4 5 1 2 1 1 5 1 1 1 4 8 5 6 18 9 6 7 4 3 6 6 4 4 4
18 13 14 12 11 11 12 14 16 19 21 21 19 8 6 6 4 5 6 3 1 5 0 1 1 2 2 3 1 3 3 3 1 5 4 5 2 3 3 3 4 7 7 7 4 2 2
19 14 13 10 9 11 11 14 16 17 20 20 15 1 5 6 3 9 6 3 4 5 2 1 2 3 2 3 4 2 4 3 3 4 2 6 3 1 1 7 2 4 5 2 2 1 4
18 15 12 9 7 10 10 13 15 17 18 19 5 6 6 3 7 7 3 3 5 2 3 2 3 5 3 1 3 1 5 2 2 1 4 3 6 2 5 3 5 3 4 4 6 5 3
19 16 11 7 7 7 10 12 14 16 17 15 5 6 4 4 5 5 3 3 5 5 4 3 2 4 2 2 3 1 1 4 3 2 4 4 3 2 4 0 2 3 2 3 5 2 1
21 16 11 7 6 6 9 12 13 16 16 7 6 5 2 4 4 2 3 3 2 2 2 1 2 2 3 3 2 2 2 2 4 2 1 3 5 4 2 1 5 2 6 2 2 1 3
22 16 11 8 6 5 8 11 13 15 13 1 4 2 3 3 3 3 2 4 2 4 2 3 2 2 2 3 2 3 1 1 3 3 4 4 3 2 3 2 5 2 2 4 3 2 2
23 17 13 9 5 5 7 10 13 14 8 2 4 1 3 4 1 2 2 3 3 2 2 2 1 1 3 4 3 1 3 3 3 5 4 2 5 3 1 2 1 2 4 4 3 4 1
23 18 14 9 4 3 6 9 11 12 3 4 3 2 1 3 1 2 3 1 2 0 0 1 0 1 2 3 3 1 3 1 4 4 6 5 2 4 2 1 3 4 4 3 4 3 5
24 19 15 10 4 1 5 8 10 10 1 3 3 1 3 2 0 2 2 2 1 2 1 2 2 3 2 3 4 3 2 2 4 1 4 5 3 5 6 3 4 5 6 8 7 5 8
25 21 17 11 6 0 3 6 9 6 5 4 3 2 2 2 1 3 1 0 1 2 4 5 3 3 0 3 1 2 2 1 3 3 3 2 3 3 1 2 3 3 5 11 14 17 9
27 23 18 13 7 2 2 6 9 3 6 6 4 4 2 0 1 2 3 2 2 3 3 3 4 3 1 2 1 5 3 3 3 2 3 2 2 3 2 2 4 3 7 8 14 15 18
29 24 20 15 9 5 4 7 9 7 6 4 3 3 3 2 1 2 1 1 3 2 0 4 1 1 4 3 4 4 2 1 2 6 3 3 4 2 3 2 2 5 6 11 5 5 15
31 27 22 16 11 8 7 8 9 12 8 7 4 5 3 2 2 2 1 2 2 3 2 4 3 2 2 6 3 2 5 5 5 4 3 5 5 1 1 2 1 4 1 3 10 6 9
34 29 24 19 14 11 10 10 9 13 14 16 8 3 3 3 2 2 3 2 3 4 2 2 3 1 4 3 2 2 4 2 3 4 2 2 4 2 3 2 5 2 1 3 4 4 5
37 31 26 21 17 14 12 11 10 10 10 18 13 6 4 5 1 1 2 3 1 3 5 2 3 6 3 2 1 3 4 3 1 1 4 3 4 3 2 2 4 4 2 2 2 3 3
38 32 28 23 20 15 14 13 11 10 10 11 10 7 4 4 1 2 3 2 1 2 1 3 6 5 3 2 2 3 2 3 3 4 3 3 2 3 3 3 6 6 4 5 3 4 2
39 35 30 25 22 18 16 14 11 9 7 7 9 10 4 3 0 2 2 2 1 2 1 3 1 2 2 2 2 3 3 4 2 3 5 5 5 3 3 3 6 5 3 4 5 2 3
41 36 31 27 23 20 18 14 12 9 7 6 5 6 7 6 4 2 5 3 1 3 3 3 1 2 2 2 2 1 0 1 3 2 1 2 5 4 7 5 3 4 5 4 3 4 3

GFSGBSN_925_spd_072.txt.gz
Wind_Speed
12 12 12 11 11 11 13 15 16 17 18 17 14 14 14 14 11 10 10 10 10 10 9 8 6 2 2 4 4 5 11 10 9 16 15 13 17 14 14 15 14 16 15 15 12 12 13
13 12 11 10 12 10 12 14 15 17 17 17 15 15 14 14 11 11 10 10 10 9 6 5 4 2 2 1 1 5 10 5 5 15 15 14 14 10 14 13 14 14 9 19 14 14 10
15 12 11 9 11 11 11 13 15 16 17 17 16 16 13 14 12 12 10 10 9 9 6 4 3 1 2 2 3 8 6 3 4 8 12 6 7 10 10 10 9 8 14 13 18 15 7
17 14 12 10 10 11 11 13 14 16 18 17 16 16 15 14 12 11 10 10 9 8 5 2 2 2 2 3 6 3 3 3 2 8 3 2 4 5 9 3 12 9 16 10 18 20 6
18 16 13 12 10 11 11 12 14 16 17 18 17 16 16 14 12 11 9 9 9 4 2 2 2 4 2 4 3 4 3 3 4 6 4 5 2 3 6 13 12 12 11 20 8 14 8
21 18 14 13 10 11 10 12 14 15 17 18 18 17 16 14 10 10 9 7 1 3 1 2 2 3 1 5 5 3 2 1 6 10 1 7 3 2 13 15 16 18 15 18 14 13 12
23 18 15 13 11 11 10 11 13 15 16 19 18 18 16 13 10 7 6 1 3 3 2 2 5 3 3 11 3 1 1 1 5 7 8 3 4 5 22 17 6 15 12 14 11 10 14
24 19 16 13 12 11 10 10 13 15 16 18 19 18 15 11 8 5 3 2 2 2 1 1 3 2 5 2 2 3 2 5 4 2 9 4 2 7 15 10 10 16 16 13 8 14 13
24 23 16 14 12 12 10 10 12 14 15 17 18 18 14 7 5 3 2 5 1 1 1 2 3 3 1 4 1 0 3 2 6 7 9 9 7 11 17 11 10 15 17 15 11 11 8
23 21 18 15 11 12 10 11 12 13 14 16 17 17 7 3 1 3 2 5 1 1 2 2 2 1 0 5 2 6 4 2 2 5 10 3 5 8 16 13 12 13 10 13 15 13 6
24 22 19 15 11 11 10 11 11 13 14 15 16 13 3 5 4 2 2 6 0 1 0 3 3 1 1 3 5 2 4 4 5 9 5 5 8 12 16 14 8 5 11 10 10 9 4
24 25 19 14 11 11 11 12 11 12 13 14 15 8 5 5 4 5 6 3 1 1 3 0 2 3 1 2 1 2 2 4 5 4 5 9 9 3 6 3 2 14 12 9 4 4 6
24 25 20 14 11 11 11 11 11 10 12 13 11 4 6 6 3 8 5 2 1 2 1 2 1 2 2 3 3 5 4 4 3 5 6 13 11 2 1 12 9 9 17 4 4 5 5
26 28 20 14 12 11 10 10 10 9 11 11 1 9 7 4 9 7 3 2 2 1 4 1 3 6 2 1 1 1 6 3 3 4 10 3 7 5 1 6 7 14 10 4 6 5 4
29 27 22 15 13 11 9 9 9 8 9 7 8 7 4 6 7 5 1 1 2 4 3 5 5 3 3 2 1 3 1 4 5 10 2 5 2 1 2 2 2 6 4 3 4 1 2
32 28 22 16 14 11 8 8 8 7 7 0 7 6 3 8 6 3 1 1 1 2 1 2 1 1 3 4 3 2 2 3 5 1 2 4 5 1 2 2 6 3 10 3 1 4 4
36 28 23 17 14 11 8 7 6 5 5 6 5 3 4 6 6 1 2 2 1 3 3 2 2 2 3 5 2 2 1 1 1 3 1 5 4 3 4 2 8 4 4 1 0 2 1
37 29 24 19 15 12 7 6 4 3 1 10 3 2 6 8 2 1 2 3 2 3 3 3 2 1 3 4 2 1 2 1 2 4 5 1 5 4 5 3 2 2 6 12 5 5 1
37 30 25 20 16 12 7 5 4 4 6 6 3 3 2 4 2 2 2 2 2 2 2 2 3 2 2 5 3 1 2 2 2 0 2 5 4 5 2 2 1 5 9 5 3 2 6
39 32 27 22 18 12 8 5 5 5 9 8 3 3 2 2 1 2 2 2 3 1 2 1 1 1 3 3 2 4 3 2 2 1 4 2 3 3 5 2 5 7 13 13 8 5 12
41 34 29 24 18 12 8 6 4 4 12 7 1 2 1 3 3 3 1 0 3 2 2 2 2 3 1 3 3 3 2 4 3 3 2 0 3 2 1 3 3 3 8 15 13 18 13
41 36 29 25 19 13 9 7 4 9 14 4 3 3 1 3 2 4 0 2 2 3 2 1 3 2 1 2 3 3 4 4 3 3 2 1 3 2 1 1 2 3 8 9 14 16 15
42 35 32 26 20 15 11 8 4 14 14 4 3 2 2 2 3 4 3 2 3 1 3 5 2 1 5 3 3 5 3 3 1 6 4 3 4 2 1 1 2 6 13 12 8 9 13
43 37 33 27 22 17 13 10 7 11 14 7 5 5 3 3 2 2 3 1 2 2 2 3 4 0 2 6 4 2 3 5 4 4 2 7 7 2 3 3 4 2 2 1 11 11 14
41 38 34 29 24 19 15 13 11 11 9 10 10 3 3 4 4 4 4 2 2 2 2 2 4 4 7 3 2 3 2 2 2 3 2 2 5 3 3 5 4 3 3 4 4 2 3
45 38 34 30 25 22 18 15 15 16 14 17 13 8 3 6 3 3 3 2 2 2 2 1 4 8 4 1 1 4 4 2 4 3 2 3 2 4 3 3 4 3 4 3 3 3 1
44 39 36 31 27 24 20 17 15 14 11 9 8 9 6 5 2 0 2 3 2 2 2 1 4 3 2 2 2 3 3 2 4 4 4 4 3 7 6 5 4 3 5 4 4 3 1
46 40 37 33 29 25 22 19 17 16 12 6 12 8 5 4 3 1 1 3 3 1 2 2 2 1 1 2 3 3 3 3 2 0 3 7 6 4 5 5 7 7 6 4 2 0 3
50 44 38 34 30 27 23 20 18 16 13 10 8 13 15 7 5 3 5 4 2 2 2 2 2 1 1 1 0 2 2 2 2 3 2 4 3 2 5 3 2 6 3 1 2 7 9

GFSGBSN_925_spd_075.txt.gz
Wind_Speed
15 14 13 14 13 12 12 12 14 14 16 17 17 15 15 16 16 13 11 11 11 11 10 9 8 5 7 4 2 3 8 12 9 15 17 14 15 17 17 20 17 24 17 18 21 7 12
19 16 15 14 13 13 12 12 13 14 14 16 17 16 15 15 16 15 12 11 11 11 9 7 8 7 7 5 4 5 10 8 4 17 17 14 12 16 11 16 19 16 14 17 13 8 14
26 19 17 15 15 14 11 12 12 13 14 16 17 16 16 16 15 16 12 12 10 10 9 7 8 5 7 5 6 8 6 6 2 11 11 8 10 13 8 15 12 4 20 9 13 10 11
31 25 20 16 16 14 12 12 12 13 13 15 16 17 16 16 16 15 13 12 10 10 7 5 6 5 3 4 6 6 4 1 3 5 6 1 6 6 14 4 14 10 17 13 17 19 8
31 30 24 18 16 13 13 12 11 12 14 15 16 17 17 16 15 13 12 11 11 7 5 4 5 5 3 1 6 6 4 2 3 4 6 5 4 1 5 14 13 11 13 18 17 16 10
27 34 23 20 18 13 13 12 11 11 14 14 16 18 16 17 13 11 11 10 6 3 3 5 7 5 3 5 7 5 2 3 4 6 5 2 2 3 6 11 17 14 15 19 13 16 18
29 23 25 20 18 13 14 12 11 11 13 13 16 18 16 15 11 9 7 3 4 5 4 3 5 4 2 8 2 1 0 5 2 5 4 2 3 11 19 18 16 16 17 19 20 10 14
29 24 25 23 19 14 13 13 11 10 12 12 16 16 15 12 7 5 5 4 3 3 3 2 1 1 3 4 2 2 2 6 4 5 5 4 6 9 8 18 8 17 19 11 3 10 13
32 28 25 26 19 15 13 13 11 10 11 12 15 14 13 7 4 4 5 2 1 2 4 4 2 2 1 2 4 1 3 2 5 5 7 5 7 9 7 14 14 17 18 14 13 9 13
32 30 27 28 20 17 14 13 11 9 10 12 13 13 8 3 1 3 3 4 1 1 2 3 1 1 4 5 1 3 3 2 2 5 10 9 7 7 12 17 12 11 12 14 11 13 7
34 30 34 27 22 17 14 13 11 9 9 11 13 11 4 8 1 3 2 4 1 3 1 2 3 1 1 1 10 5 5 3 9 8 6 6 13 11 14 16 9 10 8 9 9 12 5
34 30 35 29 23 18 14 13 10 8 8 9 12 7 5 4 3 2 4 2 2 2 1 0 2 1 2 2 6 8 2 2 4 4 8 9 11 3 7 8 1 9 11 8 4 7 8
33 33 38 32 24 18 14 13 10 7 6 8 8 4 7 3 1 6 4 4 2 2 1 4 2 2 4 1 1 2 4 3 3 5 4 7 8 4 5 9 9 16 16 5 5 4 6
36 35 41 32 24 18 15 13 10 6 5 5 3 8 5 2 8 7 2 3 3 1 4 3 4 5 3 5 2 2 2 3 2 5 10 4 3 4 7 10 7 14 17 4 5 7 10
38 35 42 33 25 19 16 13 9 6 3 1 11 5 4 5 7 5 2 3 1 3 5 6 7 3 4 2 2 3 3 2 2 10 1 5 2 2 1 3 5 9 4 4 3 5 0
40 36 44 34 25 21 17 13 9 7 3 8 8 6 4 6 6 3 1 3 0 1 2 3 3 2 3 5 6 4 2 2 5 4 4 4 5 3 4 3 1 4 9 4 1 4 5
43 38 45 34 27 23 18 14 10 8 5 14 8 3 5 7 5 3 1 2 1 3 3 3 0 3 4 6 6 5 4 3 4 5 4 6 6 3 8 7 10 4 4 4 3 2 3
44 39 45 36 29 24 20 15 12 10 9 17 6 3 6 9 3 1 2 3 1 4 4 2 2 2 4 6 5 3 4 2 4 5 6 2 4 4 6 3 4 5 12 12 5 5 2
44 41 46 35 31 26 21 17 15 13 17 10 3 3 3 3 3 4 4 3 2 5 4 3 2 1 1 5 2 2 4 2 5 3 5 5 5 4 1 4 5 6 11 8 10 3 4
47 44 45 35 32 27 22 19 16 15 16 6 4 4 3 3 6 6 6 5 5 2 2 2 1 3 5 4 0 5 5 3 3 2 0 1 4 4 3 4 3 8 15 14 9 5 10
43 41 45 39 33 28 24 20 17 15 18 9 3 2 3 4 6 7 3 4 7 5 2 2 4 3 3 4 4 4 4 6 4 4 2 2 3 2 1 3 3 3 12 17 14 17 10
41 49 44 37 34 28 24 20 18 15 23 5 3 3 3 3 4 8 5 6 9 4 2 4 3 2 2 1 4 3 3 3 3 6 5 2 2 2 3 1 3 6 9 11 18 19 18
46 51 45 39 33 29 24 21 18 22 24 5 3 0 3 4 6 7 5 6 7 5 3 3 1 2 6 4 5 4 4 2 3 3 8 4 4 3 2 1 3 8 14 15 11 10 12
53 53 44 39 34 29 25 21 19 25 22 4 5 5 3 4 6 4 5 5 7 4 4 3 3 2 4 5 3 3 1 1 3 2 3 4 3 1 0 3 4 2 3 2 7 11 8
52 52 45 39 35 29 24 21 18 23 28 5 7 3 2 5 6 7 7 6 5 4 4 3 4 4 5 2 3 4 3 2 4 2 4 3 5 2 3 6 9 8 4 2 3 5 5
51 50 43 38 34 29 25 21 19 20 23 11 8 6 1 7 3 7 8 4 4 6 5 4 3 4 4 1 3 6 5 4 5 4 2 4 5 4 2 4 4 6 6 2 1 5 4
53 48 42 37 33 29 27 22 20 19 20 15 8 10 3 4 3 2 3 4 1 1 2 3 2 2 4 2 2 4 4 1 4 4 4 5 5 9 7 4 7 5 6 3 4 4 3
54 50 45 39 34 30 28 26 22 20 18 12 9 8 2 4 5 4 2 3 3 2 3 4 4 3 2 4 3 3 3 4 2 2 2 6 5 4 5 4 7 9 7 5 7 4 5
55 53 48 42 35 31 29 25 24 22 15 19 7 9 11 5 6 7 9 7 5 6 1 1 3 2 2 2 2 3 3 1 3 2 2 4 3 2 4 1 4 5 3 4 6 8 8

GFSGBSN_925_spd_078.txt.gz
Wind_Speed
25 22 21 20 16 15 14 15 12 14 13 15 15 16 15 15 14 15 14 11 12 12 11 11 11 10 10 7 5 3 2 8 16 19 17 12 13 10 14 15 17 14 10 15 10 3 7
27 27 24 24 18 16 14 14 15 13 14 15 15 16 16 15 15 14 14 11 12 11 12 12 10 10 9 5 5 8 8 14 14 16 15 11 6 12 11 14 19 17 16 11 12 9 2
27 26 30 27 22 18 15 15 15 14 14 14 16 16 16 17 16 15 13 11 12 10 11 11 9 9 10 4 7 8 8 11 9 12 9 9 10 3 5 9 15 9 15 3 9 9 4
29 29 28 33 27 18 17 15 14 14 15 14 15 15 16 16 16 14 12 13 11 10 9 8 8 8 3 4 2 7 9 3 7 11 6 2 5 2 3 11 8 8 3 8 9 6 2
32 30 31 32 25 20 17 16 15 14 14 14 15 15 17 15 15 13 10 12 11 9 7 6 6 5 3 2 9 7 7 10 9 5 8 3 4 1 1 5 5 11 8 16 16 16 4
34 32 29 29 27 23 18 15 15 14 14 13 14 15 17 15 13 11 11 8 7 4 6 7 8 3 6 6 7 6 2 4 4 4 5 4 4 3 2 4 10 10 8 9 11 12 9
33 32 29 27 29 25 20 15 14 14 13 13 14 15 15 13 10 9 6 5 4 4 7 1 5 6 6 10 4 2 1 3 3 3 3 4 2 7 10 8 7 10 11 13 10 10 14
36 33 32 28 31 26 22 15 14 14 13 12 13 14 13 11 7 6 3 4 5 2 2 2 2 2 5 2 2 1 1 2 3 4 4 4 3 5 7 15 6 2 11 4 3 8 2
35 34 34 32 29 30 23 16 15 14 12 12 13 12 11 6 5 4 7 3 2 3 4 4 1 1 2 1 3 2 4 2 2 2 4 2 5 8 4 2 2 8 11 13 6 6 10
43 35 34 31 28 31 23 18 15 14 12 12 12 11 8 3 2 2 4 4 2 2 1 4 3 3 4 2 0 1 3 1 2 5 2 4 4 7 5 7 8 8 17 13 16 7 4
42 39 36 32 31 35 26 18 16 13 12 11 11 11 5 8 3 3 2 3 0 2 1 2 4 4 3 2 5 4 2 3 5 5 5 3 10 6 5 8 13 4 13 4 7 8 1
44 45 34 34 29 34 27 19 16 13 11 10 10 8 4 4 4 0 3 2 2 1 2 1 3 3 4 6 4 3 1 4 2 2 2 3 9 4 2 10 5 5 7 9 2 3 2
45 44 37 37 31 36 31 21 17 13 10 8 8 5 9 3 1 5 4 4 1 2 4 3 3 4 4 4 5 6 6 4 3 5 6 12 5 1 3 1 6 7 7 3 2 1 3
46 45 40 38 32 39 31 22 18 14 9 6 4 10 6 1 6 6 3 2 2 1 4 1 5 6 3 4 2 9 6 4 8 4 4 4 1 3 6 4 2 6 5 4 4 3 4
50 45 40 37 32 39 30 23 19 15 9 6 13 8 5 5 5 3 3 2 1 4 5 6 6 4 3 4 0 3 3 3 1 1 1 4 3 3 4 3 4 2 3 1 4 4 4
46 39 36 35 35 40 30 25 21 16 11 15 9 8 6 7 6 2 2 4 2 3 3 5 3 5 3 4 4 4 1 2 4 4 6 4 5 3 2 3 2 4 2 2 3 1 1
48 43 36 33 37 40 31 26 24 18 14 20 6 3 7 9 5 2 2 4 1 5 2 1 5 3 3 4 5 4 5 1 1 3 4 1 4 2 2 4 5 2 2 2 1 3 0
35 35 34 32 40 42 32 29 25 20 20 21 6 3 7 10 3 1 3 5 1 7 4 2 3 1 3 6 4 2 3 1 2 3 1 6 1 3 3 5 3 6 2 7 3 3 1
32 41 33 29 44 42 34 31 27 24 32 11 3 3 3 3 4 4 5 4 3 5 5 4 3 1 4 3 2 5 6 2 3 4 3 3 2 3 2 3 4 4 5 6 1 3 3
30 34 29 31 46 40 35 33 28 26 28 12 3 4 2 2 6 5 6 7 6 0 1 1 2 2 3 4 1 4 5 2 1 2 3 4 4 0 3 1 2 4 8 8 5 2 3
34 37 38 47 46 41 36 34 29 27 29 9 2 3 7 5 6 10 2 7 7 5 2 4 4 5 3 2 4 4 8 5 4 2 1 2 3 3 2 2 2 0 4 8 7 11 5
36 35 35 49 43 40 37 33 30 28 28 5 3 3 2 0 2 10 5 5 9 4 1 6 3 3 4 5 7 2 5 6 5 5 5 1 2 3 2 3 2 3 7 8 12 11 10
40 40 27 50 46 42 38 35 31 31 32 6 3 1 0 2 5 6 7 6 6 9 1 5 4 2 4 5 5 4 5 3 3 5 6 6 4 2 1 2 2 5 12 13 7 7 10
40 35 45 49 49 42 38 34 31 32 29 4 6 4 2 3 4 4 3 4 7 3 3 4 5 3 3 3 4 5 4 1 0 3 3 1 3 2 1 1 1 4 5 5 8 6 7
38 19 50 50 43 38 36 32 31 28 24 8 7 2 2 3 5 6 7 7 7 3 4 5 4 3 5 3 1 3 2 3 5 2 3 4 4 2 2 2 6 2 3 1 2 3 6
29 29 45 48 40 37 33 31 28 28 31 12 10 3 2 5 1 5 7 7 4 4 4 3 2 2 3 1 1 3 4 5 5 4 1 2 3 2 1 1 3 3 4 3 1 1 6
34 25 41 46 42 37 31 28 25 28 32 16 7 5 3 4 4 4 3 2 2 3 3 4 2 2 3 2 2 1 1 5 3 4 4 3 3 4 4 1 6 7 6 2 2 2 5
27 41 43 40 41 35 31 27 24 28 27 16 8 5 4 3 4 6 4 3 1 2 3 2 3 1 1 2 2 3 1 1 1 2 5 5 3 3 3 3 6 5 3 1 1 4 6
34 45 45 38 34 36 30 27 26 27 25 16 7 14 17 6 5 15 16 12 10 8 1 2 2 4 1 2 1 2 2 1 1 1 3 2 1 2 3 2 2 4 5 5 4 3 5

GFSGBSN_925_spd_081.txt.gz
Wind_Speed
27 27 27 28 24 24 18 15 14 13 12 14 14 14 15 15 14 14 14 15 11 12 11 13 13 12 11 2 5 6 4 15 7 3 7 5 6 6 9 8 7 11 7 7 4 5 10
29 28 27 26 28 30 21 16 15 14 12 13 15 15 16 14 15 15 14 14 11 12 11 12 11 10 3 6 6 8 8 7 18 14 8 11 8 7 8 4 12 8 7 7 8 4 4
33 32 29 29 26 29 24 17 15 15 13 11 15 14 16 15 15 14 14 13 12 12 11 11 9 6 5 8 11 9 12 12 14 17 9 18 8 3 2 4 2 9 9 5 7 9 4
29 34 32 30 29 26 29 19 16 15 14 12 14 14 15 15 15 14 13 12 13 11 11 9 7 5 4 4 10 12 15 9 11 11 9 6 8 2 1 7 4 8 3 6 9 7 3
34 30 33 31 30 28 29 21 16 15 15 12 12 13 15 16 14 13 12 13 11 12 9 6 4 4 4 4 8 12 11 9 9 11 11 12 4 3 1 1 4 8 5 9 6 7 5
36 36 33 32 31 27 26 23 17 15 15 12 12 12 15 15 14 10 12 10 8 9 5 7 9 4 3 3 8 10 9 7 3 4 5 5 5 2 2 1 7 8 6 10 9 10 8
36 37 39 36 32 27 27 26 21 15 15 12 11 12 13 14 12 8 9 4 3 1 5 1 4 6 4 9 4 4 5 8 0 3 3 4 2 6 5 3 4 5 5 7 9 14 8
37 38 39 38 38 29 25 31 22 16 15 12 10 10 11 13 8 6 4 2 1 1 1 3 3 3 3 2 3 3 5 1 3 3 4 3 2 3 5 6 6 4 3 2 5 17 7
39 38 41 39 39 32 26 30 25 16 15 12 9 9 8 9 4 4 5 5 0 3 2 2 1 2 1 1 3 4 6 2 4 3 4 3 3 3 4 4 1 3 3 4 8 9 2
39 41 41 41 41 37 28 30 28 18 15 13 9 7 6 3 2 2 3 5 1 2 3 2 2 2 3 2 1 3 5 3 5 2 4 1 4 5 10 5 4 3 7 4 8 4 4
41 42 43 41 42 42 34 29 32 18 15 14 9 7 4 9 2 1 3 2 1 1 1 5 4 5 2 2 4 1 5 3 3 1 2 3 2 4 5 6 8 5 9 8 9 6 5
43 41 42 42 43 42 43 28 31 20 16 14 9 6 5 8 5 2 2 2 1 3 4 2 3 3 3 4 3 3 1 3 3 2 4 1 3 1 1 5 8 8 2 9 6 2 1
42 46 42 47 45 41 44 31 31 20 18 14 9 6 14 6 2 6 5 2 2 2 3 3 4 4 6 4 4 1 3 3 3 5 2 7 3 3 2 3 2 1 6 3 2 2 4
42 42 43 49 45 45 43 39 31 22 19 14 9 13 12 2 7 7 4 2 2 2 5 3 3 4 3 4 3 3 0 0 2 1 3 2 2 3 1 2 5 7 4 4 4 3 3
42 42 49 43 44 41 47 41 33 24 20 15 18 15 7 8 8 8 2 2 3 5 5 5 4 4 3 3 2 6 6 4 4 11 2 4 2 3 4 3 2 5 3 2 4 2 4
41 43 45 44 46 48 42 43 35 27 23 23 18 11 7 9 8 5 1 5 2 5 3 6 3 4 5 6 3 5 4 3 2 2 2 2 4 3 2 3 2 3 3 3 3 1 3
40 47 49 58 46 44 35 45 37 31 27 27 14 4 10 11 7 2 3 5 2 3 0 1 6 4 3 5 3 4 6 2 2 2 2 3 4 1 3 0 2 3 2 2 3 4 3
38 49 52 35 29 45 42 47 40 34 32 23 8 3 12 13 2 2 4 5 3 5 1 1 0 2 2 5 5 2 4 4 5 4 2 2 5 3 3 3 3 2 2 1 4 3 1
39 46 51 28 28 31 44 46 42 39 43 16 5 3 6 4 4 4 5 3 3 5 4 4 3 0 2 2 3 5 4 4 3 2 2 2 2 3 2 3 3 2 3 3 2 3 2
38 40 42 33 28 43 51 48 44 44 43 14 4 4 2 3 2 1 4 5 4 2 3 1 2 2 0 3 4 4 2 1 3 4 3 4 3 5 5 4 4 4 6 5 4 3 2
39 39 38 35 27 29 50 47 45 45 39 10 3 4 6 6 7 11 3 7 6 4 1 4 1 2 2 3 3 4 3 2 3 3 3 3 3 3 2 3 2 2 4 7 7 6 6
38 39 40 37 17 47 47 45 43 44 32 3 4 4 2 4 3 13 6 5 7 4 4 4 2 4 3 4 1 3 4 3 4 1 2 2 1 2 2 2 2 3 5 6 6 4 7
35 37 41 36 25 46 47 43 42 44 30 5 4 3 4 2 5 6 5 5 6 9 3 4 2 5 5 3 2 1 1 2 3 6 5 4 4 2 3 2 2 5 8 10 5 4 7
34 40 44 44 19 49 47 45 43 47 30 6 5 5 3 2 3 5 5 3 8 3 6 3 6 5 2 3 1 2 2 2 5 4 3 5 3 2 2 3 1 6 1 2 11 3 6
34 36 41 16 35 50 48 44 44 44 25 8 7 4 3 3 4 4 8 7 6 7 4 4 3 2 2 0 3 3 3 2 1 4 4 4 4 2 3 3 4 2 3 2 4 0 4
31 34 35 19 44 49 45 43 40 38 24 11 9 3 3 6 0 4 6 6 5 4 3 3 0 0 2 2 1 4 4 4 3 1 3 4 4 3 2 2 3 3 2 1 3 2 4
28 28 30 27 40 41 41 36 35 32 28 16 6 4 6 4 3 4 4 4 3 4 4 4 3 3 2 2 2 2 2 3 4 7 4 1 1 5 3 2 5 4 1 2 2 3 4
28 27 24 32 35 34 33 33 33 35 31 15 6 3 5 3 4 6 5 4 3 3 4 3 4 3 2 2 1 3 2 3 2 6 6 5 5 3 4 2 5 2 3 1 3 3 5
26 32 25 38 33 32 29 30 28 32 27 16 7 14 17 6 3 18 20 15 8 2 4 3 3 2 2 3 1 1 0 2 3 3 1 1 5 4 5 4 3 3 5 3 4 4 3

GFSGBSN_925_spd_084.txt.gz
Wind_Speed
24 25 28 29 26 26 27 31 21 16 15 13 13 12 11 12 13 14 14 13 13 11 11 10 12 12 9 2 6 11 9 6 16 8 7 7 11 7 7 9 3 10 8 14 5 4 5
29 27 28 28 29 28 27 28 27 21 16 13 12 12 12 11 12 12 15 13 12 11 11 10 11 10 2 3 4 13 10 11 23 10 7 7 5 4 4 5 11 13 8 13 14 4 6
30 31 31 29 30 28 28 26 31 22 18 15 11 11 11 11 12 12 14 12 11 10 10 10 9 7 3 9 10 12 14 9 20 15 9 11 4 2 3 3 3 6 9 6 11 12 3
32 31 31 32 32 28 27 28 29 26 19 16 12 9 10 11 11 12 12 12 10 10 9 10 7 6 5 8 9 14 16 9 7 12 15 9 10 9 3 4 2 9 6 7 6 14 4
31 33 32 32 33 34 30 27 27 29 22 15 14 9 9 10 10 12 9 11 9 8 8 7 6 3 6 8 8 14 9 8 7 10 5 1 1 2 0 2 4 3 3 9 4 5 5
32 33 33 35 35 35 35 34 27 30 23 16 14 9 9 11 9 9 8 11 4 5 2 3 9 3 4 4 9 11 10 9 3 4 3 5 5 3 3 1 8 6 6 3 6 4 5
33 35 37 36 35 38 34 34 28 26 26 16 15 11 7 8 7 5 6 1 3 1 1 4 3 2 3 11 8 6 7 11 2 5 2 5 2 3 3 2 4 3 10 8 6 10 5
35 34 35 39 37 36 39 36 38 28 27 17 14 14 5 5 3 2 3 2 2 1 3 6 2 2 1 2 3 6 12 3 4 3 3 4 1 2 10 2 6 3 10 7 5 12 9
41 39 36 35 38 39 37 40 39 33 28 17 13 15 4 2 2 2 4 3 2 1 1 3 1 1 1 2 2 4 7 4 4 4 4 5 2 6 6 4 8 5 9 6 7 12 10
44 44 48 45 39 40 39 40 39 40 29 18 15 14 6 4 3 4 3 5 3 2 3 3 2 2 2 1 2 2 5 2 5 2 3 4 4 3 7 2 0 5 6 2 13 12 3
45 46 44 46 46 40 44 39 39 39 31 20 16 13 8 10 4 5 4 4 3 3 3 4 3 5 3 2 2 3 4 3 3 2 1 3 9 6 3 3 5 3 4 5 6 3 3
39 40 41 41 46 46 40 40 37 36 30 23 17 14 11 10 6 6 6 5 3 3 4 2 4 3 4 6 0 1 1 4 1 2 1 2 2 1 1 3 4 3 3 8 7 3 0
38 39 39 41 42 47 40 45 34 39 30 23 18 15 16 13 4 11 9 3 2 2 1 4 4 4 4 3 3 2 3 1 2 4 2 3 2 3 1 5 5 2 4 2 2 1 3
39 40 38 38 40 40 40 41 40 38 29 26 20 16 19 5 11 13 7 4 4 5 5 3 4 3 4 6 4 2 4 3 2 2 2 2 2 3 2 3 6 3 4 4 4 4 3
39 40 39 39 38 35 41 38 37 34 30 28 22 19 15 15 12 13 3 2 6 6 6 7 3 3 3 2 4 4 2 5 5 6 2 2 3 2 3 2 2 3 1 2 5 2 3
40 39 38 39 35 40 45 43 42 40 39 34 22 10 8 16 14 7 1 5 4 4 5 4 5 5 6 5 4 4 2 3 4 6 7 0 4 3 3 0 2 4 3 1 3 3 3
37 39 38 33 35 45 48 55 40 32 43 37 17 5 11 17 12 2 4 6 4 4 4 7 6 4 4 6 4 3 7 2 3 3 2 4 3 3 2 5 1 3 1 3 3 3 3
37 37 35 34 42 49 53 23 36 47 47 28 7 5 19 19 3 3 5 4 6 5 2 2 4 4 4 6 5 4 6 3 4 3 3 1 4 3 1 2 1 1 2 2 4 2 1
36 35 36 37 46 38 27 25 29 58 55 17 3 4 9 7 4 5 4 5 5 4 5 5 4 1 2 4 2 4 3 2 5 3 2 2 2 3 2 4 3 1 3 3 4 3 2
37 34 35 39 38 46 41 8 57 61 38 10 5 5 4 2 1 4 4 5 4 3 4 3 3 3 2 2 3 3 2 3 3 3 3 3 3 5 5 5 3 3 4 3 4 3 2
34 33 34 37 38 43 47 21 52 54 36 10 3 4 5 7 9 7 2 6 5 5 2 4 1 3 3 3 2 3 3 2 3 2 2 3 4 3 0 3 2 2 3 6 7 5 5
32 31 30 35 38 40 42 34 56 55 25 7 5 5 3 3 7 15 6 4 8 4 5 4 4 4 6 4 3 4 5 3 3 1 2 2 2 2 2 1 2 1 3 3 4 4 6
29 30 30 34 36 40 26 47 51 55 24 5 3 3 5 8 5 10 5 6 8 9 4 3 5 6 6 5 3 2 1 2 5 6 2 3 4 2 2 4 5 5 6 6 4 4 5
26 29 31 34 37 41 20 45 49 50 20 5 4 4 4 3 4 7 8 4 11 4 7 3 4 5 4 2 2 2 4 6 6 4 3 4 3 2 1 2 1 4 1 2 7 3 5
24 27 30 33 37 29 39 47 48 42 19 4 4 3 3 3 2 3 8 7 7 6 5 4 3 2 3 4 4 4 4 3 3 5 4 4 4 3 3 3 4 1 1 1 1 2 3
24 26 31 36 34 21 30 48 43 46 15 8 8 7 4 5 2 3 5 5 5 4 4 3 3 1 2 3 3 4 4 4 3 1 5 5 5 3 2 2 4 4 1 2 3 2 5
21 24 29 32 35 27 41 48 42 41 19 7 7 7 8 4 4 4 3 4 4 4 4 3 2 2 2 2 3 2 3 4 4 7 5 3 1 4 3 2 5 4 3 1 3 5 2
23 24 30 29 10 27 37 41 38 34 25 7 9 9 6 3 4 6 5 4 3 3 4 4 4 2 2 3 3 3 2 4 3 4 6 5 5 3 2 2 7 6 1 3 2 3 3
23 28 33 9 27 31 35 35 30 30 25 12 8 21 20 6 3 11 18 16 6 1 4 3 2 2 3 4 0 3 2 1 3 3 1 2 5 4 6 5 3 3 3 3 3 5 2

GFSGBSN_925_spd_087.txt.gz
Wind_Speed
25 27 28 27 26 28 29 26 28 28 29 18 15 15 14 14 14 13 11 13 12 12 11 10 9 9 5 2 7 9 10 12 8 15 8 6 5 6 7 5 6 12 12 9 9 5 5
25 27 28 28 28 29 29 29 27 26 29 22 15 14 15 14 14 13 11 12 12 11 10 9 8 7 1 5 5 11 12 10 11 17 13 6 5 5 5 5 13 4 11 19 8 11 6
24 25 26 28 29 29 31 30 32 27 27 25 19 13 15 15 15 12 12 10 8 10 10 8 7 5 4 11 8 13 14 5 27 12 7 11 9 6 2 3 4 8 14 7 8 6 3
27 26 27 27 29 30 31 34 31 32 26 25 20 13 15 15 15 15 13 9 7 9 8 7 4 3 5 9 11 14 14 6 15 12 11 8 11 5 5 3 3 7 3 9 3 7 2
25 25 27 28 29 30 30 32 34 32 35 25 21 14 14 14 16 16 11 8 5 7 7 6 3 2 7 10 5 10 10 7 10 8 4 2 6 4 4 4 4 3 3 3 3 10 3
27 27 27 29 30 31 31 32 33 35 35 25 21 16 13 14 14 14 8 8 1 3 2 4 2 2 5 5 8 11 12 9 3 8 8 4 4 1 2 2 6 5 5 6 4 8 10
29 29 29 29 30 32 32 33 33 33 38 34 24 16 13 12 12 8 9 3 4 1 3 4 2 3 2 10 3 8 11 10 2 1 5 3 3 1 6 2 2 7 9 5 6 11 10
31 32 32 31 31 30 32 32 32 34 35 26 25 17 12 10 10 8 9 3 4 3 4 6 4 2 2 2 3 6 14 4 4 2 4 5 4 4 3 2 4 7 8 3 6 12 4
35 35 34 34 34 32 29 31 33 32 35 36 25 18 10 9 7 9 9 6 6 4 0 3 2 2 2 0 1 3 5 4 3 5 2 5 2 6 2 3 4 2 7 5 6 8 3
39 39 38 37 37 36 32 30 31 31 33 35 32 20 12 8 5 8 5 10 7 4 4 3 2 2 2 3 2 1 3 1 4 1 5 4 5 1 7 0 3 4 2 5 16 6 2
34 36 38 44 44 45 41 34 32 32 32 33 33 21 14 18 4 5 7 12 9 3 3 3 2 2 2 3 2 2 3 3 1 2 1 1 3 4 4 1 3 4 4 3 8 7 2
38 37 37 37 36 37 43 42 34 30 35 30 33 23 16 15 9 7 14 13 7 4 6 3 3 3 3 3 2 1 1 3 1 2 2 3 1 1 1 3 5 5 8 11 6 2 1
39 40 39 38 36 36 34 37 36 30 32 31 35 25 21 14 6 19 16 4 5 2 1 4 4 3 2 3 2 3 3 1 1 3 2 4 2 5 2 5 7 2 2 3 2 2 1
42 42 43 40 34 36 35 34 34 29 32 29 36 24 21 19 13 22 11 4 3 4 5 2 4 3 3 4 1 3 4 1 3 1 2 3 2 2 2 2 3 3 1 3 3 2 3
44 43 41 29 33 33 30 33 33 30 34 28 17 20 15 16 24 22 2 4 6 7 6 6 3 3 2 3 2 1 2 3 4 6 2 4 1 3 1 0 1 4 3 0 5 3 3
45 41 39 34 31 31 31 26 31 31 29 18 11 11 9 22 21 10 2 4 3 4 4 3 5 5 5 5 2 4 2 4 3 7 2 2 3 2 2 2 3 1 1 4 3 3 2
44 37 34 30 31 31 31 33 33 33 40 26 15 4 15 23 16 1 3 5 3 5 5 5 6 4 4 6 5 4 4 3 2 5 6 3 2 2 2 4 2 4 3 5 3 3 3
39 34 31 31 32 30 32 35 43 44 44 32 10 4 23 26 4 3 3 6 2 4 3 4 4 4 6 6 4 4 5 4 3 3 5 4 4 3 2 1 0 0 2 3 4 2 2
37 35 31 33 31 32 35 32 41 32 18 23 7 3 12 7 5 4 2 2 3 4 5 4 4 4 2 5 4 2 2 3 2 2 2 2 2 3 6 4 2 2 3 3 4 2 1
34 30 29 30 30 30 33 37 38 15 41 27 4 4 2 2 1 5 5 4 6 5 4 3 3 2 3 4 4 4 2 2 3 2 5 5 3 4 5 4 4 3 4 4 4 3 3
30 26 28 28 29 31 35 34 41 36 50 14 2 3 4 7 9 4 6 3 11 5 1 5 1 3 5 4 4 3 2 2 4 4 3 3 3 3 3 3 2 1 1 5 4 4 5
27 23 27 28 30 30 38 34 16 61 34 5 5 4 2 2 12 8 5 4 11 3 4 4 5 3 3 5 5 6 6 3 3 3 3 3 0 1 4 5 6 2 2 1 3 3 5
23 23 24 25 29 35 31 34 29 47 19 4 3 1 4 6 8 12 6 4 7 7 3 3 6 5 4 4 5 5 2 4 5 6 3 3 4 2 2 3 4 5 4 4 3 3 4
23 22 23 25 27 32 35 30 53 53 15 6 3 2 3 3 6 11 8 5 8 4 6 3 3 5 3 4 5 4 7 8 7 5 2 4 3 2 1 3 2 5 1 2 4 3 4
22 22 23 26 31 36 34 23 57 31 15 9 2 1 3 4 3 5 9 5 7 6 5 4 4 1 4 3 5 5 4 4 5 6 5 2 4 3 3 1 5 2 2 3 4 1 1
19 21 25 28 30 34 17 30 53 26 20 5 7 3 3 6 2 3 5 6 5 4 3 3 3 1 4 3 3 3 3 3 1 2 5 5 5 3 2 1 4 4 2 1 2 3 2
20 25 28 29 31 26 32 36 49 24 19 3 7 8 7 4 3 4 3 4 4 5 4 2 1 2 3 2 3 2 3 4 3 5 4 3 3 3 2 3 6 5 3 0 3 4 3
23 29 32 34 25 6 35 42 43 30 13 6 8 9 5 3 4 4 4 3 3 3 5 3 3 2 3 3 3 3 2 5 3 4 5 5 5 3 2 1 6 0 2 3 3 2 3
26 30 34 12 9 6 37 41 42 33 8 7 7 17 19 7 3 7 16 16 5 1 5 3 2 2 3 4 1 3 2 1 4 3 1 2 5 4 7 5 2 2 1 3 2 2 2

GFSGBSN_925_spd_090.txt.gz
Wind_Speed
23 22 24 24 25 26 27 28 28 28 29 25 24 21 18 13 15 16 14 13 17 14 11 7 6 6 4 2 8 6 8 10 14 16 7 7 6 4 9 4 11 15 8 8 12 11 12
24 25 25 25 26 26 28 28 29 30 32 28 23 22 20 12 14 16 15 14 15 15 11 6 5 3 2 4 3 6 12 14 16 16 18 10 5 6 6 9 12 6 12 12 6 13 7
24 25 26 26 27 27 28 28 29 33 31 30 31 22 21 13 14 16 16 14 12 14 10 7 3 2 3 10 5 13 16 16 17 20 11 13 7 3 3 7 13 11 3 10 5 9 9
25 25 25 25 25 27 27 27 29 30 31 31 34 22 18 13 11 14 15 14 10 14 11 6 2 3 5 8 10 13 13 10 8 4 7 6 9 1 4 8 2 6 4 8 2 12 13
26 27 26 26 26 26 26 27 29 29 29 31 36 32 18 14 9 11 14 13 10 12 11 5 4 4 7 10 5 13 9 5 5 2 1 3 8 0 6 7 2 4 3 5 4 6 15
27 27 26 26 27 27 26 26 27 28 31 31 31 33 19 13 8 8 12 11 10 8 7 5 3 1 4 4 6 9 8 5 3 1 3 4 3 1 6 3 4 6 5 5 5 1 6
30 29 28 27 26 27 27 27 26 27 29 31 31 29 18 12 7 6 5 3 2 2 7 7 6 3 1 7 5 5 7 4 2 2 3 2 1 3 4 4 2 7 7 7 4 2 4
32 31 30 30 29 28 27 27 28 26 27 27 29 31 18 11 7 6 5 3 5 1 5 7 2 2 1 1 3 5 7 3 3 3 2 1 2 4 7 3 4 7 12 6 9 6 5
34 33 32 31 31 29 29 27 27 25 26 27 28 29 14 9 5 6 8 10 6 2 2 1 3 3 2 3 2 5 4 1 3 5 4 2 2 4 6 3 4 2 6 6 7 7 5
37 37 37 39 36 34 31 28 27 26 24 24 26 23 10 8 4 5 3 12 9 3 3 2 1 1 3 2 3 3 3 1 3 1 3 1 2 2 5 2 4 3 4 5 15 6 2
34 34 35 36 35 37 37 32 27 26 24 22 25 19 11 14 1 4 2 10 7 2 3 2 2 3 3 2 2 2 3 3 1 2 2 3 3 5 3 2 5 3 3 4 5 6 5
35 37 36 40 38 35 35 32 29 27 24 21 23 19 20 12 11 4 6 7 0 4 5 4 3 3 2 3 1 3 2 3 1 3 2 3 2 2 2 2 3 0 6 8 7 3 2
38 37 39 40 38 36 33 32 25 24 25 21 21 24 22 15 5 11 11 4 3 3 1 4 4 4 1 2 2 1 1 3 2 2 2 4 2 4 2 4 0 4 3 3 3 2 2
40 39 41 41 38 32 32 28 25 23 21 19 24 24 28 23 10 15 9 2 2 3 5 3 4 3 3 4 1 2 2 1 2 2 2 3 4 3 4 2 3 1 4 1 4 3 2
41 40 40 40 47 26 22 24 24 23 18 20 21 20 12 22 18 19 4 3 5 6 6 8 4 3 2 3 3 2 3 2 3 6 1 2 3 2 4 3 2 1 3 2 5 3 3
42 44 43 40 27 23 19 21 21 19 17 15 10 9 6 15 19 12 3 5 4 2 4 5 4 4 4 5 3 2 3 2 2 5 2 1 3 3 1 4 3 2 1 4 4 2 4
45 43 46 41 24 20 20 20 18 17 17 13 9 3 9 18 21 3 5 5 5 5 3 5 4 4 4 5 5 4 4 2 2 2 2 2 3 3 1 2 1 3 2 4 4 3 3
43 41 42 31 20 21 21 19 18 16 21 17 3 3 18 30 3 3 4 4 3 4 3 3 4 3 6 6 4 4 5 2 1 4 3 1 4 3 2 1 1 2 2 2 4 2 2
45 43 40 25 19 21 20 20 20 23 19 12 3 2 17 14 4 5 1 3 2 3 4 3 4 3 3 5 4 3 4 1 3 2 4 3 3 3 6 5 5 3 3 4 4 3 1
45 38 24 19 19 21 22 21 31 29 32 19 4 4 3 3 1 4 4 4 4 4 3 4 3 3 3 3 4 4 2 2 1 2 4 5 3 3 5 3 2 2 3 2 4 3 2
33 29 21 18 20 21 23 29 38 48 18 25 3 3 3 7 7 4 6 4 5 4 2 3 2 2 4 3 2 3 2 2 3 2 3 3 4 3 5 3 2 1 2 3 3 3 4
31 25 20 20 19 22 27 34 38 52 43 8 4 3 3 3 9 6 6 4 7 2 4 3 4 3 2 5 5 6 5 2 2 4 3 3 2 2 3 5 4 1 2 3 3 3 4
27 22 21 20 20 24 26 28 25 47 33 6 3 4 4 7 11 10 5 4 11 6 5 4 6 4 4 3 3 4 3 5 4 4 2 3 3 3 3 3 4 3 3 4 3 2 4
22 21 21 24 24 28 29 29 6 30 19 12 4 4 3 2 6 10 7 4 6 2 7 3 4 4 2 5 5 6 9 9 9 7 4 4 3 2 1 4 3 4 1 1 4 3 4
23 22 23 24 28 30 34 13 31 29 17 24 8 4 3 3 4 5 6 4 6 6 5 4 4 1 3 3 4 4 4 3 5 6 5 3 4 3 2 1 4 1 1 3 3 2 1
23 23 25 29 30 33 18 10 33 30 24 23 11 1 2 5 3 4 4 4 4 4 3 3 3 2 4 3 3 3 3 3 0 2 4 4 5 4 2 1 1 3 2 1 2 4 4
27 27 29 32 28 20 14 37 31 26 23 14 6 4 5 4 2 3 3 4 3 4 4 2 2 2 2 2 3 2 1 2 4 5 5 2 3 3 2 1 6 4 3 0 3 3 2
28 31 32 24 13 6 18 27 28 24 16 7 10 7 3 3 3 4 4 3 2 2 5 4 4 3 3 3 2 2 2 4 3 3 4 5 5 3 2 2 5 0 2 3 4 1 3
29 33 29 9 1 13 27 26 28 23 12 5 6 7 14 6 3 3 11 15 4 2 4 3 3 2 3 4 1 3 2 1 4 3 1 2 5 4 7 4 2 1 1 1 3 4 3

GFSGBSN_925_spd_093.txt.gz
Wind_Speed
19 19 19 19 20 21 22 24 24 26 26 26 26 26 25 16 17 12 13 10 11 10 13 11 10 7 5 2 7 3 4 7 9 13 9 8 9 6 7 4 8 15 16 13 18 17 10
19 20 20 21 21 22 22 23 24 25 26 25 25 25 27 22 16 12 12 9 10 9 12 10 8 5 2 4 3 2 5 12 14 12 14 10 8 6 5 9 8 1 11 17 12 14 10
22 22 22 21 21 21 22 21 24 25 26 27 27 26 30 18 16 12 9 9 8 9 10 7 9 6 2 11 3 7 10 11 12 12 16 21 18 8 2 5 5 9 10 16 15 10 6
25 23 23 21 21 21 21 21 22 24 25 28 28 27 23 15 16 11 5 8 10 7 7 7 6 2 6 8 7 11 8 6 2 2 3 5 11 4 2 5 9 6 11 6 10 8 3
26 25 24 23 22 22 21 22 22 22 24 26 27 27 27 17 13 7 5 8 5 4 3 5 4 3 7 7 4 6 4 3 1 1 2 5 8 2 2 3 5 7 2 7 4 12 7
27 26 26 24 23 23 22 23 23 22 23 25 26 26 28 28 12 7 2 4 3 2 0 3 1 2 7 3 4 6 3 5 5 2 2 1 2 2 3 4 4 7 5 3 5 7 9
27 26 26 25 24 24 24 23 23 21 22 23 26 26 29 34 12 6 1 2 2 1 3 6 5 4 2 6 5 2 3 1 1 1 1 0 3 5 5 13 11 4 10 9 7 7 7
28 28 28 28 27 26 27 25 23 22 21 19 24 24 25 27 11 7 6 3 0 2 4 13 3 6 3 3 2 2 8 1 2 2 2 2 3 5 10 11 9 5 9 8 10 5 8
33 33 32 31 30 29 29 26 25 24 20 18 21 21 23 4 9 7 7 6 1 3 2 2 5 4 3 3 2 3 4 1 1 2 2 1 5 7 6 2 6 3 6 6 7 6 7
36 36 34 33 32 31 33 29 27 25 19 16 16 16 17 6 4 7 5 2 8 3 2 3 3 4 3 3 1 1 2 1 2 1 1 2 5 1 4 3 3 4 1 7 14 7 3
37 36 36 35 33 34 34 32 28 27 23 15 13 12 13 10 6 4 6 6 6 3 1 3 2 2 3 2 2 2 0 1 1 1 2 1 2 2 5 2 6 2 1 9 9 3 6
38 37 37 36 35 36 34 35 29 25 20 16 12 10 9 6 5 5 9 12 4 1 4 3 3 4 4 1 3 2 1 1 1 2 3 2 3 2 1 4 5 1 5 7 3 3 3
39 39 38 37 34 36 43 29 25 19 16 15 12 10 11 11 4 13 15 6 2 3 1 5 4 4 2 3 2 3 1 2 1 3 1 2 2 4 2 3 4 7 4 3 2 3 2
41 40 40 39 39 38 36 23 18 16 13 13 12 12 17 15 14 22 16 2 3 1 4 3 4 4 4 4 2 2 2 1 2 1 1 2 4 4 4 2 2 3 2 2 4 3 4
42 41 41 37 35 34 26 19 14 13 11 8 11 8 8 14 25 27 5 2 3 5 5 7 3 3 3 2 3 3 2 2 4 6 1 2 3 1 2 3 1 3 3 1 5 3 4
42 44 42 39 37 28 14 12 11 10 6 7 4 5 6 29 28 19 2 3 3 3 3 3 4 3 5 4 3 3 1 3 1 4 2 1 2 2 2 3 2 1 2 2 3 3 4
43 45 43 43 40 28 12 9 9 8 4 4 2 2 3 26 22 3 2 3 4 5 3 4 3 4 3 4 2 3 3 3 2 2 2 1 3 2 2 4 3 3 2 4 4 3 3
45 45 37 32 28 11 9 9 8 6 3 3 1 2 11 24 3 2 3 5 4 4 2 2 3 3 4 4 3 2 2 3 3 3 2 1 3 4 2 4 2 0 2 3 3 2 4
44 36 31 28 20 10 10 9 9 7 3 6 2 3 15 14 4 3 3 1 2 2 3 2 1 1 3 4 4 2 2 2 1 2 2 2 3 2 6 4 3 5 4 4 4 3 2
40 34 25 22 17 15 13 10 8 9 10 7 2 3 1 3 1 4 4 2 3 4 2 2 2 3 4 3 5 3 2 3 3 2 7 5 3 3 4 1 1 2 3 4 4 3 3
38 26 20 20 19 17 19 20 22 26 22 19 3 3 1 4 4 5 6 2 4 3 1 1 3 3 5 4 3 3 2 2 4 4 4 4 4 4 4 3 2 0 1 3 3 2 4
32 26 23 22 21 22 25 31 38 28 29 11 4 3 3 4 10 7 5 3 5 2 2 1 5 4 2 5 5 6 5 2 1 4 3 2 1 1 5 5 6 3 4 3 3 3 2
29 27 24 22 22 27 28 31 20 37 34 6 3 2 4 6 5 4 4 4 6 6 3 1 6 5 4 2 3 5 5 5 4 5 2 3 4 3 2 4 4 3 1 2 2 1 4
28 29 27 27 27 31 28 24 10 5 7 13 5 5 3 2 5 7 6 4 3 1 5 3 3 5 1 4 6 6 8 9 9 7 3 4 4 2 2 3 3 4 1 0 3 1 1
26 29 31 32 31 29 19 1 26 12 22 26 7 4 3 3 3 5 3 3 4 4 4 3 5 1 2 3 5 5 4 5 6 6 7 4 4 3 2 0 3 1 1 4 3 2 2
28 31 33 34 30 17 4 26 34 21 19 19 15 9 4 5 1 2 3 3 3 2 4 3 4 2 3 3 3 3 3 2 0 4 4 4 5 4 2 3 3 5 2 3 3 1 1
27 30 35 35 12 9 30 36 29 27 18 11 11 6 7 4 2 2 2 2 2 3 4 2 2 2 3 2 3 2 2 1 4 6 3 2 2 3 3 2 5 5 3 1 2 5 5
28 33 34 23 15 27 31 32 26 21 13 5 12 5 4 3 2 2 3 1 1 1 4 4 3 1 3 3 2 2 2 4 2 2 4 6 5 3 2 2 5 3 2 5 3 2 4
26 31 26 14 8 25 30 29 25 19 13 6 7 14 14 5 4 3 8 11 3 1 4 3 3 2 3 4 1 3 2 2 3 3 1 2 5 4 6 4 2 1 2 1 3 4 3

GFSGBSN_925_spd_096.txt.gz
Wind_Speed
22 22 22 21 22 22 22 22 21 22 23 23 23 23 23 23 18 20 15 10 6 4 5 6 2 3 1 1 7 5 6 7 7 6 11 10 10 9 9 7 14 19 19 18 22 22 20
24 24 22 21 20 20 21 22 22 22 22 22 23 24 23 27 27 23 16 12 6 4 6 4 3 3 3 5 3 6 6 9 10 10 13 13 6 7 9 11 16 8 16 21 20 20 19
25 25 24 24 22 20 19 18 18 20 22 22 23 24 24 27 30 20 14 8 6 6 6 4 2 5 3 9 3 5 9 7 8 9 11 13 16 6 2 8 4 11 17 15 18 21 18
26 26 26 25 25 22 21 22 18 17 18 22 23 24 24 27 31 18 12 9 6 3 4 3 4 6 5 6 3 11 8 9 5 2 3 3 11 8 7 5 5 3 9 11 12 20 20
28 27 26 26 26 25 22 22 20 19 16 18 22 23 24 23 29 15 12 7 3 4 5 5 5 4 5 4 4 5 6 6 5 2 3 6 6 5 5 6 6 6 8 12 11 20 10
29 28 26 25 24 25 25 24 23 21 19 15 18 22 22 24 25 11 11 6 7 5 6 6 6 2 4 2 2 2 5 8 6 3 5 5 3 5 5 6 6 7 11 4 6 13 15
31 31 31 29 27 25 24 24 23 20 20 16 17 20 21 22 24 13 11 10 4 2 5 6 7 2 2 1 4 5 3 5 6 5 4 2 5 9 12 13 13 12 13 1 4 10 13
31 31 31 31 30 27 27 25 25 23 20 19 14 19 21 27 9 15 12 3 1 5 5 12 6 7 4 2 1 4 1 5 5 5 3 4 8 6 7 9 11 15 12 6 3 5 5
32 31 33 32 30 29 29 27 26 26 24 21 11 13 15 8 8 8 8 7 8 5 2 2 6 5 3 6 1 4 3 4 4 3 4 6 7 4 4 9 12 12 12 8 4 6 3
34 34 34 34 33 31 29 28 27 25 26 20 12 8 8 7 2 6 3 11 9 3 1 5 5 3 4 4 2 3 3 3 4 3 4 5 4 4 4 4 5 8 7 12 9 5 3
36 37 37 37 34 32 32 29 28 29 30 19 15 9 6 4 2 4 5 12 11 2 3 5 3 3 3 4 3 6 4 4 2 2 4 0 3 2 3 3 2 1 7 10 8 5 4
39 40 40 39 36 34 32 30 33 27 27 17 10 9 7 3 7 6 12 11 5 3 2 4 4 5 5 4 4 3 4 1 2 3 1 4 2 3 2 3 5 8 10 9 5 2 2
49 42 41 39 38 37 33 32 29 15 7 8 10 7 9 3 1 14 18 5 3 2 2 6 4 6 4 5 5 4 3 4 2 3 1 1 3 5 1 2 4 2 11 4 3 3 3
45 42 42 41 39 40 36 39 9 12 5 5 5 7 6 6 9 19 13 2 4 2 4 2 4 7 2 6 2 3 3 3 3 0 1 2 2 3 2 0 1 1 3 3 4 4 4
42 43 41 41 40 36 30 13 7 6 2 1 2 2 3 9 17 24 3 3 2 3 4 7 8 5 4 3 3 5 1 0 1 3 2 2 2 4 4 3 4 2 2 3 7 6 6
42 42 41 35 34 31 18 3 4 3 3 2 2 2 3 8 22 17 2 2 1 2 3 9 4 6 5 7 6 4 1 2 2 3 2 1 1 4 5 4 3 3 4 2 1 4 5
41 43 37 29 28 20 11 7 4 3 5 2 2 1 2 15 19 4 2 3 2 7 6 6 2 4 4 5 3 2 3 3 2 1 3 3 4 2 2 5 6 2 2 2 3 3 4
38 37 30 24 22 17 14 10 5 4 6 5 2 1 4 30 3 1 3 5 2 4 4 3 2 3 4 3 3 3 3 2 5 3 3 3 3 3 2 1 5 3 5 4 2 4 4
33 32 26 23 18 16 12 6 5 5 2 3 1 0 15 3 2 3 2 2 2 2 4 1 0 0 2 4 3 4 2 1 4 2 3 1 2 3 2 2 3 4 6 6 4 3 4
30 28 26 23 19 15 12 9 3 3 4 3 1 2 3 1 2 6 4 2 3 2 2 2 1 2 4 4 3 5 5 1 2 2 6 1 4 4 4 5 3 3 7 8 4 5 9
27 26 24 22 22 19 15 14 13 15 13 5 1 1 1 4 2 7 4 1 3 2 1 3 1 2 5 3 3 4 3 3 3 4 2 2 3 3 6 5 3 5 6 9 6 5 6
26 25 25 25 27 27 27 31 24 26 25 7 4 2 2 4 7 7 2 4 3 0 1 4 2 4 2 4 2 5 5 2 1 2 2 2 4 2 3 7 6 6 7 5 5 4 8
27 24 24 26 27 29 26 17 18 36 36 5 3 1 1 4 3 4 5 1 5 3 2 3 2 4 7 3 3 8 5 6 4 2 2 2 3 2 2 6 5 4 4 3 3 1 2
28 28 27 27 28 24 15 8 23 31 15 10 6 3 3 3 5 7 5 4 1 1 2 3 3 2 2 9 11 11 12 11 10 8 3 4 3 2 1 2 1 2 2 3 2 3 2
25 28 30 32 30 12 1 11 12 18 18 21 7 2 2 4 4 5 4 3 2 6 4 2 5 2 6 2 3 3 2 3 5 6 6 2 2 3 1 1 1 1 3 3 3 2 2
26 29 32 28 18 6 9 19 18 21 16 13 10 5 3 5 2 2 4 1 2 2 2 2 2 1 2 2 2 1 2 1 2 2 3 4 4 1 2 2 4 3 2 1 2 4 4
24 28 28 20 16 9 14 24 20 16 9 7 7 6 5 4 1 2 2 3 2 2 3 2 2 1 1 2 1 0 1 2 2 4 4 3 1 2 3 2 2 4 6 2 4 3 9
23 25 22 6 8 9 17 26 20 12 4 8 8 7 2 3 2 1 1 1 1 2 3 4 3 2 1 1 1 1 1 2 2 0 3 6 4 3 3 3 5 7 6 5 3 4 7
17 18 14 2 7 15 18 20 17 8 4 2 6 13 15 6 4 2 6 6 2 3 0 1 2 1 2 3 1 2 2 2 1 2 1 4 3 1 5 1 2 5 1 2 3 5 6

GFSGBSN_925_spd_099.txt.gz
Wind_Speed
24 25 25 25 26 25 22 21 20 20 20 22 22 22 23 24 24 24 23 19 15 10 7 7 5 6 3 6 6 9 10 7 3 6 9 9 9 11 13 9 14 21 20 21 22 21 22
27 27 27 28 27 28 26 22 21 20 21 20 21 22 24 24 24 24 25 20 13 10 7 6 7 6 8 8 4 8 8 5 4 7 11 11 7 9 10 16 14 14 16 18 21 21 20
28 28 28 27 27 28 27 25 24 23 20 20 21 22 23 24 25 25 28 17 13 11 6 6 7 7 7 8 3 8 7 5 4 6 10 11 9 8 3 10 17 16 18 18 22 20 23
28 29 30 31 30 28 28 26 25 25 21 18 22 21 22 24 24 29 13 16 13 8 6 9 8 8 5 5 4 9 7 6 6 5 5 6 8 10 5 11 12 13 9 13 18 22 22
29 30 30 32 32 30 28 27 26 24 22 20 22 20 21 23 25 26 14 17 10 10 9 8 7 6 4 2 5 7 7 6 6 4 4 2 7 5 7 10 10 13 13 13 17 21 19
29 30 30 31 33 32 31 28 26 25 24 19 18 19 19 21 20 20 9 10 8 11 8 7 4 3 6 3 6 3 4 5 6 3 4 4 5 4 8 7 8 8 9 15 13 8 22
28 30 31 32 32 34 32 30 27 25 24 21 19 17 18 23 22 13 16 13 4 4 7 7 7 3 4 4 3 6 6 6 9 6 5 3 5 9 13 15 17 15 14 15 12 13 19
27 28 31 32 34 35 32 31 30 26 24 22 21 17 14 21 18 14 15 3 3 2 4 14 8 9 1 1 3 6 6 6 9 9 9 3 10 15 10 15 16 13 14 15 4 3 10
30 27 29 36 36 37 37 31 28 29 22 21 19 12 11 9 3 5 4 5 7 5 2 6 9 6 5 6 3 9 7 4 9 10 10 12 13 3 8 7 12 13 15 14 5 4 8
36 22 43 40 36 35 34 32 32 26 27 22 22 11 8 6 4 3 2 7 5 3 2 8 7 5 6 3 4 5 4 4 3 7 10 10 6 6 7 8 7 12 15 5 4 5 2
20 36 39 34 36 35 33 32 31 24 23 20 12 8 9 6 2 3 2 7 6 3 4 7 4 4 5 5 5 7 5 4 7 6 4 4 4 4 7 2 5 6 3 4 12 10 4
37 35 34 38 37 37 34 32 31 26 13 12 13 12 11 5 5 2 6 7 2 3 3 4 5 7 8 7 5 5 4 4 4 5 6 13 1 3 4 2 5 13 9 10 10 11 1
33 34 37 39 37 33 36 31 23 6 6 3 8 10 7 4 1 7 10 3 3 4 5 6 5 6 5 5 7 5 6 8 4 4 4 4 3 3 2 3 4 10 9 3 3 2 3
33 34 38 36 30 32 26 15 12 7 5 7 8 6 4 3 3 11 7 1 5 7 3 2 5 7 2 7 4 6 5 7 7 7 6 2 3 4 6 1 2 2 2 4 2 1 1
31 34 35 31 29 22 23 14 13 10 8 7 7 4 2 5 7 12 2 4 6 4 2 5 9 4 3 4 1 6 6 2 1 1 4 3 2 1 4 3 3 1 4 7 3 6 4
28 30 29 27 25 22 19 14 9 9 7 7 4 4 3 3 11 7 2 5 4 4 3 7 2 2 4 6 5 6 6 1 1 2 4 5 2 4 3 3 8 5 8 4 3 1 5
27 27 25 23 20 19 18 14 8 7 7 5 1 2 7 10 11 2 2 3 3 3 3 2 3 4 5 8 7 1 2 2 3 2 3 4 3 2 4 2 6 1 3 4 3 3 2
26 24 24 22 20 19 14 11 7 6 6 7 2 3 4 14 3 1 2 3 3 6 3 3 3 3 4 5 2 2 4 2 3 5 2 3 4 4 2 2 1 4 7 6 1 4 7
24 22 21 19 17 14 13 11 6 3 4 2 2 3 11 1 2 2 2 3 3 4 2 3 1 2 2 2 1 4 3 0 3 4 8 6 3 1 1 3 1 5 11 9 5 5 5
23 21 20 20 19 17 12 5 3 3 1 3 1 3 2 2 3 5 2 2 3 2 3 4 3 3 4 4 2 4 7 2 1 3 5 5 6 7 7 5 4 5 13 15 6 5 9
22 20 19 19 21 20 20 12 11 13 9 1 1 3 2 2 2 5 4 2 2 3 2 2 2 1 2 3 6 3 2 4 2 1 0 3 4 4 8 7 6 7 10 13 11 6 7
22 22 21 22 22 21 16 8 6 21 13 2 3 3 2 4 6 5 1 3 1 0 3 1 1 3 3 7 7 4 2 2 4 3 4 3 3 1 7 7 6 7 7 9 11 12 12
23 22 25 25 23 18 13 19 15 30 21 4 2 1 3 2 2 3 3 2 4 2 2 4 5 1 6 7 7 7 4 5 4 4 3 4 1 3 3 5 0 4 6 5 5 6 5
23 23 25 27 25 11 7 12 28 38 17 4 3 4 3 3 4 5 2 2 3 3 3 4 8 3 3 2 6 7 8 7 6 7 5 1 2 3 2 4 1 3 2 2 3 3 3
21 23 25 23 15 3 12 12 24 26 12 1 1 3 1 3 5 5 3 4 2 2 3 3 5 4 1 4 2 1 2 1 4 5 5 4 1 1 2 0 0 3 4 2 2 2 3
22 23 22 21 14 6 19 16 16 20 15 8 2 1 3 5 5 1 7 2 2 1 3 3 3 1 4 2 1 1 1 4 0 0 3 3 3 3 1 1 3 5 5 3 1 4 9
19 20 21 16 17 11 20 14 13 13 6 6 3 2 2 3 2 1 6 4 0 1 2 3 3 2 2 2 1 1 1 2 2 2 2 2 2 4 4 2 2 4 6 3 3 3 8
17 16 15 9 9 7 17 16 10 7 8 2 3 3 2 2 4 1 3 2 3 2 3 4 2 2 2 2 2 1 2 1 3 2 2 3 2 3 3 3 4 9 5 4 3 6 7
14 12 11 4 2 6 15 12 4 2 3 7 3 7 8 3 4 3 3 3 2 2 2 2 2 1 3 1 1 1 2 1 3 2 2 3 3 3 4 1 1 10 4 4 1 6 5

GFSGBSN_925_spd_102.txt.gz
Wind_Speed
25 26 26 27 26 25 25 26 25 22 22 22 22 21 22 22 22 24 23 24 26 19 13 10 7 8 4 6 7 17 12 11 7 5 6 5 6 5 7 8 9 15 16 18 16 16 18
26 26 26 27 27 27 27 26 25 24 24 22 23 21 22 22 21 24 24 23 27 18 15 10 9 9 4 8 7 14 14 10 4 7 7 6 4 5 6 7 11 9 16 17 16 20 19
26 27 27 28 28 29 29 28 27 25 24 24 21 21 20 22 22 23 24 25 11 17 13 9 12 9 6 8 4 11 11 8 5 5 4 0 1 5 2 7 7 14 17 19 20 15 19
27 28 29 29 29 29 30 29 28 28 24 23 22 23 19 19 22 25 27 14 17 17 12 10 12 7 5 6 7 10 9 7 7 5 1 2 5 3 5 8 7 7 13 13 9 14 17
29 29 28 27 28 29 31 31 30 27 25 24 21 21 20 17 18 21 16 16 15 13 12 11 8 6 3 6 7 11 10 10 12 6 4 4 6 5 5 3 5 9 7 12 14 13 13
33 32 30 28 27 27 38 34 34 32 28 26 22 17 22 16 15 15 8 6 10 10 12 8 1 5 7 6 9 8 7 8 5 6 5 3 1 1 3 5 5 9 8 13 16 4 12
36 37 35 21 26 42 37 33 30 28 26 21 22 14 18 14 17 17 6 12 4 2 3 4 9 1 10 8 7 6 10 10 7 6 4 5 2 7 10 11 15 18 18 18 18 11 5
40 38 30 32 33 32 31 29 29 23 23 26 17 16 12 10 15 7 20 2 2 5 3 13 11 7 7 1 4 7 10 7 8 7 8 2 9 11 12 14 15 17 18 19 15 9 8
35 35 37 31 30 32 32 30 28 24 22 18 17 9 9 9 8 5 8 1 1 2 1 8 11 6 2 4 3 11 8 6 6 7 8 8 9 9 9 13 13 11 16 15 8 10 7
33 36 31 31 35 34 34 29 27 24 19 17 19 16 12 6 4 5 3 6 4 3 2 6 5 4 6 3 3 5 9 4 5 4 7 7 14 10 12 10 9 11 6 14 5 2 4
31 29 31 34 34 33 34 28 23 20 16 15 10 2 11 8 5 1 5 8 5 3 4 5 6 3 8 5 7 6 4 4 6 5 3 4 6 0 8 6 3 7 11 14 9 8 3
30 29 32 31 31 29 28 24 18 17 12 10 2 8 8 2 2 2 4 7 1 2 2 4 4 6 7 7 4 6 5 3 5 4 7 12 8 4 5 6 8 10 9 10 9 7 3
28 28 28 28 30 30 24 27 19 16 12 14 13 10 5 3 3 9 9 2 2 3 3 5 6 7 4 6 5 7 7 6 2 2 3 4 10 1 2 5 5 6 5 3 3 1 2
26 28 27 26 25 26 23 22 20 16 13 11 9 9 4 9 8 12 7 1 3 6 6 5 6 8 2 8 4 5 3 2 8 5 3 3 3 2 3 2 3 3 3 3 4 3 2
26 26 24 23 21 21 20 16 15 15 10 8 8 6 7 6 7 5 2 1 5 3 3 6 8 5 5 3 1 4 4 2 2 2 2 5 2 4 2 3 3 2 4 5 3 5 1
23 23 23 22 19 17 15 13 10 11 8 7 4 5 15 7 8 5 1 4 3 5 7 2 3 1 4 4 2 2 5 4 2 3 6 2 3 3 5 4 9 6 8 4 1 5 4
22 21 21 19 17 17 13 12 7 6 6 6 1 3 12 8 5 3 3 4 3 5 3 3 6 4 8 4 2 2 3 3 3 4 3 1 1 1 4 2 4 2 4 3 2 3 2
21 21 20 18 18 15 12 10 5 4 6 7 4 3 5 3 3 2 3 5 3 8 2 3 5 9 4 3 3 4 5 4 1 2 2 4 2 1 0 4 3 4 6 5 1 5 6
19 19 19 18 18 18 13 9 6 4 7 2 3 1 6 6 2 2 2 3 4 7 6 6 4 5 5 4 2 4 4 3 3 4 4 4 2 3 3 2 1 4 8 5 2 2 3
21 20 18 19 19 19 18 16 6 4 2 4 3 2 2 2 3 2 2 4 3 2 2 5 3 0 2 3 3 3 4 1 4 3 4 3 5 4 3 2 3 5 9 7 4 5 9
21 22 19 19 20 20 16 11 9 6 4 4 2 3 2 1 2 6 3 2 3 4 2 3 1 2 5 3 5 4 3 4 5 1 2 4 3 5 4 5 4 6 8 11 8 7 8
21 22 21 22 22 20 14 10 7 11 8 2 1 3 2 4 5 5 1 1 6 4 6 5 4 6 11 7 6 5 3 6 5 2 2 0 1 2 4 6 5 7 10 9 9 10 10
22 23 23 24 23 17 11 13 13 18 10 2 1 1 2 3 1 1 2 4 6 5 1 5 8 6 8 5 6 4 3 4 4 5 5 3 1 3 2 4 6 4 5 6 3 7 4
21 24 24 23 20 15 14 5 24 23 7 4 3 4 2 2 3 1 4 3 6 6 4 6 8 6 3 9 9 1 5 5 7 6 4 4 2 1 2 3 3 3 2 4 5 5 5
19 22 23 23 15 9 14 15 23 18 4 10 5 5 2 3 3 4 3 4 3 4 3 3 4 4 8 6 2 2 3 2 4 4 5 5 3 2 2 1 3 3 3 2 1 3 2
16 17 17 18 10 7 11 10 15 12 3 9 8 5 3 2 5 5 4 2 2 2 4 2 2 4 4 2 2 3 3 3 3 1 0 4 2 1 3 1 2 3 4 1 0 1 6
14 14 14 16 7 9 12 8 4 6 9 7 6 3 3 2 1 3 1 1 2 2 3 2 2 1 1 3 1 2 1 1 2 3 2 1 2 2 3 1 4 5 6 2 2 4 5
12 12 9 8 4 12 13 13 11 5 5 2 4 4 3 2 2 3 4 3 2 3 2 2 2 2 2 2 1 0 2 1 2 2 2 2 2 3 1 1 6 5 3 2 3 4 5
11 12 8 6 3 7 15 9 7 1 6 7 2 5 5 3 2 3 2 2 3 4 3 2 0 1 1 1 1 1 2 1 2 2 1 3 2 1 2 4 1 6 3 2 2 4 4

GFSGBSN_925_spd_105.txt.gz
Wind_Speed
24 25 25 27 26 26 25 26 27 24 23 22 21 19 18 18 17 18 21 19 19 14 17 22 18 16 10 3 5 18 15 13 11 8 7 5 4 2 3 3 5 9 7 9 11 12 12
27 28 27 26 25 25 25 26 27 27 25 25 22 20 18 15 16 18 21 24 18 15 18 18 17 20 5 3 9 21 19 16 11 9 6 3 3 3 2 3 4 4 11 15 13 15 14
30 30 31 30 29 25 25 24 29 32 28 26 24 22 18 14 14 17 22 26 21 18 22 18 15 15 5 4 12 17 17 12 8 7 4 5 5 4 3 4 7 10 9 10 10 11 9
34 35 36 35 34 27 22 23 34 33 31 28 23 19 17 14 13 15 21 24 8 22 23 18 17 7 5 8 12 16 14 10 6 4 2 2 1 2 2 4 6 4 2 4 3 3 7
38 40 40 32 22 22 27 30 37 31 27 24 24 18 17 13 13 12 16 9 19 18 16 19 12 2 3 11 11 16 14 9 12 7 4 5 6 4 3 1 3 3 2 4 9 3 7
41 32 36 32 28 25 25 26 28 28 24 20 24 14 9 5 11 9 8 8 15 16 16 10 9 3 1 3 9 13 12 12 11 10 4 2 0 2 3 2 3 1 4 7 11 5 12
21 32 33 29 28 30 29 29 27 24 20 17 19 15 6 11 6 9 2 10 3 3 1 4 10 1 9 10 10 7 11 6 2 4 5 5 1 7 8 9 6 6 7 14 17 17 12
29 33 31 30 31 31 29 27 26 21 21 14 11 8 3 4 8 7 17 3 4 7 2 1 3 4 9 4 4 6 14 5 4 8 5 1 9 11 10 10 10 12 15 18 18 9 4
31 30 30 31 30 30 31 28 22 20 17 9 7 6 2 1 6 7 7 5 3 4 2 6 6 1 2 2 3 8 7 3 6 6 7 6 7 2 10 5 8 13 11 10 12 7 11
29 28 30 30 28 29 30 30 27 22 9 5 10 8 3 5 5 8 3 3 6 1 3 2 5 4 5 1 1 12 13 1 4 5 7 6 8 8 6 10 9 12 8 9 8 2 3
26 27 26 27 28 28 30 27 23 22 18 10 5 11 10 9 3 3 2 6 9 2 4 4 4 1 6 1 7 2 4 1 4 4 1 5 2 1 4 6 2 7 9 11 13 8 2
25 26 25 25 27 28 26 25 24 23 22 21 19 17 11 5 6 4 7 8 3 1 4 4 3 6 5 2 4 3 2 1 3 3 5 7 3 3 4 4 6 7 8 12 6 3 5
24 25 25 25 25 25 23 22 21 21 24 21 19 17 15 10 3 8 8 2 3 2 4 2 6 4 1 3 5 5 4 3 3 2 2 3 4 2 2 4 3 6 2 3 3 3 2
24 24 23 25 24 23 22 20 19 17 17 19 17 17 16 14 10 5 3 3 4 8 5 3 5 8 3 6 5 5 3 3 7 3 2 1 4 1 2 3 3 5 2 2 4 4 2
24 23 23 22 23 24 21 19 18 14 13 12 12 13 17 11 5 3 3 4 5 3 4 4 5 4 2 3 4 5 3 3 1 7 2 3 2 2 3 2 1 2 4 4 3 4 2
23 23 22 21 22 22 21 19 14 13 14 11 5 5 17 10 9 6 4 5 3 4 5 2 2 4 3 2 2 2 1 3 2 5 5 2 4 1 4 4 9 7 5 1 2 3 4
22 23 21 21 21 22 20 19 16 15 13 9 3 3 12 12 13 4 4 4 3 5 3 3 3 4 4 4 2 1 3 3 4 5 7 2 0 3 2 4 2 2 4 4 2 3 1
20 22 23 21 20 20 20 19 15 13 15 11 4 3 9 16 4 2 3 4 5 5 2 3 3 5 3 1 3 4 3 4 1 4 2 4 2 3 3 3 3 3 5 2 3 3 3
19 20 21 19 20 20 20 19 13 9 11 6 2 1 5 7 4 3 3 3 2 5 6 6 6 4 2 2 4 3 3 5 7 4 3 1 3 3 7 5 5 4 6 4 3 3 6
18 18 20 20 19 19 19 14 11 4 6 5 3 2 3 3 1 3 2 4 1 3 3 3 3 3 3 3 3 3 1 3 3 2 5 0 4 2 3 5 4 6 12 9 5 4 5
17 18 19 18 21 19 16 10 7 3 1 6 2 1 4 2 4 3 1 2 3 3 4 5 5 6 4 5 3 3 1 2 3 2 1 3 3 3 4 4 4 5 7 11 13 7 6
17 17 21 19 20 17 13 8 6 4 2 3 2 3 2 2 0 2 2 1 4 4 5 5 5 5 9 5 3 4 4 5 2 6 4 2 0 2 5 5 7 5 12 10 11 11 9
18 18 19 21 18 13 7 4 6 5 3 3 3 2 3 3 4 2 1 1 3 1 3 4 4 3 7 6 6 6 1 2 2 2 5 2 2 2 3 3 5 5 5 5 3 5 6
18 17 18 20 15 13 13 9 13 10 5 7 5 4 2 1 2 2 1 2 2 2 3 2 5 3 2 7 6 2 2 4 5 5 2 2 2 2 2 2 3 5 1 1 4 4 5
16 16 16 18 11 15 21 24 24 12 7 15 10 5 2 1 3 6 3 2 1 2 1 1 2 3 4 4 3 2 3 2 1 1 4 3 2 2 2 1 2 1 4 4 4 4 4
14 13 14 15 6 13 21 22 15 7 5 10 10 9 2 2 4 3 3 2 2 1 3 3 2 3 3 2 3 1 1 2 3 6 3 1 3 3 2 3 3 4 3 2 3 2 7
13 8 7 9 3 7 14 14 10 6 3 4 4 10 2 0 2 4 1 2 3 1 2 1 2 3 2 3 2 1 2 1 2 3 1 2 2 3 1 1 5 3 4 3 3 5 5
12 7 5 3 1 7 10 14 14 9 5 4 2 3 2 1 4 4 4 3 4 3 1 3 3 3 3 2 1 2 2 3 1 4 3 4 3 3 2 1 6 6 4 7 4 2 5
10 8 6 4 4 12 12 10 4 2 2 4 1 2 2 4 2 4 2 1 1 3 1 3 2 1 2 2 0 0 2 1 3 3 1 2 6 3 7 5 4 6 4 3 5 5 5

GFSGBSN_925_spd_108.txt.gz
Wind_Speed
30 29 30 31 31 29 26 22 19 17 19 22 23 23 20 18 17 14 13 15 15 18 17 14 23 19 15 3 5 13 17 16 14 11 8 5 4 4 3 3 3 4 4 8 11 8 9
33 33 34 33 37 34 30 25 22 15 19 26 25 25 23 20 16 14 13 15 17 16 14 12 25 22 4 6 6 21 19 17 11 10 6 7 5 4 2 1 2 3 5 10 10 15 11
36 37 31 28 31 32 26 21 19 26 24 25 23 21 20 16 13 11 12 19 21 21 17 20 25 18 2 4 18 22 21 16 10 9 3 1 7 3 3 3 4 7 8 11 12 7 6
39 27 31 31 31 29 26 23 23 23 23 23 21 18 18 15 7 8 11 20 22 17 16 25 22 20 2 4 22 20 17 12 10 8 7 5 5 3 1 2 5 3 1 4 4 3 6
29 31 33 30 30 30 29 27 24 23 22 20 15 18 15 13 7 4 9 14 5 20 26 25 21 8 2 11 14 18 18 12 10 8 6 8 5 2 1 0 4 2 3 4 7 6 5
30 33 31 32 32 31 29 29 27 21 18 16 11 16 11 4 5 2 5 6 20 22 17 19 15 3 4 7 17 14 13 10 6 8 4 2 3 1 3 2 3 2 4 5 9 5 9
32 31 31 32 33 33 30 33 29 17 14 14 11 8 3 4 2 3 10 6 5 5 5 3 10 4 10 10 15 10 11 6 5 4 4 4 2 7 9 8 6 4 7 12 15 15 11
30 29 30 31 32 33 34 31 31 24 13 6 8 10 7 7 7 3 10 4 7 5 4 11 7 15 17 10 8 5 12 3 3 4 3 1 8 10 6 7 10 9 13 17 16 11 6
28 28 29 31 33 33 33 33 31 26 18 9 8 7 7 4 9 13 13 8 11 4 4 5 5 5 3 2 4 7 7 3 4 4 5 5 6 1 6 7 10 12 12 14 9 10 7
27 27 28 30 31 32 33 34 33 24 19 15 10 7 6 5 7 6 5 8 7 2 3 4 2 3 3 2 3 6 9 1 2 7 4 6 10 7 7 10 10 11 7 15 12 8 5
26 27 28 29 29 30 31 31 31 30 25 23 20 15 11 9 5 3 3 10 6 2 5 2 3 1 5 0 7 2 6 1 2 2 0 5 3 3 4 6 3 7 4 6 8 12 9
25 26 26 28 27 28 28 27 23 23 23 22 22 17 8 6 11 6 6 7 1 4 3 3 2 7 3 1 2 3 2 2 2 3 3 9 3 4 5 3 6 8 8 11 8 5 5
23 24 24 25 27 27 27 23 22 22 19 18 18 20 17 8 4 5 2 2 4 5 2 1 5 3 1 3 3 3 3 2 3 2 2 4 3 2 1 4 3 2 4 3 3 2 3
21 21 21 23 25 25 25 23 22 21 19 13 13 17 20 16 10 9 6 4 7 8 5 3 4 5 2 4 2 5 3 2 6 3 2 2 5 5 2 3 3 4 2 2 4 3 3
20 20 20 19 22 24 22 22 20 20 18 13 9 8 17 19 14 11 4 6 4 2 2 5 3 2 2 2 3 2 4 3 2 9 3 2 3 1 3 3 2 1 3 2 3 3 2
19 18 17 16 18 20 21 21 20 19 15 17 10 6 8 21 18 3 4 7 2 3 2 3 2 2 2 2 3 2 2 2 1 4 2 1 4 3 3 3 7 5 5 2 1 3 2
17 17 16 14 15 17 20 20 19 18 13 14 6 3 11 26 8 5 5 3 3 5 4 3 1 4 4 3 1 1 3 3 3 2 3 2 1 3 2 4 2 1 3 5 3 3 2
16 16 17 14 13 14 16 18 15 16 17 10 4 3 17 22 5 3 3 4 5 5 2 3 4 2 3 5 3 1 2 2 4 3 1 4 1 3 5 4 4 4 4 4 2 3 3
16 15 17 16 13 12 13 13 14 11 15 6 2 2 7 8 4 2 3 2 2 5 5 5 5 3 1 2 4 4 4 4 5 5 3 4 2 3 7 5 4 3 5 4 3 3 4
17 14 16 17 15 10 8 8 11 8 9 5 3 3 4 4 1 3 3 4 4 2 4 5 4 4 3 4 3 2 1 2 1 2 3 1 3 1 4 4 4 7 8 5 4 4 3
18 14 14 15 15 13 4 3 6 3 6 5 3 0 3 3 5 4 3 3 3 4 4 7 7 6 2 4 4 4 5 6 2 6 2 2 2 3 3 3 1 3 7 12 8 6 3
17 13 15 14 13 16 4 6 8 5 4 5 2 3 3 1 3 6 5 4 4 4 3 4 4 6 6 4 2 3 4 4 1 5 3 2 1 1 5 7 7 4 10 9 8 9 8
15 12 14 15 12 13 3 9 12 11 6 5 4 1 3 5 4 3 3 4 5 4 2 2 2 1 4 3 3 6 5 4 0 1 3 2 2 2 3 6 7 5 5 4 2 4 5
14 11 13 14 10 11 7 16 19 16 13 13 4 0 2 3 1 3 6 4 5 6 3 4 3 1 2 6 4 2 2 3 4 3 1 2 2 1 2 4 3 5 2 2 2 2 2
12 10 10 11 7 9 16 20 19 16 14 14 6 5 3 0 3 5 7 4 5 6 4 4 3 3 4 4 3 4 4 4 3 3 3 2 3 2 2 1 4 3 4 4 4 4 4
10 7 6 8 7 20 24 19 14 12 12 11 8 6 3 3 3 2 3 3 1 3 6 3 4 4 4 3 3 1 2 2 4 8 3 3 4 3 1 3 6 5 3 4 3 4 9
10 6 1 3 7 13 18 15 9 5 6 7 5 3 3 3 3 4 2 3 2 1 2 4 6 5 3 3 2 1 3 2 2 2 2 3 2 3 2 2 6 5 5 3 5 6 6
8 8 4 4 8 12 12 11 8 6 3 2 3 5 5 2 2 5 6 2 3 2 1 4 3 4 3 3 0 2 2 3 1 4 3 4 3 4 1 1 7 6 4 7 5 0 5
10 9 8 8 8 13 14 14 9 5 4 5 3 4 4 3 2 4 6 12 11 8 3 3 1 1 1 2 1 1 2 2 1 3 2 3 6 3 7 5 4 6 4 5 4 5 5

GFSGBSN_925_spd_111.txt.gz
Wind_Speed
34 36 31 30 32 33 34 32 32 20 13 18 21 24 19 19 19 18 16 14 11 11 15 14 10 21 16 3 3 8 17 16 14 12 9 5 4 3 4 2 2 2 3 6 6 8 6
33 28 32 34 32 31 32 30 28 21 18 19 18 18 16 17 20 17 17 14 11 12 13 15 11 28 10 5 2 11 18 16 14 11 8 5 4 3 4 2 1 3 5 9 8 10 8
26 34 33 32 33 33 32 30 28 23 20 18 16 14 14 16 14 12 12 10 12 15 15 15 18 18 7 5 4 16 16 11 12 11 5 3 3 5 3 2 2 4 7 7 7 2 5
33 32 32 32 32 35 30 31 30 26 19 17 14 13 14 14 8 5 6 10 16 21 17 12 27 12 3 6 16 19 16 12 10 10 11 7 7 5 2 2 4 4 2 5 3 3 5
31 30 31 31 32 34 34 31 33 28 13 12 13 17 12 10 7 7 5 9 8 6 20 26 18 3 7 9 8 16 17 10 13 11 10 9 6 2 1 1 3 2 2 3 7 2 3
29 28 30 31 34 33 34 34 30 26 15 11 11 13 16 10 7 4 5 7 12 25 23 20 12 5 5 8 11 9 7 15 5 7 4 3 3 2 2 1 2 0 3 4 7 5 1
27 28 29 31 32 33 35 35 26 24 15 15 17 15 9 10 5 7 8 14 3 6 7 2 8 9 10 18 19 10 9 6 4 3 3 2 3 5 7 6 2 1 5 14 14 13 10
27 27 28 29 31 32 34 37 27 23 18 14 13 14 12 14 12 11 9 6 3 5 8 7 14 16 18 16 6 3 10 4 3 2 5 2 6 9 5 5 6 8 11 15 14 8 5
25 25 27 27 29 29 33 35 29 27 24 18 15 14 13 13 14 16 14 13 12 6 5 7 9 9 4 7 4 5 4 2 3 1 3 5 4 2 6 3 4 10 8 14 13 13 12
24 23 25 26 26 27 29 30 29 28 29 26 21 17 10 5 8 7 6 4 2 2 4 7 5 6 4 3 5 3 6 2 1 6 3 5 6 6 2 4 7 10 7 11 11 8 4
22 21 22 23 25 25 25 25 26 26 26 25 23 17 17 16 4 5 6 3 3 3 6 5 4 1 4 4 7 1 2 4 0 2 2 6 3 2 1 4 4 7 4 7 9 11 8
20 20 20 21 22 23 22 22 22 26 27 24 23 17 10 11 17 12 6 4 5 6 6 3 4 3 1 3 3 3 3 3 1 3 4 8 3 3 5 3 5 7 9 12 10 5 5
17 18 18 18 19 19 19 20 20 20 22 21 20 20 22 15 5 11 6 3 5 6 0 3 3 2 0 2 3 2 3 2 3 3 3 5 2 3 2 4 2 4 6 4 4 1 4
16 16 15 15 16 18 18 19 19 16 14 19 14 13 15 17 16 12 4 4 9 5 5 4 3 2 2 3 3 4 2 2 5 1 1 3 6 5 3 4 3 3 2 2 4 2 3
13 15 15 13 14 16 18 18 18 17 14 17 18 11 9 24 18 4 3 7 3 1 3 4 1 2 2 2 4 3 4 2 0 7 3 2 4 1 4 3 3 1 4 2 3 3 2
12 14 14 12 13 13 15 18 16 17 15 16 11 10 9 30 13 5 4 8 2 2 1 2 1 3 2 1 2 1 1 1 0 2 2 1 5 4 2 1 5 5 3 2 2 4 2
12 12 13 13 12 12 11 14 15 15 15 13 5 4 17 25 8 6 6 4 3 3 1 2 1 2 1 1 2 1 1 3 3 2 4 2 3 4 1 5 3 1 2 3 2 2 2
14 11 12 11 13 13 10 10 12 14 15 9 4 3 20 20 5 3 3 3 4 4 1 3 1 0 3 5 2 1 1 3 6 3 3 6 2 4 6 3 3 3 4 2 2 2 2
16 11 12 12 12 12 11 5 8 12 16 4 3 2 9 10 4 4 5 3 2 6 4 4 2 2 1 2 2 3 4 4 6 5 4 4 1 4 7 4 4 2 3 4 0 2 2
16 14 12 11 9 11 10 7 2 6 11 7 3 3 4 4 2 3 6 5 6 4 2 4 4 2 4 5 4 2 3 1 5 5 8 2 1 2 3 4 2 6 8 3 2 2 2
16 14 13 13 10 10 10 7 3 2 7 7 3 1 3 3 4 3 3 5 6 7 6 7 5 6 3 3 4 5 4 5 0 5 2 0 1 2 4 4 3 2 4 5 4 4 2
14 16 14 13 13 10 11 7 5 4 7 8 3 3 2 1 2 5 5 5 7 7 5 6 4 6 6 3 1 2 3 2 1 4 2 3 2 2 3 7 6 3 7 5 5 4 7
14 14 13 14 13 11 8 8 7 6 2 3 4 3 4 4 2 3 2 5 5 5 2 2 4 3 5 3 4 6 5 5 5 2 2 1 3 2 4 5 7 5 2 2 1 1 6
16 13 11 14 11 13 10 12 8 5 3 5 3 4 3 1 1 2 2 1 3 4 2 5 4 3 4 7 4 3 4 5 5 1 2 2 3 2 3 3 2 5 2 2 3 3 4
14 13 9 10 12 10 11 17 10 8 6 8 9 4 3 3 2 2 1 0 3 4 2 3 2 4 4 5 4 5 4 5 2 2 4 2 3 1 1 2 5 2 5 6 5 6 6
14 11 7 4 5 11 16 16 10 7 6 5 4 5 4 4 5 2 3 1 2 2 5 3 4 4 4 3 4 3 2 2 5 9 3 3 4 3 1 2 4 5 3 3 3 5 9
16 11 7 3 5 10 15 14 9 3 1 1 2 2 2 3 3 5 4 5 4 3 2 4 5 6 4 3 3 2 4 2 3 4 4 3 2 1 1 3 7 5 4 4 5 6 4
16 14 10 8 10 13 13 11 9 6 6 4 1 4 2 1 3 7 4 3 2 2 4 4 2 3 3 3 1 2 0 2 4 4 3 2 1 3 1 2 6 2 3 6 4 3 4
19 17 13 13 12 16 17 16 12 7 5 6 4 4 4 4 4 5 9 12 6 5 4 1 3 5 4 3 2 2 2 1 2 4 3 3 5 3 7 5 4 5 5 5 2 2 2

GFSGBSN_925_spd_114.txt.gz
Wind_Speed
32 30 29 31 32 34 32 29 29 25 17 15 14 13 17 15 14 15 13 13 12 8 6 6 6 24 17 7 5 5 20 18 14 11 8 5 5 3 4 3 2 1 3 5 5 9 6
29 29 30 30 31 33 33 31 31 29 19 14 12 9 9 12 12 12 13 10 10 8 6 5 3 24 6 7 6 9 20 15 13 12 8 5 4 4 5 3 2 1 4 7 7 7 5
27 27 29 30 32 33 32 32 29 29 16 11 12 11 11 10 12 9 6 5 6 8 11 5 6 17 1 6 7 20 15 12 10 15 5 6 8 6 4 2 2 4 6 6 2 1 4
27 26 28 29 32 34 34 31 27 23 18 14 11 16 11 7 4 5 4 3 11 14 15 6 4 12 3 5 12 20 16 15 13 12 14 10 11 6 4 2 4 4 3 5 2 1 2
26 27 27 28 31 33 35 30 28 23 20 17 13 20 19 12 3 1 8 7 5 3 11 19 9 10 5 10 11 13 16 10 15 11 8 9 5 3 2 3 4 5 2 2 7 1 3
25 26 26 27 30 32 35 33 29 24 21 20 17 15 19 14 12 10 10 19 20 28 24 17 8 11 1 4 9 11 15 14 8 7 4 5 3 3 1 3 1 3 4 5 6 5 2
24 25 23 24 26 29 32 33 33 27 22 20 19 18 18 8 9 8 12 10 3 6 8 3 6 10 10 10 15 8 10 12 4 4 3 2 5 3 6 4 3 3 8 12 13 10 8
23 23 23 22 22 24 26 29 30 30 29 25 22 20 19 21 11 10 10 5 4 7 9 17 20 18 16 9 7 2 4 4 2 3 3 3 1 4 4 3 4 6 8 9 11 4 3
21 22 21 20 20 22 23 25 27 29 28 26 21 18 13 13 19 27 21 12 10 6 5 8 9 9 3 4 5 5 2 2 3 2 2 3 2 4 4 3 4 5 6 6 10 13 7
20 21 20 19 18 20 22 22 24 27 29 28 23 19 12 3 7 7 6 4 5 5 4 8 5 6 4 2 5 2 2 2 1 3 3 3 4 3 3 4 6 4 7 11 12 7 4
20 18 20 19 18 17 20 21 21 23 24 25 26 16 21 14 8 5 4 3 5 2 6 9 5 3 6 5 7 3 2 4 2 1 4 5 2 1 2 4 6 7 2 6 9 13 10
18 17 18 19 18 17 17 19 19 19 19 20 21 21 14 11 13 13 7 5 2 6 6 4 5 3 3 5 2 2 2 4 1 2 1 6 2 2 5 4 6 5 7 8 4 3 3
17 16 13 18 18 19 17 16 15 14 15 17 14 15 20 18 8 14 9 2 5 6 1 3 2 4 2 3 3 2 1 2 1 4 3 5 2 3 3 3 1 2 4 4 5 1 4
16 16 15 16 19 20 19 17 15 13 13 15 13 9 18 20 14 7 3 4 10 5 4 2 1 0 4 2 2 1 1 2 4 1 1 3 6 5 4 5 2 2 1 1 3 2 5
14 15 16 14 17 19 21 20 16 15 14 14 12 6 13 24 12 4 4 8 3 1 1 3 3 3 3 2 2 1 3 2 3 8 4 2 4 2 4 3 3 2 3 1 3 3 3
16 14 15 16 16 19 20 21 17 17 16 13 6 5 13 22 11 8 5 8 4 3 2 2 3 0 2 0 1 1 1 2 1 4 3 1 5 3 0 1 4 5 1 2 1 3 3
20 14 15 15 15 19 20 21 17 17 18 10 5 4 21 16 8 7 6 5 3 3 1 2 1 1 2 2 2 2 2 4 3 2 2 2 0 5 1 5 4 2 2 4 2 1 2
20 18 15 15 13 17 19 20 18 16 18 8 4 4 23 13 5 2 3 2 4 4 0 1 1 2 2 3 1 1 2 3 4 3 2 4 2 4 7 1 2 4 4 3 2 2 1
20 20 17 15 11 12 16 20 16 16 20 6 3 2 10 8 4 3 3 1 3 5 5 5 4 4 3 2 2 3 3 4 5 4 3 2 1 4 4 3 3 1 2 3 1 1 2
19 21 19 16 15 12 12 17 16 12 17 6 3 3 4 4 2 3 3 4 5 5 1 3 4 1 4 5 3 2 5 2 4 4 5 2 2 3 4 5 2 6 7 2 3 1 3
18 19 20 17 16 14 13 13 11 10 12 6 3 1 3 2 4 3 0 2 4 6 4 7 4 5 2 5 6 5 4 5 2 2 2 2 3 1 5 6 3 4 5 2 3 3 2
18 18 20 17 17 16 12 9 6 7 10 4 3 4 1 2 1 3 5 4 3 4 2 4 4 6 5 4 2 4 4 3 2 5 2 2 2 2 4 1 4 4 3 3 3 2 6
19 17 18 18 18 16 9 5 5 3 7 4 3 3 2 2 3 3 1 1 2 2 1 3 2 1 3 2 5 7 5 5 5 2 3 2 2 4 5 6 7 5 4 2 2 2 6
18 17 16 16 16 16 10 5 4 3 3 2 1 3 3 2 1 4 5 3 2 2 2 3 3 3 3 4 2 0 3 6 6 6 3 1 2 2 4 3 2 5 2 2 4 5 8
17 17 16 14 15 16 4 12 6 3 2 2 3 2 3 1 1 2 4 4 3 3 4 3 3 4 1 2 3 4 4 3 1 2 2 2 2 1 1 2 6 2 5 6 6 6 9
17 16 15 12 10 4 9 12 8 3 2 3 4 3 3 4 5 2 3 3 3 3 3 4 2 4 3 2 2 2 3 2 3 8 2 3 3 3 0 0 5 4 2 3 3 5 5
17 17 15 10 7 4 9 11 7 3 2 2 2 0 3 1 3 5 4 4 5 1 2 3 3 1 2 2 1 2 3 2 2 3 3 2 1 3 2 3 8 5 2 1 4 6 2
18 19 16 13 9 9 10 10 8 5 3 3 2 1 0 2 4 7 5 5 2 3 4 2 2 1 2 2 3 3 3 4 2 5 5 6 5 4 3 2 7 6 4 6 5 3 3
20 20 18 17 13 13 15 14 11 8 6 3 2 1 3 2 4 6 11 12 6 5 3 1 2 1 3 3 1 2 3 2 4 4 1 3 6 4 8 6 6 7 8 5 4 4 4

GFSGBSN_925_spd_117.txt.gz
Wind_Speed
26 27 27 29 31 32 32 30 27 25 17 12 13 9 7 10 5 7 5 4 6 6 0 1 1 22 17 5 1 6 10 17 15 12 7 4 4 3 5 4 3 2 1 3 4 7 7
27 26 27 28 30 33 31 29 26 24 18 16 15 14 11 7 5 8 4 2 2 6 2 3 3 21 7 6 5 9 17 16 13 13 7 5 4 4 6 3 3 2 2 6 6 5 5
26 26 27 28 29 32 30 28 27 24 22 19 21 20 15 4 5 8 6 6 8 7 4 6 16 9 7 7 6 20 13 15 13 14 7 9 7 5 4 4 1 1 4 5 1 2 3
25 26 25 27 27 29 29 27 25 26 25 20 20 25 20 8 9 13 7 5 6 6 4 6 10 12 5 9 16 14 21 19 16 17 17 12 14 7 4 4 4 3 3 3 1 3 2
25 25 25 25 25 27 31 29 25 22 21 22 24 24 19 14 9 12 12 13 7 12 12 18 18 10 5 10 12 17 16 15 15 14 12 8 5 3 3 3 3 6 1 3 8 3 2
24 24 24 24 23 24 26 27 27 25 22 21 21 22 14 16 16 14 21 29 27 26 22 20 16 7 2 4 6 12 15 12 8 6 5 6 4 3 3 3 3 2 2 2 6 4 5
23 23 23 23 22 22 23 23 24 24 24 23 22 24 23 15 14 14 17 10 5 7 9 4 7 9 5 12 10 8 9 13 4 6 3 3 4 2 3 3 4 1 2 6 6 9 5
21 22 23 23 22 20 20 22 24 24 22 22 21 18 19 21 13 9 14 5 5 6 10 22 20 18 12 5 12 5 4 4 3 3 2 4 1 3 2 3 2 1 3 6 9 6 4
20 21 21 22 22 22 22 20 22 24 24 21 24 14 13 24 22 31 25 14 8 5 6 8 10 8 5 8 6 2 3 2 4 3 1 3 3 5 2 1 1 3 4 4 7 6 9
20 19 20 21 21 22 23 22 20 23 25 26 22 23 7 3 13 8 7 8 5 4 4 7 6 6 1 6 5 1 2 2 2 3 3 2 1 3 2 3 6 3 8 11 9 7 4
19 19 19 20 22 22 23 22 20 21 24 25 25 20 21 17 4 5 6 7 6 1 6 10 5 3 6 4 6 3 5 5 3 2 3 2 2 3 2 5 6 6 1 5 6 11 8
18 19 19 18 21 23 24 24 22 20 19 19 18 19 13 8 10 6 7 6 2 6 8 5 2 4 4 5 3 3 4 5 1 2 1 5 2 3 5 3 7 4 5 6 5 3 4
18 18 19 19 19 21 22 24 23 21 19 16 12 14 18 6 4 5 4 3 6 7 2 5 3 4 4 3 3 2 1 2 2 4 3 3 3 3 4 2 1 3 4 3 4 2 5
21 17 18 20 20 21 22 22 23 21 20 16 13 8 13 18 6 0 2 6 10 4 4 2 1 2 3 1 1 1 1 1 3 2 1 3 5 3 4 5 2 2 1 2 3 2 4
22 19 18 19 20 21 24 23 21 21 22 14 12 4 11 19 5 3 5 9 3 2 1 1 2 3 3 1 3 1 1 2 1 5 2 3 4 1 4 2 1 2 2 0 3 4 3
22 22 18 19 19 21 23 25 24 23 24 15 6 5 14 14 8 5 5 8 3 2 3 2 3 2 3 4 3 4 3 0 2 4 4 2 5 3 1 1 3 4 2 2 2 4 4
21 21 21 19 18 20 21 24 25 24 28 9 2 3 18 7 8 6 6 3 0 2 2 2 1 2 3 1 2 1 2 4 2 4 4 1 1 5 2 4 4 2 2 3 3 1 2
20 21 21 20 18 18 20 21 23 24 25 9 3 4 18 5 5 2 3 2 1 2 2 1 2 3 4 6 2 3 2 4 4 4 3 5 2 4 6 2 3 2 4 2 1 1 1
18 20 21 21 20 18 18 19 20 19 22 6 3 1 8 4 3 3 3 3 2 5 3 1 1 2 1 3 2 3 3 3 7 5 4 3 1 4 3 3 1 3 3 4 0 1 3
18 18 20 21 21 18 17 16 16 15 15 5 3 3 4 4 1 5 2 3 3 3 0 2 3 3 3 3 3 2 4 1 4 4 4 3 2 5 4 5 1 4 3 4 5 2 2
16 18 18 20 21 20 17 13 11 12 14 3 3 1 3 2 3 3 2 0 3 4 3 5 3 3 1 4 3 4 2 5 1 3 1 2 3 3 6 8 3 5 6 4 6 5 3
16 17 17 18 20 19 16 11 8 10 12 5 3 4 2 2 3 1 2 1 1 1 1 4 3 4 3 3 5 4 1 3 2 4 1 1 3 1 5 4 5 5 6 5 5 2 2
14 16 16 18 19 18 16 8 5 7 7 4 2 2 3 1 2 1 3 4 4 1 2 1 2 1 2 3 6 7 5 3 3 2 2 1 1 3 4 5 7 5 8 7 4 4 6
13 15 15 16 18 18 17 5 2 5 4 2 3 4 3 1 2 4 3 3 5 3 2 3 4 3 1 3 1 1 2 6 5 6 5 1 2 2 4 6 2 4 2 2 4 5 8
14 13 14 14 15 15 9 7 4 3 4 4 2 1 3 0 2 2 3 3 3 2 3 3 4 3 2 4 2 4 4 3 2 3 5 5 2 1 1 2 7 2 4 5 6 6 11
16 12 13 12 11 8 4 6 3 4 4 4 4 3 3 4 4 3 3 3 3 2 4 5 3 0 2 2 2 2 3 1 3 5 3 3 2 3 1 1 5 5 2 5 4 5 2
16 14 13 13 10 5 4 7 5 2 0 1 2 1 2 1 3 5 4 5 4 2 3 4 3 1 3 2 1 3 3 2 3 3 4 2 1 5 4 4 8 6 3 2 4 5 3
18 16 15 14 11 9 8 9 8 6 4 3 1 1 1 2 4 7 6 5 2 2 3 2 2 2 2 1 3 3 4 4 1 4 4 6 5 4 2 2 7 7 4 8 6 3 3
20 18 17 16 14 12 11 13 12 9 7 6 3 3 4 4 5 7 13 15 8 6 4 3 4 4 4 3 1 0 2 1 2 3 1 3 5 3 8 6 3 5 4 5 2 4 3